ftp/pub/palmer/observations_modified/2019/November/AR191116_BASE.txt

Download

Sample DateTime	Unit Id	WS Avg 2min	WD Avg 2min	WGS 10min	WGD 10min	Air Temp	Rel Humidity	Dew Point	Pyranometer	Quantum	Air Pressure	Snow Level	Rainfall	PW Current	Visibility	CBase 1	CBase 2	CBase 3	Vert Vis
2019/11/16  00:00:00  BASE  0        9    0.84672  353  0.1   100   0.1   17    0     967.1    NA       0.0000   -SN      BR    4000  0    
2019/11/16  00:01:00  BASE  0        14   0.84672  353  0.1   100   0.1   17    0     967.2    NA       0.0000   -SN      BR    3300  0    
2019/11/16  00:02:00  BASE  0        21   0.84672  353  0.1   100   0.1   16    0     967.2    NA       0.0000   -SN      BR    3400  0    
2019/11/16  00:03:00  BASE  0        32   0.84672  353  0.1   100   0.1   16    0     967.2    NA       0.0000   -SN      BR    3500  0    
2019/11/16  00:04:00  BASE  0        41   0.66444  343  0.1   100   0.1   16    0     967.2    NA       0.0000   -SN      BR    3400  0    
2019/11/16  00:05:00  BASE  0        47   0        M    0.1   100   0.1   15    0     967.2    NA       0.0000   -SN      BR    4000  0    
2019/11/16  00:06:00  BASE  0.13524  46   0.69384  43   0.1   100   0.1   15    0     967.2    NA       0.0000   -SN      BR    3900  0    
2019/11/16  00:07:00  BASE  0.13524  46   0.69384  43   0.1   100   0.1   15    0     967.2    NA       0.0000   -SN      BR    5000  0    
2019/11/16  00:08:00  BASE  0        48   0.69384  43   0.1   100   0.1   14    0     967.2    NA       0.0000   -SN      BR    7000  0    
2019/11/16  00:09:00  BASE  0        48   0.69384  43   0.2   100   0.2   13    0     967.2    NA       0.0000   -SN      BR    7000  0    
2019/11/16  00:10:00  BASE  0        45   0.69384  43   0.2   100   0.2   13    0     967.2    NA       0.0000   -SN      BR    7000  0    
2019/11/16  00:11:00  BASE  0        44   0.69384  43   0.2   100   0.2   12    0     967.2    NA       0.0000   -SN      BR    9999  0    
2019/11/16  00:12:00  BASE  0        44   0.69384  43   0.2   100   0.2   11    0     967.2    NA       0.0000   -SN      BR    8000  0    
2019/11/16  00:13:00  BASE  0        46   0.69384  43   0.2   100   0.2   11    0     967.2    NA       0.0000   -SN      BR    5000  0    
2019/11/16  00:14:00  BASE  0        50   0.69384  43   0.2   100   0.2   10    0     967.2    NA       0.2540   -SN      BR    5000  0    
2019/11/16  00:15:00  BASE  0        51   0.69384  43   0.2   100   0.2   10    0     967.2    NA       0.0000   -SN      BR    5000  0    
2019/11/16  00:16:00  BASE  0        51   0        M    0.2   100   0.2   9     0     967.2    NA       0.0000   -SN      BR    5000  0    
2019/11/16  00:17:00  BASE  0.02352  52   0.60564  65   0.2   100   0.2   9     0     967.2    NA       0.0000   -SN      BR    5000  0    
2019/11/16  00:18:00  BASE  0.12936  58   0.66444  58   0.2   100   0.2   8     0     967.2    NA       0.0000   -SN      BR    7000  0    
2019/11/16  00:19:00  BASE  0.31752  60   0.69384  59   0.2   100   0.2   8     0     967.2    NA       0.0000   -SN      BR    9999  200  
2019/11/16  00:20:01  BASE  0.53508  58   0.69384  54   0.2   100   0.2   8     0     967.2    NA       0.0000   -SN      BR    9999  230  
2019/11/16  00:21:00  BASE  0.42924  64   0.69384  54   0.2   100   0.2   8     0     967.2    NA       0.0000   -SN      BR    9999  200  
2019/11/16  00:22:00  BASE  0.3234   75   0.72324  84   0.2   100   0.2   7     0     967.3    NA       0.0000   -SN      BR    9999  200  
2019/11/16  00:23:00  BASE  0.48216  83   0.72324  87   0.2   100   0.2   7     0     967.3    NA       0.0000   -SN      BR    9000  0    
2019/11/16  00:24:00  BASE  0.45276  87   0.72324  87   0.2   100   0.2   7     0     967.3    NA       0.0000   -SN      BR    9000  0    
2019/11/16  00:25:00  BASE  0.18816  93   0.72324  87   0.1   100   0.1   7     0     967.3    NA       0.0000   -SN      BR    9000  0    
2019/11/16  00:26:00  BASE  0.32928  97   0.81732  98   0.1   100   0.1   6     0     967.3    NA       0.0000   -SN      BR    9999  200  
2019/11/16  00:27:00  BASE  0.71736  99   0.81732  103  0.1   100   0.1   6     0     967.3    NA       0.0000   -SN      BR    9999  230  
2019/11/16  00:28:00  BASE  0.67032  109  1.029    112  0.1   100   0.1   6     0     967.3    NA       0.0000   -SN      9999  200   0    
2019/11/16  00:29:00  BASE  0.46452  123  1.029    112  0.1   100   0.1   6     0     967.3    NA       0.0000   -SN      9999  230   0    
2019/11/16  00:30:00  BASE  0.18228  124  1.029    112  0.1   100   0.1   6     0     967.3    NA       0.0000   -SN      9999  230   0    
2019/11/16  00:31:00  BASE  0        117  1.029    112  0.1   100   0.1   6     0     967.3    NA       0.0000   -SN      9999  260   0    
2019/11/16  00:32:00  BASE  0        116  1.029    112  0.1   100   0.1   5     0     967.3    NA       0.0000   -SN      9999  230   2230 
2019/11/16  00:33:00  BASE  0        116  1.029    112  0.1   100   0.1   5     0     967.3    NA       0.0000   -SN      9999  230   2170 
2019/11/16  00:34:00  BASE  0        116  1.029    112  0.1   100   0.1   5     0     967.3    NA       0.0000   -SN      9999  260   2200 
2019/11/16  00:35:00  BASE  0        112  1.029    112  0.1   100   0.1   5     0     967.3    NA       0.0000   -SN      9999  230   0    
2019/11/16  00:36:00  BASE  0        92   1.029    112  0.1   100   0.1   5     0     967.3    NA       0.0000   -SN      9999  230   0    
2019/11/16  00:37:00  BASE  0        76   1.029    112  0.1   100   0.1   5     0     967.3    NA       0.0000   -SN      8000  230   0    
2019/11/16  00:38:00  BASE  0        78   0.66444  131  0.1   100   0.1   5     0     967.3    NA       0.0000   -SN      9999  260   0    
2019/11/16  00:39:00  BASE  0.22344  82   0.75852  85   0.1   100   0.1   4     0     967.3    NA       0.0000   -SN      9999  260   0    
2019/11/16  00:40:00  BASE  0.56448  84   0.78792  84   0.1   100   0.1   4     0     967.3    NA       0.0000   -SN      9999  260   0    
2019/11/16  00:41:00  BASE  0.68796  85   0.84672  85   0.1   100   0.1   4     0     967.3    NA       0.0000   -SN      9999  260   0    
2019/11/16  00:42:00  BASE  0.78792  84   1.029    83   0.2   100   0.2   4     0     967.3    NA       0.0000   -SN      7000  260   0    
2019/11/16  00:43:00  BASE  0.93492  83   1.029    83   0.2   100   0.2   4     0     967.3    NA       0.0000   -SN      BR    7000  300  
2019/11/16  00:44:00  BASE  0.96432  84   1.029    83   0.2   100   0.2   4     0     967.3    NA       0.0000   -SN      BR    9999  330  
2019/11/16  00:45:00  BASE  0.90552  89   1.029    83   0.2   100   0.2   3     0     967.3    NA       0.0000   -SN      BR    9999  330  
2019/11/16  00:46:00  BASE  0.8526   94   1.029    83   0.2   100   0.2   3     0     967.3    NA       0.0000   -SN      9999  330   0    
2019/11/16  00:47:00  BASE  0.82908  95   1.029    83   0.2   100   0.2   3     0     967.3    NA       0.0000   -SN      8000  300   0    
2019/11/16  00:48:00  BASE  0.86436  91   1.029    83   0.2   100   0.2   3     0     967.3    NA       0.0000   -SN      BR    6000  330  
2019/11/16  00:49:00  BASE  0.89376  85   1.029    83   0.2   100   0.2   3     0     967.3    NA       0.0000   -SN      BR    5000  360  
2019/11/16  00:50:00  BASE  0.90552  81   1.029    83   0.2   100   0.2   3     0     967.3    NA       0.0000   -SN      BR    9999  360  
2019/11/16  00:51:00  BASE  0.89376  82   1.029    83   0.2   100   0.2   3     0     967.3    NA       0.0000   -SN      BR    9999  360  
2019/11/16  00:52:00  BASE  0.74088  82   1.029    101  0.2   100   0.2   3     0     967.3    NA       0.0000   -SN      BR    9999  330  
2019/11/16  00:53:00  BASE  0.7644   89   1.029    93   0.2   100   0.2   2     0     967.3    NA       0.0000   -SN      BR    9999  360  
2019/11/16  00:54:00  BASE  0.88788  94   1.029    93   0.2   100   0.2   2     0     967.3    NA       0.0000   -SN      BR    9999  330  
2019/11/16  00:55:00  BASE  0.79968  88   1.029    93   0.2   100   0.2   2     0     967.3    NA       0.0000   -SN      BR    9999  360  
2019/11/16  00:56:00  BASE  0.65856  87   1.029    93   0.2   100   0.2   2     0     967.3    NA       0.0000   -SN      BR    9999  330  
2019/11/16  00:57:00  BASE  0.4998   93   1.029    93   0.2   100   0.2   2     0     967.3    NA       0.0000   -SN      9999  360   3180 
2019/11/16  00:58:00  BASE  0.40572  104  1.029    93   0.2   100   0.2   2     0     967.3    NA       0.0000   -SN      9999  360   3220 
2019/11/16  00:59:00  BASE  0.27048  115  1.029    93   0.2   100   0.2   2     0     967.3    NA       0.0000   -SN      9999  360   0    
2019/11/16  01:00:00  BASE  0.17052  120  1.029    93   0.2   100   0.2   2     0     967.3    NA       0.0000   -SN      9999  330   0    
2019/11/16  01:01:00  BASE  0.1176   124  1.029    93   0.2   100   0.2   2     0     967.3    NA       0.0000   -SN      9999  330   0    
2019/11/16  01:02:00  BASE  0.07644  132  1.029    93   0.3   100   0.3   2     0     967.3    NA       0.0000   -SN      9999  360   820  
2019/11/16  01:03:00  BASE  0.05292  137  0.93492  91   0.3   100   0.3   2     0     967.3    NA       0.0000   -SN      9999  390   0    
2019/11/16  01:04:00  BASE  0        138  0.84672  82   0.3   100   0.3   1     0     967.3    NA       0.0000   -SN      9999  390   0    
2019/11/16  01:05:00  BASE  0        138  0.75852  113  0.3   100   0.3   1     0     967.3    NA       0.0000   9999     360   0     0    
2019/11/16  01:06:00  BASE  0        138  0.75852  113  0.3   100   0.3   1     0     967.3    NA       0.0000   9999     360   0     0    
2019/11/16  01:07:00  BASE  0        139  0.75852  113  0.2   100   0.2   1     0     967.3    NA       0.0000   9999     360   0     0    
2019/11/16  01:08:00  BASE  0        140  0.75852  113  0.2   100   0.2   1     0     967.3    NA       0.0000   9999     330   0     0    
2019/11/16  01:09:00  BASE  0        143  0.75852  113  0.2   100   0.2   1     0     967.3    NA       0.0000   9999     300   0     0    
2019/11/16  01:10:00  BASE  0        167  0.63504  138  0.2   100   0.2   1     0     967.3    NA       0.0000   9999     300   0     0    
2019/11/16  01:11:00  BASE  0        187  0.63504  138  0.2   100   0.2   1     0     967.4    NA       0.0000   9999     330   0     0    
2019/11/16  01:12:00  BASE  0        187  0        M    0.2   100   0.2   1     0     967.4    NA       0.0000   9999     330   0     0    
2019/11/16  01:13:00  BASE  0        187  0        M    0.2   100   0.2   1     0     967.4    NA       0.0000   9999     330   0     0    
2019/11/16  01:14:00  BASE  0        223  0        M    0.2   100   0.2   1     0     967.4    NA       0.0000   9999     330   0     0    
2019/11/16  01:15:00  BASE  0        265  0        M    0.2   100   0.2   1     0     967.4    NA       0.0000   9999     330   0     0    
2019/11/16  01:16:00  BASE  0        294  0        M    0.2   100   0.2   1     0     967.4    NA       0.0000   9999     330   0     0    
2019/11/16  01:17:00  BASE  0        317  0        M    0.2   100   0.2   1     0     967.5    NA       0.0000   9999     300   0     0    
2019/11/16  01:18:00  BASE  0        317  0        M    0.3   100   0.2   1     0     967.5    NA       0.0000   9999     300   0     0    
2019/11/16  01:19:00  BASE  0        318  0        M    0.3   100   0.3   1     0     967.5    NA       0.0000   9999     260   0     0    
2019/11/16  01:20:00  BASE  0        329  0        M    0.2   100   0.2   1     0     967.5    NA       0.0000   9999     260   0     0    
2019/11/16  01:21:00  BASE  0        339  0        M    0.2   100   0.2   1     0     967.5    NA       0.0000   9999     260   0     0    
2019/11/16  01:22:00  BASE  0        335  0        M    0.2   100   0.2   1     0     967.5    NA       0.0000   9999     260   0     0    
2019/11/16  01:23:00  BASE  0        324  0        M    0.2   100   0.2   1     0     967.6    NA       0.0000   9999     230   0     0    
2019/11/16  01:24:00  BASE  0        316  0        M    0.1   100   0.1   1     0     967.7    NA       0.0000   9999     230   0     0    
2019/11/16  01:25:00  BASE  0        314  0        M    0.1   100   0.1   1     0     967.7    NA       0.0000   -SN      9999  230   0    
2019/11/16  01:26:00  BASE  0        314  0        M    0.1   100   0.1   1     0     967.7    NA       0.0000   -SN      9000  200   0    
2019/11/16  01:27:00  BASE  0        314  0        M    0.1   100   0.1   1     0     967.7    NA       0.0000   -SN      7000  0     0    
2019/11/16  01:28:00  BASE  0.0294   314  0.63504  314  0.1   100   0.1   0     0     967.7    NA       0.0000   -SN      BR    6000  0    
2019/11/16  01:29:00  BASE  0.3528   314  0.69384  314  0.1   100   0.1   0     0     967.7    NA       0.0000   -SN      BR    5000  0    
2019/11/16  01:30:00  BASE  0.67032  315  0.78792  317  0.1   100   0.1   0     0     967.7    NA       0.0000   -SN      BR    7000  0    
2019/11/16  01:31:00  BASE  0.62328  317  0.78792  317  0.1   100   0.1   0     0     967.7    NA       0.0000   -SN      BR    6000  0    
2019/11/16  01:32:00  BASE  0.58212  323  0.78792  327  0.1   100   0.1   0     0     967.7    NA       0.0000   -SN      BR    3800  0    
2019/11/16  01:33:00  BASE  0.33516  327  0.78792  327  0.1   100   0.1   0     0     967.7    NA       0.0000   -SN      BR    4300  0    
2019/11/16  01:34:00  BASE  0.12936  328  0.78792  327  0.1   100   0.1   0     0     967.7    NA       0.0000   -SN      BR    4600  0    
2019/11/16  01:35:00  BASE  0.36456  328  0.78792  327  0.1   100   0.1   0     0     967.7    NA       0.0000   -SN      BR    4100  0    
2019/11/16  01:36:00  BASE  0.65268  325  0.81732  322  0.1   100   0.1   0     0     967.7    NA       0.0000   -SN      BR    4800  0    
2019/11/16  01:37:00  BASE  0.81732  319  0.90552  316  0.1   100   0.1   0     0     967.7    NA       0.2540   -SN      BR    5000  0    
2019/11/16  01:38:00  BASE  0.84084  320  0.90552  322  0.1   100   0.1   0     0     967.8    NA       0.0000   -SN      BR    7000  0    
2019/11/16  01:39:00  BASE  0.87612  324  0.9702   323  0.1   100   0.1   0     0     967.8    NA       0.0000   -SN      BR    5000  0    
2019/11/16  01:40:00  BASE  0.89376  326  0.9702   323  0.1   100   0.1   0     0     967.8    NA       0.0000   -SN      BR    4600  0    
2019/11/16  01:41:00  BASE  0.71736  328  0.9702   323  0.1   100   0.1   0     0     967.8    NA       0.0000   -SN      BR    4300  0    
2019/11/16  01:42:00  BASE  0.28812  328  0.9702   323  0.1   100   0.1   0     0     967.8    NA       0.0000   -SN      BR    4300  0    
2019/11/16  01:43:00  BASE  0        328  0.9702   323  0.1   100   0.1   0     0     967.8    NA       0.0000   -SN      BR    4200  0    
2019/11/16  01:44:00  BASE  0        328  0.9702   323  0.1   100   0.1   0     0     967.7    NA       0.0000   -SN      BR    3200  0    
2019/11/16  01:45:00  BASE  0        328  0.9702   323  0.1   100   0.1   0     0     967.7    NA       0.0000   -SN      BR    3400  0    
2019/11/16  01:46:00  BASE  0        328  0.9702   323  0.1   100   0.1   0     0     967.7    NA       0.0000   -SN      BR    3300  0    
2019/11/16  01:47:00  BASE  0        328  0.9702   323  0.1   100   0.1   0     0     967.7    NA       0.0000   -SN      BR    3100  0    
2019/11/16  01:48:00  BASE  0        332  0.9702   323  0.1   100   0.1   0     0     967.8    NA       0.0000   -SN      BR    3000  0    
2019/11/16  01:49:00  BASE  0        348  0.90552  327  0.1   100   0.1   0     0     967.8    NA       0.0000   -SN      BR    3200  0    
2019/11/16  01:50:00  BASE  0        358  0.75852  327  0.1   100   0.1   0     0     967.8    NA       0.0000   -SN      BR    3000  0    
2019/11/16  01:51:00  BASE  0        348  0        M    0.1   100   0.1   0     0     967.8    NA       0.0000   -SN      BR    2600  0    
2019/11/16  01:52:00  BASE  0        331  0        M    0.0   100   0.0   0     0     967.8    NA       0.0000   -SN      BR    3000  0    
2019/11/16  01:53:00  BASE  0        321  0        M    0.0   100   0.0   0     0     967.8    NA       0.0000   -SN      BR    3400  0    
2019/11/16  01:54:00  BASE  0        319  0        M    0.0   100   0.0   0     0     967.8    NA       0.2540   -SN      BR    3500  0    
2019/11/16  01:55:00  BASE  0        320  0        M    0.0   100   0.0   0     0     967.8    NA       0.0000   -SN      BR    3400  0    
2019/11/16  01:56:00  BASE  0        320  0        M    -0.0  100   -0.0  0     0     967.8    NA       0.0000   -SN      BR    3200  0    
2019/11/16  01:57:00  BASE  0        322  0        M    -0.0  100   -0.0  0     0     967.8    NA       0.0000   -SN      BR    2800  0    
2019/11/16  01:58:00  BASE  0        325  0        M    -0.1  100   -0.1  0     0     967.8    NA       0.0000   -SN      BR    2800  0    
2019/11/16  01:59:00  BASE  0        325  0        M    -0.1  100   -0.1  0     0     967.8    NA       0.0000   -SN      BR    2800  0    
2019/11/16  02:00:00  BASE  0        324  0        M    -0.1  100   -0.1  0     0     967.8    NA       0.0000   -SN      BR    3200  0    
2019/11/16  02:01:00  BASE  0        327  0        M    -0.1  100   -0.1  0     0     967.8    NA       0.0000   -SN      BR    3700  0    
2019/11/16  02:02:00  BASE  0        334  0        M    -0.1  100   -0.1  0     0     967.8    NA       0.0000   -SN      BR    3500  0    
2019/11/16  02:03:00  BASE  0        338  0        M    -0.1  100   -0.1  0     0     967.9    NA       0.0000   -SN      BR    3300  0    
2019/11/16  02:04:00  BASE  0        339  0        M    -0.1  100   -0.1  0     0     967.9    NA       0.0000   -SN      BR    3700  0    
2019/11/16  02:05:00  BASE  0        341  0        M    -0.1  100   -0.1  0     0     967.9    NA       0.0000   -SN      BR    3600  0    
2019/11/16  02:06:00  BASE  0        343  0        M    -0.1  100   -0.1  0     0     967.9    NA       0.0000   -SN      BR    4000  0    
2019/11/16  02:07:00  BASE  0        343  0        M    -0.1  100   -0.1  0     0     967.9    NA       0.0000   -SN      BR    5000  0    
2019/11/16  02:08:00  BASE  0        344  0        M    -0.1  100   -0.1  0     0     967.9    NA       0.0000   -SN      BR    5000  0    
2019/11/16  02:09:00  BASE  0        343  0        M    -0.1  100   -0.1  0     0     967.9    NA       0.0000   -SN      BR    7000  0    
2019/11/16  02:10:00  BASE  0        343  0        M    -0.1  100   -0.1  0     0     967.9    NA       0.0000   -SN      BR    6000  0    
2019/11/16  02:11:00  BASE  0        344  0        M    -0.1  100   -0.1  0     0     967.9    NA       0.2540   -SN      BR    6000  0    
2019/11/16  02:12:00  BASE  0        345  0        M    -0.1  100   -0.1  0     0     967.9    NA       0.0000   -SN      BR    6000  0    
2019/11/16  02:13:00  BASE  0        345  0        M    -0.0  100   -0.0  0     0     967.9    NA       0.0000   -SN      BR    8000  0    
2019/11/16  02:14:00  BASE  0        345  0        M    -0.0  100   -0.0  0     0     967.9    NA       0.0000   -SN      BR    6000  0    
2019/11/16  02:15:00  BASE  0        345  0        M    -0.0  100   -0.0  0     0     967.9    NA       0.0000   -SN      BR    6000  0    
2019/11/16  02:16:00  BASE  0        345  0        M    -0.0  100   -0.0  0     0     967.9    NA       0.0000   -SN      BR    5000  0    
2019/11/16  02:17:00  BASE  0        345  0        M    -0.0  100   -0.0  0     0     967.9    NA       0.0000   -SN      BR    5000  0    
2019/11/16  02:18:00  BASE  0        345  0        M    -0.0  100   -0.0  0     0     967.9    NA       0.0000   -SN      BR    4600  0    
2019/11/16  02:19:00  BASE  0        345  0        M    -0.0  100   -0.0  0     0     967.9    NA       0.0000   -SN      BR    5000  0    
2019/11/16  02:20:00  BASE  0        345  0        M    0.0   100   0.0   0     0     967.9    NA       0.0000   -SN      BR    5000  0    
2019/11/16  02:21:00  BASE  0        345  0        M    0.0   100   0.0   0     0     967.9    NA       0.0000   -SN      BR    7000  0    
2019/11/16  02:22:00  BASE  0        345  0        M    0.0   100   0.0   0     0     967.9    NA       0.0000   -SN      BR    6000  230  
2019/11/16  02:23:00  BASE  0        345  0        M    0.0   100   0.0   0     0     967.9    NA       0.0000   -SN      BR    5000  260  
2019/11/16  02:24:00  BASE  0        338  0        M    0.0   100   0.0   0     0     967.9    NA       0.0000   -SN      BR    5000  260  
2019/11/16  02:25:00  BASE  0        322  0        M    0.0   100   0.0   0     0     967.9    NA       0.0000   -SN      BR    5000  260  
2019/11/16  02:26:00  BASE  0        314  0        M    0.0   100   0.0   0     0     967.9    NA       0.0000   -SN      BR    5000  260  
2019/11/16  02:27:00  BASE  0        314  0        M    0.0   100   0.0   0     0     967.9    NA       0.0000   -SN      BR    4900  0    
2019/11/16  02:28:00  BASE  0        314  0        M    0.0   100   0.0   0     0     967.9    NA       0.0000   -SN      BR    6000  0    
2019/11/16  02:29:00  BASE  0        314  0        M    -0.0  100   -0.0  0     0     967.9    NA       0.0000   -SN      BR    5000  0    
2019/11/16  02:30:00  BASE  0        314  0        M    -0.0  100   -0.0  0     0     967.9    NA       0.0000   -SN      BR    3800  0    
2019/11/16  02:31:00  BASE  0        314  0        M    -0.0  100   -0.0  0     0     968.0    NA       0.0000   -SN      BR    3900  0    
2019/11/16  02:32:00  BASE  0        314  0        M    -0.1  100   -0.1  0     0     968.1    NA       0.0000   -SN      BR    4700  0    
2019/11/16  02:33:00  BASE  0        314  0        M    -0.1  100   -0.1  0     0     968.1    NA       0.0000   -SN      BR    3900  0    
2019/11/16  02:34:00  BASE  0        314  0        M    -0.1  100   -0.1  0     0     968.1    NA       0.0000   -SN      BR    4500  0    
2019/11/16  02:35:00  BASE  0        314  0        M    -0.1  100   -0.1  0     0     968.1    NA       0.0000   -SN      BR    3900  0    
2019/11/16  02:36:00  BASE  0        314  0        M    -0.1  100   -0.1  0     0     968.1    NA       0.0000   -SN      BR    3800  0    
2019/11/16  02:37:00  BASE  0        314  0        M    -0.1  100   -0.1  0     0     968.1    NA       0.0000   -SN      BR    3500  0    
2019/11/16  02:38:00  BASE  0        311  0        M    -0.1  100   -0.1  0     0     968.1    NA       0.0000   -SN      BR    3500  0    
2019/11/16  02:39:00  BASE  0        305  0        M    -0.1  100   -0.1  0     0     968.1    NA       0.0000   -SN      BR    3500  0    
2019/11/16  02:40:00  BASE  0        298  0        M    -0.1  100   -0.1  0     0     968.1    NA       0.0000   -SN      BR    3500  0    
2019/11/16  02:41:00  BASE  0        291  0        M    -0.1  100   -0.1  0     0     968.1    NA       0.0000   -SN      BR    3100  0    
2019/11/16  02:42:00  BASE  0        290  0        M    -0.1  100   -0.1  0     0     968.1    NA       0.0000   -SN      BR    3800  0    
2019/11/16  02:43:00  BASE  0        294  0        M    -0.1  100   -0.1  0     0     968.1    NA       0.2540   -SN      BR    3600  0    
2019/11/16  02:44:00  BASE  0        297  0        M    -0.1  100   -0.1  0     0     968.1    NA       0.0000   -SN      BR    3600  0    
2019/11/16  02:45:00  BASE  0        297  0        M    -0.1  100   -0.1  0     0     968.1    NA       0.0000   -SN      BR    5000  0    
2019/11/16  02:46:00  BASE  0        297  0        M    -0.1  100   -0.1  0     0     968.1    NA       0.0000   -SN      BR    7000  230  
2019/11/16  02:47:00  BASE  0        297  0        M    -0.1  100   -0.1  0     0     968.1    NA       0.0000   -SN      BR    6000  230  
2019/11/16  02:48:00  BASE  0        297  0        M    -0.1  100   -0.1  0     0     968.1    NA       0.0000   -SN      BR    5000  230  
2019/11/16  02:49:00  BASE  0        280  0        M    -0.1  100   -0.1  0     0     968.1    NA       0.0000   -SN      BR    4800  230  
2019/11/16  02:50:00  BASE  0        242  0        M    -0.1  100   -0.1  0     0     968.1    NA       0.0000   -SN      BR    4200  0    
2019/11/16  02:51:00  BASE  0        227  0        M    -0.1  100   -0.1  0     0     968.2    NA       0.0000   -SN      BR    3900  0    
2019/11/16  02:52:00  BASE  0        236  0        M    -0.1  100   -0.1  0     0     968.1    NA       0.0000   -SN      BR    4400  0    
2019/11/16  02:53:00  BASE  0        240  0        M    -0.1  100   -0.1  0     0     968.1    NA       0.0000   -SN      BR    4200  0    
2019/11/16  02:54:00  BASE  0        225  0        M    -0.1  100   -0.1  0     0     968.1    NA       0.0000   -SN      BR    4000  0    
2019/11/16  02:55:00  BASE  0        210  0        M    -0.1  100   -0.1  0     0     968.1    NA       0.0000   -SN      BR    3500  0    
2019/11/16  02:56:00  BASE  0        202  0        M    -0.2  100   -0.2  0     0     968.1    NA       0.0000   -SN      BR    3700  0    
2019/11/16  02:57:00  BASE  0        198  0        M    -0.2  100   -0.2  0     0     968.1    NA       0.0000   -SN      BR    4000  0    
2019/11/16  02:58:00  BASE  0        199  0        M    -0.2  100   -0.2  0     0     968.1    NA       0.0000   -SN      BR    4100  0    
2019/11/16  02:59:00  BASE  0        197  0        M    -0.2  100   -0.2  0     0     968.1    NA       0.0000   -SN      BR    4800  0    
2019/11/16  03:00:00  BASE  0        194  0        M    -0.2  100   -0.2  0     0     968.1    NA       0.0000   -SN      BR    6000  0    
2019/11/16  03:01:00  BASE  0        195  0        M    -0.2  100   -0.2  0     0     968.1    NA       0.0000   -SN      BR    5000  0    
2019/11/16  03:02:00  BASE  0        192  0        M    -0.2  100   -0.2  0     0     968.1    NA       0.0000   -SN      BR    6000  0    
2019/11/16  03:03:00  BASE  0        188  0        M    -0.2  100   -0.2  0     0     968.1    NA       0.0000   -SN      BR    6000  0    
2019/11/16  03:04:00  BASE  0        187  0        M    -0.2  100   -0.2  0     0     968.1    NA       0.0000   -SN      BR    5000  0    
2019/11/16  03:05:00  BASE  0        184  0        M    -0.2  100   -0.2  0     0     968.1    NA       0.0000   -SN      BR    6000  0    
2019/11/16  03:06:00  BASE  0        181  0        M    -0.2  100   -0.2  0     0     968.1    NA       0.0000   -SN      BR    6000  0    
2019/11/16  03:07:00  BASE  0        185  0        M    -0.2  100   -0.2  0     0     968.1    NA       0.0000   -SN      BR    7000  0    
2019/11/16  03:08:00  BASE  0        190  0        M    -0.2  100   -0.2  0     0     968.1    NA       0.0000   -SN      BR    7000  0    
2019/11/16  03:09:00  BASE  0        191  0        M    -0.2  100   -0.2  0     0     968.1    NA       0.0000   -SN      BR    7000  0    
2019/11/16  03:10:00  BASE  0        197  0        M    -0.2  100   -0.2  0     0     968.1    NA       0.0000   -SN      BR    6000  0    
2019/11/16  03:11:00  BASE  0        191  0        M    -0.2  100   -0.2  0     0     968.2    NA       0.0000   -SN      BR    5000  0    
2019/11/16  03:12:00  BASE  0        175  0        M    -0.2  100   -0.2  0     0     968.2    NA       0.2540   -SN      BR    7000  0    
2019/11/16  03:13:00  BASE  0        169  0        M    -0.2  100   -0.2  0     0     968.2    NA       0.0000   -SN      BR    7000  0    
2019/11/16  03:14:00  BASE  0        167  0        M    -0.2  100   -0.2  0     0     968.2    NA       0.0000   -SN      BR    9999  0    
2019/11/16  03:15:00  BASE  0        166  0        M    -0.2  100   -0.2  0     0     968.2    NA       0.0000   -SN      BR    9000  0    
2019/11/16  03:16:00  BASE  0        167  0        M    -0.2  100   -0.2  0     0     968.2    NA       0.0000   -SN      BR    9000  0    
2019/11/16  03:17:00  BASE  0        167  0        M    -0.2  100   -0.2  0     0     968.2    NA       0.0000   -SN      BR    9000  1710 
2019/11/16  03:18:00  BASE  0        163  0        M    -0.2  100   -0.2  0     0     968.2    NA       0.0000   -SN      BR    9999  1670 
2019/11/16  03:19:00  BASE  0        156  0        M    -0.2  100   -0.2  0     0     968.2    NA       0.0000   -SN      BR    8000  0    
2019/11/16  03:20:00  BASE  0        152  0        M    -0.2  100   -0.2  0     0     968.2    NA       0.0000   -SN      BR    8000  0    
2019/11/16  03:21:00  BASE  0        154  0        M    -0.2  100   -0.2  0     0     968.2    NA       0.0000   -SN      BR    9000  0    
2019/11/16  03:22:00  BASE  0        159  0        M    -0.3  100   -0.3  0     0     968.2    NA       0.0000   -SN      BR    7000  0    
2019/11/16  03:23:00  BASE  0        157  0        M    -0.3  100   -0.3  0     0     968.2    NA       0.0000   -SN      BR    6000  0    
2019/11/16  03:24:00  BASE  0        146  0        M    -0.3  100   -0.3  0     0     968.2    NA       0.0000   -SN      BR    9000  0    
2019/11/16  03:25:00  BASE  0        135  0        M    -0.2  100   -0.2  0     0     968.3    NA       0.0000   -SN      BR    9000  0    
2019/11/16  03:26:00  BASE  0        130  0        M    -0.2  100   -0.2  0     0     968.3    NA       0.0000   -SN      BR    9000  0    
2019/11/16  03:27:00  BASE  0        134  0        M    -0.2  100   -0.2  0     0     968.3    NA       0.0000   -SN      BR    9000  0    
2019/11/16  03:28:00  BASE  0        145  0        M    -0.2  100   -0.2  0     0     968.3    NA       0.0000   -SN      BR    9999  0    
2019/11/16  03:29:00  BASE  0        158  0        M    -0.2  100   -0.2  0     0     968.3    NA       0.0000   -SN      BR    9999  0    
2019/11/16  03:30:00  BASE  0        167  0        M    -0.2  100   -0.2  0     0     968.3    NA       0.0000   -SN      BR    9999  0    
2019/11/16  03:31:00  BASE  0        173  0        M    -0.2  100   -0.2  0     0     968.3    NA       0.0000   -SN      BR    8000  0    
2019/11/16  03:32:00  BASE  0        176  0        M    -0.2  100   -0.2  0     0     968.4    NA       0.0000   -SN      BR    9000  0    
2019/11/16  03:33:00  BASE  0        177  0        M    -0.2  100   -0.2  0     0     968.4    NA       0.0000   -SN      BR    9000  0    
2019/11/16  03:34:00  BASE  0        179  0        M    -0.2  100   -0.2  0     0     968.4    NA       0.0000   -SN      BR    9999  0    
2019/11/16  03:35:00  BASE  0        175  0        M    -0.2  100   -0.2  0     0     968.4    NA       0.0000   -SN      BR    9000  0    
2019/11/16  03:36:00  BASE  0        168  0        M    -0.2  100   -0.2  0     0     968.4    NA       0.0000   -SN      BR    9999  0    
2019/11/16  03:37:00  BASE  0        163  0        M    -0.2  100   -0.2  0     0     968.4    NA       0.0000   -SN      BR    9999  0    
2019/11/16  03:38:00  BASE  0        162  0        M    -0.2  100   -0.2  0     0     968.4    NA       0.0000   -SN      BR    9999  0    
2019/11/16  03:39:00  BASE  0        164  0        M    -0.2  100   -0.2  0     0     968.4    NA       0.0000   -SN      BR    6000  0    
2019/11/16  03:40:00  BASE  0        164  0        M    -0.2  100   -0.2  0     0     968.4    NA       0.0000   -SN      BR    6000  0    
2019/11/16  03:41:00  BASE  0        155  0        M    -0.2  100   -0.2  0     0     968.4    NA       0.0000   -SN      BR    6000  0    
2019/11/16  03:42:00  BASE  0        147  0        M    -0.2  100   -0.2  0     0     968.4    NA       0.0000   -SN      BR    4900  0    
2019/11/16  03:43:00  BASE  0        142  0        M    -0.2  100   -0.2  0     0     968.4    NA       0.0000   -SN      BR    6000  0    
2019/11/16  03:44:00  BASE  0        141  0        M    -0.2  100   -0.2  0     0     968.4    NA       0.0000   -SN      BR    6000  0    
2019/11/16  03:45:00  BASE  0        141  0        M    -0.2  100   -0.2  0     0     968.4    NA       0.0000   -SN      BR    4900  0    
2019/11/16  03:46:00  BASE  0        147  0        M    -0.1  100   -0.1  0     0     968.4    NA       0.0000   -SN      BR    5000  330  
2019/11/16  03:47:00  BASE  0        152  0        M    -0.1  100   -0.1  0     0     968.4    NA       0.0000   -SN      BR    5000  0    
2019/11/16  03:48:00  BASE  0        148  0        M    -0.1  100   -0.1  0     0     968.4    NA       0.0000   -SN      BR    4900  330  
2019/11/16  03:49:00  BASE  0        137  0        M    -0.1  100   -0.1  0     0     968.4    NA       0.0000   -SN      BR    5000  300  
2019/11/16  03:50:00  BASE  0        116  0        M    -0.1  100   -0.1  0     0     968.4    NA       0.0000   -SN      BR    4500  300  
2019/11/16  03:51:00  BASE  0        110  0        M    -0.1  100   -0.1  0     0     968.4    NA       0.0000   -SN      BR    3800  330  
2019/11/16  03:52:00  BASE  0        119  0        M    0.0   100   0.0   0     0     968.4    NA       0.0000   -SN      BR    4200  300  
2019/11/16  03:53:00  BASE  0        120  0        M    0.1   100   0.1   0     0     968.4    NA       0.0000   -SN      BR    3500  300  
2019/11/16  03:54:00  BASE  0        120  0        M    0.1   100   0.1   0     0     968.5    NA       0.2540   -SN      BR    3800  260  
2019/11/16  03:55:00  BASE  0        119  0        M    0.2   100   0.2   0     0     968.5    NA       0.0000   -SN      BR    3400  200  
2019/11/16  03:56:00  BASE  0        115  0        M    0.2   100   0.2   0     0     968.5    NA       0.0000   -SN      BR    3000  0    
2019/11/16  03:57:00  BASE  0        121  0        M    0.2   100   0.2   0     0     968.5    NA       0.0000   -SN      BR    2600  0    
2019/11/16  03:58:00  BASE  0        133  0        M    0.3   100   0.3   0     0     968.5    NA       0.0000   -SN      BR    2100  0    
2019/11/16  03:59:00  BASE  0        135  0        M    0.3   100   0.3   0     0     968.5    NA       0.0000   -SN      BR    2200  200  
2019/11/16  04:00:00  BASE  0        132  0        M    0.3   100   0.3   0     0     968.5    NA       0.0000   -SN      BR    1900  0    
2019/11/16  04:01:00  BASE  0        129  0        M    0.3   100   0.3   0     0     968.5    NA       0.0000   -SN      BR    1400  0    
2019/11/16  04:02:00  BASE  0        128  0        M    0.3   100   0.3   0     0     M        NA       0.0000   -SN      BR    1300  0    
2019/11/16  04:03:00  BASE  0        131  0        M    0.3   100   0.3   0     0     968.5    NA       0.0000   -SN      BR    1400  230  
2019/11/16  04:04:00  BASE  0        130  0        M    0.3   100   0.3   0     0     968.5    NA       0.0000   -SN      BR    1900  230  
2019/11/16  04:05:00  BASE  0        125  0        M    0.3   100   0.3   0     0     968.5    NA       0.0000   -SN      BR    1700  230  
2019/11/16  04:06:00  BASE  0        122  0        M    0.3   100   0.3   0     0     968.5    NA       0.0000   -SN      BR    1800  230  
2019/11/16  04:07:00  BASE  0        118  0        M    0.3   100   0.3   0     0     968.5    NA       0.0000   -SN      BR    2100  260  
2019/11/16  04:08:00  BASE  0        116  0        M    0.3   100   0.3   0     0     968.5    NA       0.0000   -SN      BR    1900  260  
2019/11/16  04:09:00  BASE  0        116  0        M    0.3   100   0.3   0     0     968.5    NA       0.0000   -SN      BR    2500  260  
2019/11/16  04:10:00  BASE  0        116  0        M    0.3   100   0.3   0     0     968.5    NA       0.0000   -SN      BR    2600  260  
2019/11/16  04:11:00  BASE  0        123  0        M    0.3   100   0.3   0     0     968.5    NA       0.0000   -SN      BR    2600  260  
2019/11/16  04:12:00  BASE  0        121  0        M    0.3   100   0.3   0     0     968.5    NA       0.0000   -SN      BR    2500  260  
2019/11/16  04:13:00  BASE  0        123  0        M    0.3   100   0.3   0     0     968.5    NA       0.0000   -SN      BR    2800  300  
2019/11/16  04:14:00  BASE  0        123  0        M    0.4   100   0.4   0     0     968.5    NA       0.0000   -SN      BR    2800  300  
2019/11/16  04:15:00  BASE  0        103  0        M    0.4   100   0.4   0     0     968.5    NA       0.0000   -SN      BR    2700  300  
2019/11/16  04:16:00  BASE  0        84   0        M    0.4   100   0.4   0     0     968.6    NA       0.0000   -SN      BR    2800  330  
2019/11/16  04:17:00  BASE  0        79   0        M    0.5   100   0.5   0     0     968.6    NA       0.2540   -SN      BR    3400  330  
2019/11/16  04:18:00  BASE  0        89   0        M    0.5   100   0.5   0     0     968.6    NA       0.0000   -SN      BR    3400  330  
2019/11/16  04:19:00  BASE  0        99   0        M    0.5   100   0.5   0     0     968.6    NA       0.0000   -SN      BR    3500  330  
2019/11/16  04:20:00  BASE  0        98   0        M    0.5   100   0.5   0     0     968.6    NA       0.0000   -SN      BR    3700  330  
2019/11/16  04:21:00  BASE  0        71   0        M    0.5   100   0.5   0     0     968.6    NA       0.0000   -SN      BR    3500  360  
2019/11/16  04:22:00  BASE  0        60   0        M    0.5   100   0.5   0     0     968.6    NA       0.0000   -SN      BR    4300  330  
2019/11/16  04:23:00  BASE  0        83   0        M    0.5   100   0.5   0     0     968.6    NA       0.0000   -SN      BR    3900  330  
2019/11/16  04:24:00  BASE  0        97   0        M    0.5   100   0.5   0     0     968.6    NA       0.0000   -SN      BR    4600  360  
2019/11/16  04:25:00  BASE  0        101  0        M    0.5   100   0.5   0     0     968.6    NA       0.0000   -SN      BR    4500  360  
2019/11/16  04:26:00  BASE  0        99   0        M    0.5   100   0.5   0     0     968.7    NA       0.0000   -SN      BR    5000  360  
2019/11/16  04:27:00  BASE  0        108  0        M    0.5   100   0.5   0     0     968.7    NA       0.0000   -SN      BR    4000  390  
2019/11/16  04:28:00  BASE  0        139  0        M    0.6   100   0.6   0     0     968.7    NA       0.0000   -SN      BR    4800  0    
2019/11/16  04:29:00  BASE  0        169  0        M    0.5   100   0.5   0     0     968.7    NA       0.0000   -SN      BR    4900  0    
2019/11/16  04:30:00  BASE  0        188  0        M    0.4   100   0.4   0     0     968.7    NA       0.0000   -SN      BR    6000  0    
2019/11/16  04:31:00  BASE  0        195  0        M    0.3   100   0.3   0     0     968.7    NA       0.0000   -SN      BR    3800  330  
2019/11/16  04:32:00  BASE  0        205  0        M    0.2   100   0.2   0     0     968.7    NA       0.0000   -SN      BR    5000  360  
2019/11/16  04:33:00  BASE  0        197  0        M    0.1   100   0.1   0     0     968.7    NA       0.0000   -SN      BR    7000  330  
2019/11/16  04:34:00  BASE  0        182  0        M    -0.0  100   -0.0  0     0     968.7    NA       0.0000   -SN      BR    5000  300  
2019/11/16  04:35:00  BASE  0        178  0        M    -0.1  100   -0.1  0     0     968.7    NA       0.0000   -SN      BR    4000  230  
2019/11/16  04:36:00  BASE  0        175  0        M    -0.1  100   -0.1  0     0     968.7    NA       0.0000   -SN      BR    3100  230  
2019/11/16  04:37:00  BASE  0        170  0        M    -0.1  100   -0.1  0     0     968.7    NA       0.0000   -SN      BR    1500  0    
2019/11/16  04:38:00  BASE  0        171  0        M    -0.1  100   -0.1  0     0     968.7    NA       0.0000   -SN      BR    1200  0    
2019/11/16  04:39:00  BASE  0        170  0        M    -0.1  100   -0.1  0     0     968.7    NA       0.0000   -SN      BR    1000  0    
2019/11/16  04:40:00  BASE  0        159  0        M    -0.0  100   -0.0  0     0     968.7    NA       0.0000   -SN      BR    1300  0    
2019/11/16  04:41:00  BASE  0        150  0        M    0.0   100   0.0   0     0     968.7    NA       0.0000   -SN      BR    2400  0    
2019/11/16  04:42:00  BASE  0        144  0        M    0.1   100   0.1   0     0     968.7    NA       0.0000   -SN      BR    2200  0    
2019/11/16  04:43:00  BASE  0        130  0        M    0.2   100   0.2   0     0     968.7    NA       0.0000   -SN      BR    2300  0    
2019/11/16  04:44:00  BASE  0        124  0        M    0.3   100   0.3   0     0     968.7    NA       0.0000   -SN      BR    2400  0    
2019/11/16  04:45:00  BASE  0        125  0        M    0.3   100   0.3   0     0     968.7    NA       0.0000   -SN      BR    2700  0    
2019/11/16  04:46:00  BASE  0        120  0        M    0.4   100   0.4   0     0     968.7    NA       0.0000   -SN      BR    3200  260  
2019/11/16  04:47:00  BASE  0        123  0        M    0.4   100   0.4   0     0     968.7    NA       0.0000   -SN      BR    3800  0    
2019/11/16  04:48:00  BASE  0        124  0        M    0.4   100   0.4   0     0     968.7    NA       0.0000   -SN      BR    4100  300  
2019/11/16  04:49:00  BASE  0        122  0        M    0.4   100   0.4   0     0     968.7    NA       0.0000   -SN      BR    4300  300  
2019/11/16  04:50:00  BASE  0        123  0        M    0.4   100   0.4   0     0     968.7    NA       0.2540   -SN      BR    3700  260  
2019/11/16  04:51:00  BASE  0        125  0        M    0.4   100   0.4   0     0     968.8    NA       0.0000   -SN      BR    3600  260  
2019/11/16  04:52:00  BASE  0        125  0        M    0.4   100   0.4   0     0     968.8    NA       0.0000   -SN      BR    3200  260  
2019/11/16  04:53:00  BASE  0        123  0        M    0.4   100   0.4   0     0     968.9    NA       0.0000   -SN      BR    3100  260  
2019/11/16  04:54:00  BASE  0        122  0        M    0.3   100   0.3   0     0     968.9    NA       0.0000   -SN      BR    3200  230  
2019/11/16  04:55:00  BASE  0        118  0        M    0.3   100   0.3   0     0     968.9    NA       0.0000   -SN      BR    3200  200  
2019/11/16  04:56:00  BASE  0        108  0        M    0.3   100   0.3   0     0     968.9    NA       0.0000   -SN      BR    2400  0    
2019/11/16  04:57:00  BASE  0        103  0        M    0.3   100   0.3   0     0     968.9    NA       0.0000   -SN      BR    2200  0    
2019/11/16  04:58:00  BASE  0        103  0        M    0.4   100   0.4   0     0     968.9    NA       0.0000   -SN      BR    2400  0    
2019/11/16  04:59:00  BASE  0        85   0        M    0.4   100   0.4   0     0     968.9    NA       0.0000   -SN      BR    2800  0    
2019/11/16  05:00:00  BASE  0        50   0        M    0.4   100   0.4   0     0     968.9    NA       0.0000   -SN      BR    3500  0    
2019/11/16  05:01:00  BASE  0        31   0        M    0.4   100   0.4   0     0     968.9    NA       0.0000   -SN      BR    3900  0    
2019/11/16  05:02:00  BASE  0        50   0        M    0.5   100   0.5   0     0     969.0    NA       0.0000   -SN      BR    4100  0    
2019/11/16  05:03:00  BASE  0        83   0        M    0.5   100   0.5   0     0     969.0    NA       0.0000   -SN      BR    4100  0    
2019/11/16  05:04:00  BASE  0        113  0        M    0.5   100   0.5   0     0     968.9    NA       0.0000   -SN      BR    3800  0    
2019/11/16  05:05:00  BASE  0        144  0        M    0.4   100   0.4   0     0     968.9    NA       0.2540   -SN      BR    3700  230  
2019/11/16  05:06:00  BASE  0        157  0        M    0.4   100   0.4   0     0     968.9    NA       0.0000   -SN      BR    3600  0    
2019/11/16  05:07:00  BASE  0        142  0        M    0.4   100   0.4   0     0     969.0    NA       0.0000   -SN      BR    3400  0    
2019/11/16  05:08:00  BASE  0        137  0        M    0.4   100   0.4   0     0     969.0    NA       0.0000   -SN      BR    3600  0    
2019/11/16  05:09:00  BASE  0        150  0        M    0.4   100   0.4   0     0     969.0    NA       0.0000   -SN      BR    3700  200  
2019/11/16  05:10:00  BASE  0        156  0        M    0.3   100   0.3   0     0     969.0    NA       0.0000   -SN      BR    3500  0    
2019/11/16  05:11:00  BASE  0        161  0        M    0.3   100   0.3   0     0     969.0    NA       0.0000   -SN      BR    3400  0    
2019/11/16  05:12:00  BASE  0        152  0        M    0.3   100   0.3   0     0     969.0    NA       0.0000   -SN      BR    3600  230  
2019/11/16  05:13:00  BASE  0        144  0        M    0.3   100   0.3   0     0     969.0    NA       0.0000   -SN      BR    3400  230  
2019/11/16  05:14:01  BASE  0        155  0        M    0.3   100   0.3   0     0     969.0    NA       0.0000   -SN      BR    3700  230  
2019/11/16  05:15:00  BASE  0        166  0        M    0.3   100   0.3   0     0     969.0    NA       0.0000   -SN      BR    3500  230  
2019/11/16  05:16:00  BASE  0        170  0        M    0.3   100   0.3   0     0     969.0    NA       0.0000   -SN      BR    3600  230  
2019/11/16  05:17:00  BASE  0        170  0        M    0.3   100   0.3   0     0     969.0    NA       0.0000   -SN      BR    3300  0    
2019/11/16  05:18:00  BASE  0        173  0        M    0.2   100   0.2   0     0     969.1    NA       0.0000   -SN      BR    3100  0    
2019/11/16  05:19:00  BASE  0        176  0        M    0.2   100   0.2   0     0     969.1    NA       0.0000   -SN      BR    2900  200  
2019/11/16  05:20:00  BASE  0        171  0        M    0.2   100   0.2   0     0     969.1    NA       0.0000   -SN      BR    3300  200  
2019/11/16  05:21:00  BASE  0        166  0        M    0.2   100   0.2   0     0     969.1    NA       0.0000   -SN      BR    3300  200  
2019/11/16  05:22:00  BASE  0        168  0        M    0.2   100   0.2   0     0     969.1    NA       0.0000   -SN      BR    3500  230  
2019/11/16  05:23:00  BASE  0        173  0        M    0.2   100   0.2   0     0     969.1    NA       0.0000   -SN      BR    3500  230  
2019/11/16  05:24:00  BASE  0        178  0        M    0.2   100   0.2   0     0     969.1    NA       0.0000   -SN      BR    3500  230  
2019/11/16  05:25:01  BASE  0        166  0        M    0.2   100   0.2   0     0     969.1    NA       0.0000   -SN      BR    3600  230  
2019/11/16  05:26:01  BASE  0        145  0        M    0.2   100   0.2   0     0     969.1    NA       0.2540   -SN      BR    3500  200  
2019/11/16  05:27:01  BASE  0        140  0        M    0.2   100   0.2   0     0     969.2    NA       0.0000   -SN      BR    3400  200  
2019/11/16  05:28:01  BASE  0        148  0        M    0.2   100   0.2   0     0     969.2    NA       0.0000   -SN      BR    3300  200  
2019/11/16  05:29:01  BASE  0        154  0        M    0.1   100   0.1   0     0     969.2    NA       0.0000   -SN      BR    3300  0    
2019/11/16  05:30:01  BASE  0        156  0        M    0.1   100   0.1   0     0     969.2    NA       0.0000   -SN      BR    3300  0    
2019/11/16  05:31:01  BASE  0        156  0        M    0.1   100   0.1   0     0     969.2    NA       0.0000   -SN      BR    3500  0    
2019/11/16  05:32:01  BASE  0        155  0        M    0.1   100   0.1   0     0     969.2    NA       0.0000   -SN      BR    3300  0    
2019/11/16  05:33:00  BASE  0        156  0        M    0.1   100   0.1   0     0     969.2    NA       0.0000   -SN      BR    3200  0    
2019/11/16  05:34:01  BASE  0        159  0        M    0.1   100   0.1   0     0     969.2    NA       0.0000   -SN      BR    2800  0    
2019/11/16  05:35:00  BASE  0        159  0        M    0.1   100   0.1   0     0     969.2    NA       0.0000   -SN      BR    2500  0    
2019/11/16  05:36:00  BASE  0        159  0        M    0.1   100   0.1   0     0     969.2    NA       0.0000   -SN      BR    2700  0    
2019/11/16  05:37:01  BASE  0        159  0        M    0.1   100   0.1   0     0     969.2    NA       0.0000   -SN      BR    2700  0    
2019/11/16  05:38:01  BASE  0        159  0        M    0.1   100   0.1   0     0     969.2    NA       0.0000   -SN      BR    2800  0    
2019/11/16  05:39:00  BASE  0        158  0        M    0.1   100   0.1   0     0     969.2    NA       0.0000   -SN      BR    3100  230  
2019/11/16  05:40:00  BASE  0        157  0        M    0.0   100   0.0   0     0     969.2    NA       0.2540   -SN      BR    2700  0    
2019/11/16  05:41:00  BASE  0        156  0        M    0.0   100   0.0   0     0     969.2    NA       0.0000   -SN      BR    2300  0    
2019/11/16  05:42:00  BASE  0        155  0        M    0.0   100   0.0   0     0     969.2    NA       0.0000   -SN      BR    2300  230  
2019/11/16  05:43:00  BASE  0        154  0        M    0.0   100   0.0   0     0     969.2    NA       0.0000   -SN      BR    2600  230  
2019/11/16  05:44:00  BASE  0        152  0        M    0.0   100   0.0   0     0     969.2    NA       0.0000   -SN      BR    3300  260  
2019/11/16  05:45:00  BASE  0        149  0        M    -0.0  100   -0.0  0     0     969.2    NA       0.0000   -SN      BR    3300  230  
2019/11/16  05:46:00  BASE  0        146  0        M    -0.0  100   -0.0  0     0     969.2    NA       0.0000   -SN      BR    3100  230  
2019/11/16  05:47:00  BASE  0        144  0        M    -0.1  100   -0.1  0     0     969.2    NA       0.0000   -SN      BR    2900  230  
2019/11/16  05:48:00  BASE  0        145  0        M    -0.1  100   -0.1  0     0     969.2    NA       0.0000   -SN      BR    2900  230  
2019/11/16  05:49:00  BASE  0        146  0        M    -0.1  100   -0.1  0     0     969.2    NA       0.0000   -SN      BR    2700  230  
2019/11/16  05:50:00  BASE  0        147  0        M    -0.1  100   -0.1  0     0     969.2    NA       0.0000   -SN      BR    3000  230  
2019/11/16  05:51:00  BASE  0        148  0        M    -0.1  100   -0.1  0     0     969.2    NA       0.0000   -SN      BR    3200  200  
2019/11/16  05:52:00  BASE  0        147  0        M    -0.1  100   -0.1  0     0     969.2    NA       0.0000   -SN      BR    2800  230  
2019/11/16  05:53:00  BASE  0        145  0        M    -0.1  100   -0.1  0     0     969.2    NA       0.0000   -SN      BR    2800  200  
2019/11/16  05:54:00  BASE  0        142  0        M    -0.1  100   -0.1  0     0     969.2    NA       0.0000   -SN      BR    2900  0    
2019/11/16  05:55:00  BASE  0        141  0        M    -0.1  100   -0.1  0     0     969.2    NA       0.0000   -SN      BR    2900  0    
2019/11/16  05:56:00  BASE  0        143  0        M    -0.1  100   -0.1  0     0     969.2    NA       0.0000   -SN      BR    2700  0    
2019/11/16  05:57:00  BASE  0        147  0        M    -0.1  100   -0.1  0     0     969.3    NA       0.0000   -SN      BR    2700  0    
2019/11/16  05:58:00  BASE  0        146  0        M    -0.1  100   -0.1  0     0     969.3    NA       0.0000   -SN      BR    2800  0    
2019/11/16  05:59:00  BASE  0        146  0        M    -0.1  100   -0.1  0     0     969.3    NA       0.0000   -SN      BR    2800  0    
2019/11/16  06:00:00  BASE  0        144  0        M    -0.1  100   -0.1  0     0     969.3    NA       0.0000   -SN      BR    2800  0    
2019/11/16  06:01:00  BASE  0        141  0        M    -0.1  100   -0.1  0     0     969.2    NA       0.0000   -SN      BR    2800  0    
2019/11/16  06:02:00  BASE  0        138  0        M    -0.1  100   -0.1  0     0     969.2    NA       0.0000   -SN      BR    2800  0    
2019/11/16  06:03:00  BASE  0        137  0        M    -0.1  100   -0.1  0     0     969.2    NA       0.0000   -SN      BR    2800  0    
2019/11/16  06:04:00  BASE  0        138  0        M    -0.1  100   -0.1  0     0     969.3    NA       0.0000   -SN      BR    2900  0    
2019/11/16  06:05:00  BASE  0        140  0        M    -0.1  100   -0.1  0     0     969.3    NA       0.0000   -SN      BR    2700  0    
2019/11/16  06:06:00  BASE  0        141  0        M    -0.1  100   -0.1  0     0     969.3    NA       0.0000   -SN      BR    2500  0    
2019/11/16  06:07:00  BASE  0        138  0        M    -0.1  100   -0.1  0     0     969.3    NA       0.2540   -SN      BR    2700  0    
2019/11/16  06:08:00  BASE  0        138  0        M    -0.1  100   -0.1  0     0     969.3    NA       0.0000   -SN      BR    2500  0    
2019/11/16  06:09:00  BASE  0        137  0        M    -0.1  100   -0.1  0     0     969.3    NA       0.0000   -SN      BR    2600  0    
2019/11/16  06:10:00  BASE  0        140  0        M    -0.1  100   -0.1  0     0     969.3    NA       0.0000   -SN      BR    2500  0    
2019/11/16  06:11:00  BASE  0        142  0        M    -0.1  100   -0.1  0     0     969.3    NA       0.0000   -SN      BR    2600  0    
2019/11/16  06:12:00  BASE  0        136  0        M    -0.1  100   -0.1  0     0     969.3    NA       0.0000   -SN      BR    2600  0    
2019/11/16  06:13:00  BASE  0        128  0        M    -0.1  100   -0.1  0     0     969.3    NA       0.0000   -SN      BR    2600  0    
2019/11/16  06:14:00  BASE  0        127  0        M    -0.1  100   -0.1  0     0     969.3    NA       0.0000   -SN      BR    2600  0    
2019/11/16  06:15:00  BASE  0        127  0        M    -0.1  100   -0.1  0     0     969.3    NA       0.0000   -SN      BR    2600  0    
2019/11/16  06:16:00  BASE  0        127  0        M    -0.1  100   -0.1  0     0     969.3    NA       0.0000   -SN      BR    2700  0    
2019/11/16  06:17:00  BASE  0        127  0        M    -0.1  100   -0.1  0     0     969.3    NA       0.0000   -SN      BR    2800  0    
2019/11/16  06:18:00  BASE  0        126  0        M    -0.1  100   -0.1  0     0     969.3    NA       0.0000   -SN      BR    2800  0    
2019/11/16  06:19:00  BASE  0        129  0        M    -0.1  100   -0.1  0     0     969.3    NA       0.0000   -SN      BR    3100  0    
2019/11/16  06:20:00  BASE  0        130  0        M    -0.0  100   -0.0  0     0     969.3    NA       0.0000   -SN      BR    3200  0    
2019/11/16  06:21:00  BASE  0        133  0        M    0.0   100   0.0   0     0     969.3    NA       0.0000   -SN      BR    3100  0    
2019/11/16  06:22:00  BASE  0        136  0        M    0.0   100   0.0   0     0     969.3    NA       0.0000   -SN      BR    3200  0    
2019/11/16  06:23:00  BASE  0        135  0        M    0.1   100   0.1   0     0     969.3    NA       0.0000   -SN      BR    3100  0    
2019/11/16  06:24:00  BASE  0        132  0        M    0.1   100   0.1   0     0     969.3    NA       0.0000   -SN      BR    3200  0    
2019/11/16  06:25:00  BASE  0        126  0        M    0.1   100   0.1   0     0     969.3    NA       0.0000   -SN      BR    3200  0    
2019/11/16  06:26:00  BASE  0        126  0        M    0.1   100   0.1   0     0     969.3    NA       0.0000   -SN      BR    3100  0    
2019/11/16  06:27:00  BASE  0        122  0        M    0.1   100   0.1   0     0     969.3    NA       0.0000   -SN      BR    2800  0    
2019/11/16  06:28:00  BASE  0        118  0        M    0.0   100   0.0   0     0     969.3    NA       0.0000   -SN      BR    3000  200  
2019/11/16  06:29:00  BASE  0        121  0        M    -0.0  100   -0.0  0     0     969.3    NA       0.0000   -SN      BR    3600  230  
2019/11/16  06:30:00  BASE  0        119  0        M    0.0   100   0.0   0     0     969.3    NA       0.0000   -SN      BR    3500  230  
2019/11/16  06:31:00  BASE  0        116  0        M    0.0   100   0.0   0     0     969.3    NA       0.0000   -SN      BR    3600  300  
2019/11/16  06:32:00  BASE  0        118  0        M    0.0   100   0.0   0     0     969.3    NA       0.0000   -SN      BR    3400  260  
2019/11/16  06:33:00  BASE  0        118  0        M    0.1   100   0.1   0     0     969.3    NA       0.0000   -SN      BR    3400  300  
2019/11/16  06:34:00  BASE  0        117  0        M    0.1   100   0.1   0     0     969.3    NA       0.0000   -SN      BR    3600  300  
2019/11/16  06:35:00  BASE  0        117  0        M    0.0   100   0.0   0     0     969.3    NA       0.0000   -SN      BR    3500  300  
2019/11/16  06:36:00  BASE  0        118  0        M    0.0   100   0.0   0     0     969.3    NA       0.0000   -SN      BR    3200  260  
2019/11/16  06:37:00  BASE  0        119  0        M    -0.0  100   -0.0  0     0     969.2    NA       0.0000   -SN      BR    2900  260  
2019/11/16  06:38:00  BASE  0        120  0        M    -0.0  100   -0.0  0     0     969.3    NA       0.0000   -SN      BR    2800  300  
2019/11/16  06:39:00  BASE  0        118  0        M    -0.0  100   -0.0  0     0     969.3    NA       0.0000   -SN      BR    3100  300  
2019/11/16  06:40:00  BASE  0        120  0        M    -0.0  100   -0.0  0     0     969.3    NA       0.0000   -SN      BR    3000  300  
2019/11/16  06:41:00  BASE  0        120  0        M    -0.0  100   -0.0  0     0     969.3    NA       0.0000   -SN      BR    3100  260  
2019/11/16  06:42:00  BASE  0        117  0        M    -0.0  100   -0.0  0     0     969.3    NA       0.0000   -SN      BR    3300  230  
2019/11/16  06:43:00  BASE  0        118  0        M    -0.0  100   -0.0  0     0     969.3    NA       0.0000   -SN      BR    2600  230  
2019/11/16  06:44:00  BASE  0        121  0        M    -0.0  100   -0.0  0     0     969.3    NA       0.0000   -SN      BR    2100  200  
2019/11/16  06:45:00  BASE  0        125  0        M    -0.0  100   -0.0  0     0     969.3    NA       0.0000   -SN      BR    1900  200  
2019/11/16  06:46:00  BASE  0        125  0        M    -0.0  100   -0.0  0     0     969.2    NA       0.0000   -SN      BR    1800  230  
2019/11/16  06:47:00  BASE  0        123  0        M    -0.0  100   -0.0  0     0     969.2    NA       0.0000   -SN      BR    1900  230  
2019/11/16  06:48:00  BASE  0        123  0        M    -0.1  100   -0.1  0     0     969.2    NA       0.0000   -SN      BR    1300  230  
2019/11/16  06:49:00  BASE  0        123  0        M    -0.1  100   -0.1  0     0     969.2    NA       0.0000   -SN      BR    0700  200  
2019/11/16  06:50:00  BASE  0        124  0        M    -0.1  100   -0.1  0     0     969.2    NA       0.0000   -SN      BR    0900  230  
2019/11/16  06:51:00  BASE  0        124  0        M    -0.1  100   -0.1  0     0     969.2    NA       0.0000   -SN      BR    0600  230  
2019/11/16  06:52:00  BASE  0        124  0        M    -0.1  100   -0.1  0     0     969.2    NA       0.0000   -SN      BR    0800  300  
2019/11/16  06:53:00  BASE  0        125  0        M    -0.1  100   -0.1  0     0     969.2    NA       0.0000   -SN      BR    1200  300  
2019/11/16  06:54:00  BASE  0        122  0        M    -0.1  100   -0.1  0     0     969.2    NA       0.0000   -SN      BR    1700  330  
2019/11/16  06:55:00  BASE  0        120  0        M    -0.1  100   -0.1  0     0     969.2    NA       0.0000   -SN      BR    2200  330  
2019/11/16  06:56:00  BASE  0        119  0        M    -0.1  100   -0.1  0     0     969.2    NA       0.0000   -SN      BR    2000  360  
2019/11/16  06:57:00  BASE  0        119  0        M    -0.1  100   -0.1  0     0     969.2    NA       0.0000   -SN      BR    2100  360  
2019/11/16  06:58:00  BASE  0        117  0        M    -0.1  100   -0.1  0     0     969.2    NA       0.0000   -SN      BR    2000  360  
2019/11/16  06:59:00  BASE  0        120  0        M    -0.0  100   -0.0  1     0     969.2    NA       0.0000   -SN      BR    2200  390  
2019/11/16  07:00:00  BASE  0        122  0        M    -0.0  100   -0.0  0     0     969.2    NA       0.2540   -SN      BR    2700  390  
2019/11/16  07:01:00  BASE  0        122  0        M    -0.0  100   -0.0  1     0     969.2    NA       0.0000   -SN      BR    3000  390  
2019/11/16  07:02:00  BASE  0        119  0        M    -0.0  100   -0.0  1     0     969.2    NA       0.0000   -SN      BR    2700  1640 
2019/11/16  07:03:00  BASE  0        117  0        M    -0.0  100   -0.0  1     0     969.2    NA       0.0000   -SN      BR    3400  1510 
2019/11/16  07:04:00  BASE  0        122  0        M    -0.0  100   -0.0  1     0     969.2    NA       0.0000   -SN      BR    3400  1350 
2019/11/16  07:05:00  BASE  0        125  0        M    -0.0  100   -0.0  1     0     969.2    NA       0.0000   -SN      BR    4500  1250 
2019/11/16  07:06:00  BASE  0        121  0        M    -0.1  100   -0.1  1     0     969.2    NA       0.0000   -SN      BR    6000  1310 
2019/11/16  07:07:00  BASE  0        121  0        M    -0.1  100   -0.1  1     0     969.2    NA       0.0000   -SN      BR    4800  1870 
2019/11/16  07:08:00  BASE  0        121  0        M    -0.1  100   -0.1  1     0     969.2    NA       0.0000   -SN      BR    4300  1840 
2019/11/16  07:09:00  BASE  0        120  0        M    -0.1  100   -0.1  1     0     969.2    NA       0.0000   -SN      BR    4700  1870 
2019/11/16  07:10:00  BASE  0        122  0        M    -0.1  100   -0.1  1     0     969.2    NA       0.0000   -SN      BR    6000  1870 
2019/11/16  07:11:00  BASE  0        123  0        M    -0.1  100   -0.1  1     0     969.2    NA       0.0000   -SN      BR    6000  1770 
2019/11/16  07:12:00  BASE  0        124  0        M    -0.0  100   -0.0  1     0     969.2    NA       0.0000   -SN      BR    4000  1710 
2019/11/16  07:13:00  BASE  0        127  0        M    -0.0  100   -0.0  1     0     969.2    NA       0.0000   -SN      BR    7000  1770 
2019/11/16  07:14:00  BASE  0        128  0        M    -0.0  100   -0.0  1     0     969.2    NA       0.0000   -SN      BR    5000  1770 
2019/11/16  07:15:00  BASE  0        126  0        M    -0.0  100   -0.0  1     0     969.2    NA       0.0000   -SN      BR    4700  1740 
2019/11/16  07:16:00  BASE  0        128  0        M    -0.0  100   -0.0  1     0     969.2    NA       0.0000   -SN      BR    3800  1770 
2019/11/16  07:17:00  BASE  0        128  0        M    -0.0  100   -0.0  1     0     969.2    NA       0.0000   -SN      BR    3500  1800 
2019/11/16  07:18:00  BASE  0        125  0        M    -0.0  100   -0.0  1     0     969.2    NA       0.0000   -SN      BR    2600  1800 
2019/11/16  07:19:00  BASE  0        129  0        M    -0.0  100   -0.0  1     0     969.2    NA       0.0000   -SN      BR    3000  390  
2019/11/16  07:20:00  BASE  0        129  0        M    -0.0  100   -0.0  1     0     969.2    NA       0.0000   -SN      BR    3200  1870 
2019/11/16  07:21:00  BASE  0        127  0        M    -0.0  100   -0.0  1     0     969.2    NA       0.0000   -SN      BR    2400  390  
2019/11/16  07:22:00  BASE  0        129  0        M    -0.0  100   -0.0  1     0     969.2    NA       0.0000   -SN      BR    2200  1350 
2019/11/16  07:23:00  BASE  0        137  0        M    -0.0  100   -0.0  1     0     969.2    NA       0.0000   -SN      BR    3200  1280 
2019/11/16  07:24:00  BASE  0        137  0        M    -0.0  100   -0.0  1     0     969.2    NA       0.0000   -SN      BR    2600  1250 
2019/11/16  07:25:00  BASE  0        128  0        M    -0.0  100   -0.0  1     0     969.2    NA       0.0000   -SN      BR    2800  430  
2019/11/16  07:26:00  BASE  0        126  0        M    -0.0  100   -0.0  1     0     969.2    NA       0.0000   -SN      BR    3100  430  
2019/11/16  07:27:00  BASE  0        135  0        M    -0.0  100   -0.0  1     0     969.2    NA       0.0000   -SN      BR    3100  390  
2019/11/16  07:28:00  BASE  0        149  0        M    -0.1  100   -0.1  1     0     969.3    NA       0.0000   -SN      BR    3700  390  
2019/11/16  07:29:00  BASE  0        159  0        M    -0.1  100   -0.1  1     0     969.3    NA       0.0000   -SN      BR    2400  1210 
2019/11/16  07:30:00  BASE  0        152  0        M    -0.1  100   -0.1  1     0     969.3    NA       0.0000   -SN      BR    2900  1210 
2019/11/16  07:31:00  BASE  0        143  0        M    -0.1  100   -0.1  1     0     969.3    NA       0.0000   -SN      BR    2500  1570 
2019/11/16  07:32:00  BASE  0        145  0        M    -0.1  100   -0.1  1     0     969.3    NA       0.2540   -SN      BR    3700  690  
2019/11/16  07:33:00  BASE  0        140  0        M    -0.1  100   -0.1  1     0     969.3    NA       0.0000   -SN      BR    2300  1510 
2019/11/16  07:34:00  BASE  0        127  0        M    -0.1  100   -0.1  2     0     969.2    NA       0.0000   -SN      BR    4400  1510 
2019/11/16  07:35:00  BASE  0        124  0        M    -0.0  100   -0.0  2     0     969.2    NA       0.0000   -SN      BR    4100  1510 
2019/11/16  07:36:00  BASE  0        128  0        M    -0.0  100   -0.0  2     0     969.3    NA       0.0000   -SN      BR    3200  430  
2019/11/16  07:37:00  BASE  0        132  0        M    0.0   100   0.0   2     0     969.3    NA       0.0000   -SN      BR    3200  1510 
2019/11/16  07:38:00  BASE  0        134  0        M    0.0   100   0.0   2     0     969.3    NA       0.0000   -SN      BR    2500  430  
2019/11/16  07:39:00  BASE  0        143  0        M    -0.0  100   -0.0  3     0     969.3    NA       0.0000   -SN      BR    3000  430  
2019/11/16  07:40:00  BASE  0        151  0        M    -0.1  100   -0.1  3     0     969.3    NA       0.0000   -SN      BR    4100  1440 
2019/11/16  07:41:00  BASE  0        141  0        M    -0.1  100   -0.1  3     0     969.3    NA       0.0000   -SN      BR    3300  1410 
2019/11/16  07:42:00  BASE  0        125  0        M    -0.1  100   -0.1  3     0     969.3    NA       0.0000   -SN      BR    4500  1380 
2019/11/16  07:43:00  BASE  0        120  0        M    -0.0  100   -0.0  3     0     969.3    NA       0.0000   -SN      BR    4500  1410 
2019/11/16  07:44:00  BASE  0        121  0        M    0.0   100   0.0   3     0     969.3    NA       0.0000   -SN      BR    6000  1350 
2019/11/16  07:45:00  BASE  0        123  0        M    0.1   100   0.1   3     0     969.3    NA       0.0000   -SN      BR    6000  1350 
2019/11/16  07:46:00  BASE  0        122  0        M    0.2   100   0.2   3     0     969.3    NA       0.0000   -SN      BR    6000  1380 
2019/11/16  07:47:00  BASE  0        114  0        M    0.2   100   0.2   4     0     969.3    NA       0.0000   -SN      BR    5000  1020 
2019/11/16  07:48:00  BASE  0        114  0        M    0.2   100   0.2   4     0     969.3    NA       0.0000   -SN      BR    3700  920  
2019/11/16  07:49:00  BASE  0        117  0        M    0.2   100   0.2   4     0     969.3    NA       0.0000   -SN      BR    3000  620  
2019/11/16  07:50:00  BASE  0        114  0        M    0.3   100   0.3   4     0     969.4    NA       0.0000   -SN      BR    3100  390  
2019/11/16  07:51:00  BASE  0        110  0        M    0.4   100   0.4   4     0     969.5    NA       0.0000   -SN      BR    2400  330  
2019/11/16  07:52:00  BASE  0        100  0        M    0.4   100   0.4   4     0     969.5    NA       0.0000   -SN      BR    2200  330  
2019/11/16  07:53:00  BASE  0        100  0        M    0.5   100   0.5   4     0     969.5    NA       0.0000   -SN      BR    2200  330  
2019/11/16  07:54:00  BASE  0        107  0        M    0.5   100   0.5   4     0     969.5    NA       0.0000   -SN      BR    1900  360  
2019/11/16  07:55:00  BASE  0        125  0        M    0.5   100   0.5   4     0     969.5    NA       0.0000   -SN      BR    2000  360  
2019/11/16  07:56:00  BASE  0        142  0        M    0.5   100   0.5   5     0     969.5    NA       0.0000   -SN      BR    2300  300  
2019/11/16  07:57:00  BASE  0        133  0        M    0.5   100   0.5   5     0     969.5    NA       0.0000   -SN      BR    1900  300  
2019/11/16  07:58:00  BASE  0        125  0        M    0.5   100   0.5   5     0     969.5    NA       0.0000   -SN      BR    1800  330  
2019/11/16  07:59:00  BASE  0        149  0        M    0.5   100   0.5   5     0     969.5    NA       0.0000   -SN      BR    2000  300  
2019/11/16  08:00:00  BASE  0        237  0        M    0.5   100   0.5   5     0     969.6    NA       0.0000   -SN      BR    2000  300  
2019/11/16  08:01:00  BASE  0        252  0        M    0.4   100   0.4   5     0     969.6    NA       0.0000   -SN      BR    1600  300  
2019/11/16  08:02:00  BASE  0        234  0        M    0.4   100   0.4   5     0     969.6    NA       0.0000   -SN      BR    1600  300  
2019/11/16  08:03:00  BASE  0        248  0        M    0.3   100   0.3   5     0     969.6    NA       0.0000   -SN      BR    1500  300  
2019/11/16  08:04:00  BASE  0        238  0        M    0.2   100   0.2   5     0     969.6    NA       0.0000   -SN      BR    2000  0    
2019/11/16  08:05:00  BASE  0        233  0        M    0.1   100   0.1   6     0     969.6    NA       0.0000   -SN      BR    1600  300  
2019/11/16  08:06:00  BASE  0        239  0        M    0.1   100   0.1   6     0     969.6    NA       0.0000   -SN      BR    1600  300  
2019/11/16  08:07:00  BASE  0        241  0        M    0.1   100   0.1   6     0     969.6    NA       0.2540   -SN      BR    1900  300  
2019/11/16  08:08:00  BASE  0        242  0        M    0.1   100   0.1   6     0     969.6    NA       0.0000   -SN      BR    2200  300  
2019/11/16  08:09:00  BASE  0        249  0        M    0.1   100   0.1   6     0     969.6    NA       0.0000   -SN      BR    1900  300  
2019/11/16  08:10:00  BASE  0        257  0        M    0.1   100   0.1   6     0     969.7    NA       0.0000   -SN      BR    1600  300  
2019/11/16  08:11:00  BASE  0        260  0        M    0.1   100   0.1   6     0     969.7    NA       0.0000   -SN      BR    2300  300  
2019/11/16  08:12:00  BASE  0        263  0        M    0.0   100   0.0   6     0     969.7    NA       0.0000   -SN      BR    2300  260  
2019/11/16  08:13:00  BASE  0        276  0        M    -0.0  100   -0.0  6     0     969.7    NA       0.0000   -SN      BR    2200  260  
2019/11/16  08:14:00  BASE  0        298  0        M    -0.1  100   -0.1  6     0     969.7    NA       0.0000   -SN      BR    2000  260  
2019/11/16  08:15:00  BASE  0        312  0        M    -0.1  100   -0.1  6     0     969.7    NA       0.0000   -SN      BR    1900  230  
2019/11/16  08:16:00  BASE  0        321  0        M    -0.1  100   -0.1  6     0     969.7    NA       0.0000   -SN      BR    2200  230  
2019/11/16  08:17:00  BASE  0        324  0        M    -0.0  100   -0.0  7     0     969.7    NA       0.0000   -SN      BR    3200  230  
2019/11/16  08:18:00  BASE  0        324  0        M    0.0   100   0.0   7     0     969.7    NA       0.0000   -SN      BR    3600  260  
2019/11/16  08:19:00  BASE  0        324  0        M    0.1   100   0.1   7     0     969.7    NA       0.0000   -SN      BR    2100  200  
2019/11/16  08:20:00  BASE  0        324  0        M    0.2   100   0.2   7     0     969.7    NA       0.0000   -SN      BR    2600  260  
2019/11/16  08:21:00  BASE  0        324  0        M    0.2   100   0.2   7     0     969.7    NA       0.0000   -SN      BR    3200  230  
2019/11/16  08:22:00  BASE  0        324  0        M    0.3   100   0.3   8     0     969.7    NA       0.0000   -SN      BR    5000  230  
2019/11/16  08:23:00  BASE  0        324  0        M    0.3   100   0.3   8     0     969.7    NA       0.0000   -SN      BR    3300  260  
2019/11/16  08:24:00  BASE  0        324  0        M    0.3   100   0.3   8     0     969.7    NA       0.0000   -SN      BR    3400  260  
2019/11/16  08:25:00  BASE  0        324  0        M    0.4   100   0.4   8     0     969.7    NA       0.0000   -SN      BR    6000  300  
2019/11/16  08:26:00  BASE  0        324  0        M    0.3   100   0.3   8     0     969.7    NA       0.0000   -SN      BR    7000  300  
2019/11/16  08:27:00  BASE  0        324  0        M    0.3   100   0.3   8     0     969.7    NA       0.0000   -SN      BR    9999  300  
2019/11/16  08:28:00  BASE  0        324  0        M    0.3   100   0.3   8     0     969.7    NA       0.0000   -SN      BR    9999  300  
2019/11/16  08:29:00  BASE  0        335  0        M    0.2   100   0.2   7     0     969.7    NA       0.0000   -SN      BR    8000  300  
2019/11/16  08:30:00  BASE  0        4    0        M    0.2   100   0.2   7     0     969.8    NA       0.0000   -SN      BR    9999  300  
2019/11/16  08:31:00  BASE  0        14   0        M    0.2   100   0.2   7     0     969.8    NA       0.0000   -SN      BR    9999  300  
2019/11/16  08:32:00  BASE  0        12   0        M    0.2   100   0.2   7     0     969.8    NA       0.0000   -SN      BR    7000  300  
2019/11/16  08:33:00  BASE  0        15   0        M    0.2   100   0.2   7     0     969.8    NA       0.0000   -SN      BR    7000  300  
2019/11/16  08:34:00  BASE  0        18   0        M    0.3   100   0.3   7     0     969.8    NA       0.0000   -SN      BR    8000  300  
2019/11/16  08:35:00  BASE  0        24   0        M    0.3   100   0.3   7     0     969.8    NA       0.0000   -SN      BR    8000  300  
2019/11/16  08:36:00  BASE  0        31   0        M    0.3   100   0.3   7     0     969.8    NA       0.0000   -SN      BR    9000  300  
2019/11/16  08:37:00  BASE  0        35   0        M    0.3   100   0.3   7     0     969.8    NA       0.0000   -SN      BR    6000  300  
2019/11/16  08:38:00  BASE  0        42   0        M    0.3   100   0.3   7     0     969.8    NA       0.0000   -SN      BR    8000  300  
2019/11/16  08:39:00  BASE  0        46   0        M    0.3   100   0.3   8     0     969.8    NA       0.0000   -SN      BR    9999  300  
2019/11/16  08:40:00  BASE  0        44   0        M    0.2   100   0.2   8     0     969.8    NA       0.0000   -SN      BR    9999  300  
2019/11/16  08:41:00  BASE  0        27   0        M    0.2   100   0.2   7     0     969.8    NA       0.0000   -SN      BR    9999  300  
2019/11/16  08:42:00  BASE  0        8    0        M    0.2   100   0.2   7     0     969.8    NA       0.0000   -SN      BR    9999  330  
2019/11/16  08:43:00  BASE  0        360  0        M    0.2   100   0.2   7     0     969.8    NA       0.0000   -SN      BR    9999  330  
2019/11/16  08:44:00  BASE  0        358  0        M    0.2   100   0.2   7     0     969.8    NA       0.0000   -SN      9999  330   0    
2019/11/16  08:45:00  BASE  0        350  0        M    0.2   100   0.2   7     0     969.9    NA       0.2540   -SN      9999  330   0    
2019/11/16  08:46:00  BASE  0        335  0        M    0.2   100   0.2   7     0     969.9    NA       0.0000   -SN      9999  330   0    
2019/11/16  08:47:00  BASE  0        323  0        M    0.1   100   0.1   7     0     969.9    NA       0.0000   -SN      9999  330   0    
2019/11/16  08:48:00  BASE  0        313  0        M    0.1   100   0.1   7     0     969.9    NA       0.0000   -SN      9999  0     0    
2019/11/16  08:49:00  BASE  0        301  0        M    0.0   100   0.0   7     0     969.9    NA       0.0000   -SN      9999  330   0    
2019/11/16  08:50:00  BASE  0        291  0        M    -0.1  100   -0.1  7     0     970.0    NA       0.0000   9999     0     0     0    
2019/11/16  08:51:00  BASE  0        285  0        M    -0.2  100   -0.2  7     0     970.1    NA       0.0000   9999     0     0     0    
2019/11/16  08:52:00  BASE  0        277  0        M    -0.3  100   -0.3  7     0     970.1    NA       0.0000   9999     0     0     0    
2019/11/16  08:53:00  BASE  0        269  0        M    -0.4  100   -0.4  7     0     970.1    NA       0.0000   9999     0     0     0    
2019/11/16  08:54:00  BASE  0        262  0        M    -0.5  100   -0.5  7     0     970.1    NA       0.0000   9999     0     0     0    
2019/11/16  08:55:00  BASE  0        260  0        M    -0.6  100   -0.6  7     0     970.1    NA       0.0000   9999     0     0     0    
2019/11/16  08:56:00  BASE  0        254  0        M    -0.6  100   -0.6  7     0     970.1    NA       0.0000   9999     0     0     0    
2019/11/16  08:57:00  BASE  0        248  0        M    -0.7  100   -0.7  8     0     970.0    NA       0.0000   9999     0     0     0    
2019/11/16  08:58:00  BASE  0        248  0        M    -0.7  100   -0.7  8     0     969.9    NA       0.0000   9999     0     0     0    
2019/11/16  08:59:00  BASE  0        243  0        M    -0.7  100   -0.7  9     0     969.9    NA       0.0000   9999     0     0     0    
2019/11/16  09:00:00  BASE  0        231  0        M    -0.7  100   -0.7  10    0     969.9    NA       0.0000   9999     0     0     0    
2019/11/16  09:01:00  BASE  0        218  0        M    -0.7  100   -0.7  10    0     969.9    NA       0.0000   9999     0     0     0    
2019/11/16  09:02:00  BASE  0        210  0        M    -0.7  100   -0.7  11    0     969.9    NA       0.0000   9999     0     0     0    
2019/11/16  09:03:00  BASE  0        206  0        M    -0.7  100   -0.7  12    0     969.9    NA       0.0000   9999     0     0     0    
2019/11/16  09:04:00  BASE  0        202  0        M    -0.7  100   -0.7  12    0     969.9    NA       0.0000   9999     0     0     0    
2019/11/16  09:05:00  BASE  0        200  0        M    -0.7  100   -0.7  12    0     969.9    NA       0.0000   9999     0     0     0    
2019/11/16  09:06:00  BASE  0        200  0        M    -0.7  100   -0.7  12    0     969.9    NA       0.0000   9999     0     0     0    
2019/11/16  09:07:00  BASE  0        198  0        M    -0.7  100   -0.7  12    0     970.0    NA       0.0000   9999     0     0     0    
2019/11/16  09:08:00  BASE  0        193  0        M    -0.7  100   -0.7  12    0     970.1    NA       0.0000   9999     0     0     0    
2019/11/16  09:09:00  BASE  0        187  0        M    -0.7  100   -0.7  12    0     970.1    NA       0.0000   9999     0     0     0    
2019/11/16  09:10:00  BASE  0        189  0        M    -0.7  100   -0.7  12    0     970.1    NA       0.0000   9999     0     0     0    
2019/11/16  09:11:00  BASE  0        198  0        M    -0.7  100   -0.7  12    0     970.1    NA       0.0000   9999     0     0     0    
2019/11/16  09:12:00  BASE  0        206  0        M    -0.7  100   -0.7  12    0     970.1    NA       0.0000   9999     0     0     0    
2019/11/16  09:13:00  BASE  0        210  0        M    -0.7  100   -0.7  11    0     970.1    NA       0.0000   9999     0     0     0    
2019/11/16  09:14:00  BASE  0        213  0        M    -0.7  100   -0.7  11    0     970.1    NA       0.0000   9999     0     0     0    
2019/11/16  09:15:00  BASE  0        216  0        M    -0.7  100   -0.7  11    0     970.1    NA       0.0000   9999     0     0     0    
2019/11/16  09:16:00  BASE  0        214  0        M    -0.7  100   -0.7  10    0     970.2    NA       0.0000   9999     0     0     0    
2019/11/16  09:17:00  BASE  0        208  0        M    -0.7  100   -0.7  10    0     970.1    NA       0.0000   9999     0     0     0    
2019/11/16  09:18:00  BASE  0        205  0        M    -0.7  100   -0.7  10    0     970.1    NA       0.0000   9999     0     0     0    
2019/11/16  09:19:00  BASE  0        197  0        M    -0.7  100   -0.7  10    0     970.1    NA       0.0000   9999     0     0     0    
2019/11/16  09:20:00  BASE  0        190  0        M    -0.7  100   -0.7  10    0     970.1    NA       0.0000   9999     0     0     0    
2019/11/16  09:21:00  BASE  0        186  0        M    -0.7  100   -0.7  10    0     970.1    NA       0.0000   9999     0     0     0    
2019/11/16  09:22:00  BASE  0        184  0        M    -0.7  100   -0.7  10    0     970.1    NA       0.0000   9999     0     0     0    
2019/11/16  09:23:00  BASE  0        183  0        M    -0.7  100   -0.7  10    0     970.2    NA       0.0000   9999     0     0     0    
2019/11/16  09:24:00  BASE  0        184  0        M    -0.7  100   -0.7  10    0     970.2    NA       0.0000   9999     0     0     0    
2019/11/16  09:25:00  BASE  0        187  0        M    -0.7  100   -0.7  11    0     970.2    NA       0.0000   9999     0     0     0    
2019/11/16  09:26:00  BASE  0        191  0        M    -0.7  100   -0.7  11    0     970.2    NA       0.0000   9000     0     0     0    
2019/11/16  09:27:00  BASE  0        194  0        M    -0.7  100   -0.7  11    0     970.2    NA       0.0000   9000     0     0     0    
2019/11/16  09:28:00  BASE  0        198  0        M    -0.6  100   -0.6  12    0     970.2    NA       0.0000   9000     0     0     0    
2019/11/16  09:29:00  BASE  0        202  0        M    -0.6  100   -0.6  12    0     970.2    NA       0.0000   8000     0     0     0    
2019/11/16  09:30:00  BASE  0        206  0        M    -0.6  100   -0.6  12    0     970.2    NA       0.0000   8000     0     0     0    
2019/11/16  09:31:00  BASE  0        210  0        M    -0.6  100   -0.6  12    0     970.2    NA       0.0000   BR       8000  0     0    
2019/11/16  09:32:00  BASE  0        211  0        M    -0.6  100   -0.6  13    0     970.3    NA       0.0000   BR       8000  0     0    
2019/11/16  09:33:00  BASE  0        213  0        M    -0.6  100   -0.6  13    0     970.3    NA       0.0000   BR       7000  0     0    
2019/11/16  09:34:00  BASE  0        215  0        M    -0.6  100   -0.6  13    0     970.3    NA       0.0000   UP       BR    5000  0    
2019/11/16  09:35:00  BASE  0        216  0        M    -0.6  100   -0.6  13    0     970.3    NA       0.0000   UP       BR    2300  0    
2019/11/16  09:36:00  BASE  0        217  0        M    -0.6  100   -0.6  13    0     970.3    NA       0.0000   UP       BR    1900  0    
2019/11/16  09:37:00  BASE  0        217  0        M    -0.7  100   -0.7  14    0     970.3    NA       0.0000   UP       BR    1800  0    
2019/11/16  09:38:00  BASE  0        218  0        M    -0.7  100   -0.7  14    0     970.3    NA       0.0000   UP       BR    1700  0    
2019/11/16  09:39:00  BASE  0        224  0        M    -0.7  100   -0.7  14    0     970.3    NA       0.0000   UP       BR    1500  0    
2019/11/16  09:40:01  BASE  0        239  0        M    -0.7  100   -0.7  14    0     970.3    NA       0.0000   UP       BR    1500  0    
2019/11/16  09:41:00  BASE  0        247  0        M    -0.7  100   -0.7  15    0     970.3    NA       0.0000   UP       BR    1900  0    
2019/11/16  09:42:00  BASE  0        250  0        M    -0.7  100   -0.7  15    0     970.3    NA       0.0000   UP       BR    1700  0    
2019/11/16  09:43:00  BASE  0        253  0        M    -0.7  100   -0.7  15    0     970.3    NA       0.0000   UP       BR    2400  0    
2019/11/16  09:44:00  BASE  0        256  0        M    -0.7  100   -0.7  16    0     970.3    NA       0.0000   UP       BR    3400  0    
2019/11/16  09:45:00  BASE  0        256  0        M    -0.7  100   -0.7  16    0     970.3    NA       0.0000   UP       BR    3000  23070
2019/11/16  09:46:00  BASE  0        255  0        M    -0.6  100   -0.6  16    0     970.4    NA       0.0000   -SN      BR    2600  0    
2019/11/16  09:47:00  BASE  0        254  0        M    -0.6  100   -0.6  17    0     970.4    NA       0.0000   -SN      BR    2400  0    
2019/11/16  09:48:00  BASE  0        254  0        M    -0.6  100   -0.6  17    0     970.4    NA       0.0000   -SN      BR    2500  0    
2019/11/16  09:49:00  BASE  0        259  0        M    -0.7  100   -0.7  17    0     970.4    NA       0.0000   -SN      BR    3000  0    
2019/11/16  09:50:00  BASE  0        264  0        M    -0.7  100   -0.7  18    0     970.4    NA       0.0000   -SN      BR    3000  0    
2019/11/16  09:51:00  BASE  0        266  0        M    -0.7  100   -0.7  18    0     970.4    NA       0.0000   -SN      BR    3000  0    
2019/11/16  09:52:00  BASE  0        270  0        M    -0.8  100   -0.8  18    0     970.4    NA       0.0000   -SN      BR    3400  0    
2019/11/16  09:53:00  BASE  0        274  0        M    -0.8  100   -0.8  19    0     970.4    NA       0.2540   -SN      BR    2800  0    
2019/11/16  09:54:00  BASE  0        274  0        M    -0.8  100   -0.8  19    0     970.4    NA       0.0000   -SN      BR    2500  0    
2019/11/16  09:55:00  BASE  0        272  0        M    -0.8  100   -0.8  19    0     970.4    NA       0.0000   -SN      BR    2300  0    
2019/11/16  09:56:00  BASE  0        272  0        M    -0.8  100   -0.8  19    0     970.4    NA       0.0000   -SN      BR    2300  0    
2019/11/16  09:57:00  BASE  0        273  0        M    -0.8  100   -0.8  19    0     970.4    NA       0.0000   -SN      BR    2200  0    
2019/11/16  09:58:00  BASE  0        268  0        M    -0.8  100   -0.8  18    0     970.4    NA       0.0000   -SN      BR    1900  0    
2019/11/16  09:59:00  BASE  0        263  0        M    -0.8  100   -0.8  18    0     970.4    NA       0.0000   -SN      BR    2200  0    
2019/11/16  10:00:00  BASE  0        261  0        M    -0.8  100   -0.8  17    0     970.4    NA       0.0000   -SN      BR    2700  0    
2019/11/16  10:01:00  BASE  0        264  0        M    -0.8  100   -0.8  17    0     970.4    NA       0.0000   -SN      BR    3800  0    
2019/11/16  10:02:00  BASE  0        261  0        M    -0.8  100   -0.8  17    0     970.5    NA       0.0000   -SN      BR    5000  0    
2019/11/16  10:03:00  BASE  0        257  0        M    -0.8  100   -0.8  16    0     970.6    NA       0.0000   -SN      BR    5000  0    
2019/11/16  10:04:00  BASE  0        259  0        M    -0.9  100   -0.9  16    0     970.6    NA       0.0000   -SN      BR    8000  0    
2019/11/16  10:05:00  BASE  0        263  0        M    -0.9  100   -0.9  16    0     970.6    NA       0.0000   -SN      BR    8000  0    
2019/11/16  10:06:00  BASE  0        265  0        M    -0.9  100   -0.9  16    0     970.6    NA       0.0000   -SN      BR    9999  0    
2019/11/16  10:07:00  BASE  0        264  0        M    -0.9  100   -0.9  17    0     970.6    NA       0.0000   -SN      BR    9999  0    
2019/11/16  10:08:00  BASE  0        264  0        M    -0.9  100   -0.9  17    0     970.6    NA       0.0000   -SN      BR    9999  0    
2019/11/16  10:09:00  BASE  0        273  0        M    -0.9  100   -0.9  18    0     970.6    NA       0.0000   -SN      BR    9999  0    
2019/11/16  10:10:00  BASE  0        278  0        M    -0.9  100   -0.9  19    0     970.6    NA       0.0000   -SN      BR    9999  0    
2019/11/16  10:11:00  BASE  0        277  0        M    -0.9  100   -0.9  19    0     970.6    NA       0.0000   -SN      BR    9999  0    
2019/11/16  10:12:00  BASE  0        280  0        M    -0.8  100   -0.8  20    0     970.6    NA       0.0000   -SN      BR    9999  0    
2019/11/16  10:13:00  BASE  0        282  0        M    -0.8  100   -0.8  20    0     970.5    NA       0.0000   -SN      9999  0     0    
2019/11/16  10:14:00  BASE  0        285  0        M    -0.8  100   -0.8  21    0     970.6    NA       0.0000   -SN      9999  0     0    
2019/11/16  10:15:00  BASE  0        288  0        M    -0.8  100   -0.8  21    0     970.6    NA       0.0000   -SN      9999  0     0    
2019/11/16  10:16:00  BASE  0        289  0        M    -0.8  100   -0.8  21    0     970.6    NA       0.0000   -SN      9999  0     0    
2019/11/16  10:17:00  BASE  0        292  0        M    -0.8  100   -0.8  21    0     970.6    NA       0.2540   -SN      9999  0     0    
2019/11/16  10:18:00  BASE  0        291  0        M    -0.8  100   -0.8  21    0     970.6    NA       0.0000   -SN      9999  0     0    
2019/11/16  10:19:00  BASE  0        291  0        M    -0.8  100   -0.8  22    0     970.6    NA       0.0000   -SN      9999  0     0    
2019/11/16  10:20:00  BASE  0        293  0        M    -0.8  100   -0.8  22    0     970.6    NA       0.0000   -SN      9999  0     0    
2019/11/16  10:21:00  BASE  0        295  0        M    -0.8  100   -0.8  22    0     970.6    NA       0.0000   -SN      9999  0     0    
2019/11/16  10:22:00  BASE  0        296  0        M    -0.8  100   -0.8  22    0     970.6    NA       0.0000   -SN      9999  0     0    
2019/11/16  10:23:00  BASE  0        299  0        M    -0.8  100   -0.8  22    0     970.6    NA       0.0000   -SN      9999  22510 0    
2019/11/16  10:24:00  BASE  0        299  0        M    -0.9  100   -0.9  22    0     970.6    NA       0.0000   -SN      9999  0     0    
2019/11/16  10:25:00  BASE  0        298  0        M    -0.9  100   -0.9  23    0     970.6    NA       0.0000   -SN      9999  0     0    
2019/11/16  10:26:00  BASE  0        299  0        M    -0.9  100   -0.9  23    0     970.6    NA       0.0000   -SN      9999  0     0    
2019/11/16  10:27:00  BASE  0        299  0        M    -0.9  100   -0.9  23    0     970.6    NA       0.0000   -SN      9999  0     0    
2019/11/16  10:28:00  BASE  0        299  0        M    -0.9  100   -0.9  23    0     970.6    NA       0.0000   -SN      9999  0     0    
2019/11/16  10:29:00  BASE  0        300  0        M    -0.9  100   -0.9  23    0     970.6    NA       0.0000   -SN      9999  0     0    
2019/11/16  10:30:00  BASE  0        300  0        M    -0.9  100   -0.9  23    0     970.6    NA       0.0000   -SN      9999  0     0    
2019/11/16  10:31:00  BASE  0        299  0        M    -0.9  100   -0.9  24    0     970.6    NA       0.0000   -SN      9999  0     0    
2019/11/16  10:32:00  BASE  0        299  0        M    -0.9  100   -0.9  24    0     970.6    NA       0.0000   -SN      9999  0     0    
2019/11/16  10:33:00  BASE  0        301  0        M    -0.9  100   -0.9  25    0     970.6    NA       0.0000   -SN      9999  0     0    
2019/11/16  10:34:00  BASE  0        305  0        M    -0.9  100   -0.9  25    0     970.6    NA       0.0000   -SN      9999  0     0    
2019/11/16  10:35:00  BASE  0        307  0        M    -0.9  100   -0.9  26    0     970.6    NA       0.0000   -SN      9999  0     0    
2019/11/16  10:36:00  BASE  0        307  0        M    -0.9  100   -0.9  27    0     970.7    NA       0.0000   -SN      9999  0     0    
2019/11/16  10:37:00  BASE  0        306  0        M    -0.9  100   -0.9  28    0     970.8    NA       0.0000   -SN      9999  0     0    
2019/11/16  10:38:00  BASE  0        307  0        M    -0.9  100   -0.9  29    0     970.8    NA       0.0000   9999     0     0     0    
2019/11/16  10:39:00  BASE  0        308  0        M    -0.9  100   -0.9  30    0     970.8    NA       0.0000   9999     0     0     0    
2019/11/16  10:40:00  BASE  0        306  0        M    -0.9  100   -0.9  31    0     970.8    NA       0.0000   9000     0     0     0    
2019/11/16  10:41:00  BASE  0        305  0        M    -0.9  100   -0.9  31    0     970.8    NA       0.0000   9000     0     0     0    
2019/11/16  10:42:00  BASE  0        305  0        M    -0.9  100   -0.9  31    0     970.9    NA       0.0000   BR       9000  0     0    
2019/11/16  10:43:00  BASE  0        305  0        M    -0.9  100   -0.9  31    0     970.9    NA       0.0000   BR       9000  0     0    
2019/11/16  10:44:00  BASE  0        304  0        M    -0.9  100   -0.9  32    0     970.9    NA       0.0000   BR       9000  0     0    
2019/11/16  10:45:00  BASE  0        305  0        M    -0.9  100   -0.9  32    0     970.9    NA       0.0000   BR       7000  0     0    
2019/11/16  10:46:00  BASE  0        305  0        M    -0.9  100   -0.9  32    0     970.9    NA       0.0000   -SN      BR    4000  0    
2019/11/16  10:47:00  BASE  0        305  0        M    -0.9  100   -0.9  33    0     970.9    NA       0.0000   -SN      BR    3400  0    
2019/11/16  10:48:00  BASE  0        305  0        M    -0.9  100   -0.9  33    0     970.9    NA       0.0000   -SN      BR    3800  0    
2019/11/16  10:49:00  BASE  0.75264  305  2.81064  306  -0.9  100   -0.9  33    0     970.9    NA       0.0000   -SN      BR    4200  0    
2019/11/16  10:50:00  BASE  1.8816   308  2.81064  306  -0.9  100   -0.9  34    0     970.9    NA       0.0000   -SN      BR    3800  0    
2019/11/16  10:51:00  BASE  2.34024  310  2.81064  306  -0.9  100   -0.9  34    0     970.9    NA       0.0000   -SN      BR    3100  0    
2019/11/16  10:52:00  BASE  2.3226   311  2.81064  306  -0.9  100   -0.9  35    0     970.9    NA       0.0000   -SN      BR    4200  0    
2019/11/16  10:53:00  BASE  2.2638   311  2.81064  306  -0.9  100   -0.9  35    0     970.9    NA       0.0000   -SN      BR    5000  0    
2019/11/16  10:54:00  BASE  2.25792  312  2.81064  306  -0.9  100   -0.9  35    0     970.9    NA       0.0000   -SN      BR    5000  0    
2019/11/16  10:55:00  BASE  2.21088  314  2.81064  306  -0.9  100   -0.9  35    0     970.9    NA       0.0000   -SN      BR    6000  0    
2019/11/16  10:56:00  BASE  2.18736  316  2.81064  306  -0.9  100   -0.9  35    0     970.9    NA       0.0000   -SN      BR    8000  0    
2019/11/16  10:57:00  BASE  2.16384  319  2.81064  306  -0.9  100   -0.9  35    0     970.9    NA       0.0000   -SN      BR    8000  0    
2019/11/16  10:58:00  BASE  2.06976  323  2.81064  306  -0.9  100   -0.9  35    0     970.9    NA       0.0000   -SN      BR    6000  0    
2019/11/16  10:59:00  BASE  2.06388  325  2.72244  301  -0.9  100   -0.9  35    0     970.9    NA       0.0000   -SN      BR    8000  0    
2019/11/16  11:00:00  BASE  2.10504  325  2.69304  312  -0.9  100   -0.9  36    0     970.9    NA       0.0000   -SN      BR    9999  0    
2019/11/16  11:01:00  BASE  2.15796  324  2.69304  312  -0.9  100   -0.9  36    0     970.9    NA       0.0000   -SN      BR    9999  0    
2019/11/16  11:02:00  BASE  2.19324  322  2.56956  308  -0.9  100   -0.9  36    0     970.9    NA       0.0000   -SN      BR    9999  0    
2019/11/16  11:03:00  BASE  2.12268  322  2.54016  312  -0.9  100   -0.9  36    0     970.9    NA       0.0000   -SN      BR    9999  0    
2019/11/16  11:04:00  BASE  2.09328  323  2.54016  312  -0.9  100   -0.9  36    0     970.9    NA       0.0000   -SN      BR    9000  0    
2019/11/16  11:05:00  BASE  2.08152  324  2.48136  322  -0.9  100   -0.9  36    0     970.9    NA       0.0000   -SN      BR    9000  0    
2019/11/16  11:06:00  BASE  1.9698   324  2.48136  322  -0.9  100   -0.9  37    0     970.9    NA       0.0000   -SN      BR    9999  0    
2019/11/16  11:07:00  BASE  1.86396  325  2.48136  322  -0.9  100   -0.9  37    0     970.9    NA       0.0000   -SN      BR    9999  0    
2019/11/16  11:08:00  BASE  1.85808  327  2.48136  322  -0.9  100   -0.9  38    0     971.0    NA       0.2540   -SN      BR    9000  0    
2019/11/16  11:09:00  BASE  1.91688  327  2.48136  322  -0.9  100   -0.9  38    0     971.0    NA       0.0000   -SN      9000  0     0    
2019/11/16  11:10:00  BASE  2.01684  324  2.48136  322  -0.9  100   -0.9  39    0     971.0    NA       0.0000   -SN      BR    9000  0    
2019/11/16  11:11:00  BASE  1.99332  322  2.35788  317  -0.9  100   -0.9  40    0     971.0    NA       0.0000   -SN      BR    9000  0    
2019/11/16  11:12:00  BASE  1.96392  325  2.24028  327  -0.9  100   -0.9  41    0     971.0    NA       0.0000   -SN      BR    9000  0    
2019/11/16  11:13:00  BASE  2.12856  324  2.59896  322  -0.9  100   -0.9  41    0     971.0    NA       0.0000   -SN      BR    9000  0    
2019/11/16  11:14:00  BASE  2.21088  324  2.59896  322  -0.9  100   -0.9  42    0     971.0    NA       0.0000   -SN      BR    8000  0    
2019/11/16  11:15:00  BASE  2.16972  324  2.59896  322  -0.9  100   -0.9  42    0     971.0    NA       0.0000   -SN      BR    8000  0    
2019/11/16  11:16:00  BASE  2.25792  324  2.63424  326  -0.9  100   -0.9  41    0     971.1    NA       0.0000   -SN      BR    8000  0    
2019/11/16  11:17:00  BASE  2.4402   324  2.63424  326  -0.9  100   -0.9  41    0     971.1    NA       0.0000   -SN      BR    8000  0    
2019/11/16  11:18:00  BASE  2.39316  322  2.63424  326  -0.9  100   -0.9  41    0     971.1    NA       0.0000   -SN      BR    7000  0    
2019/11/16  11:19:00  BASE  2.12856  322  2.63424  326  -0.9  100   -0.9  41    0     971.1    NA       0.0000   -SN      BR    7000  0    
2019/11/16  11:20:00  BASE  1.91688  321  2.63424  326  -1.0  100   -1.0  41    0     971.1    NA       0.0000   -SN      BR    7000  0    
2019/11/16  11:21:00  BASE  1.84632  320  2.63424  326  -1.0  100   -1.0  42    0     971.1    NA       0.0000   BR       7000  0     0    
2019/11/16  11:22:00  BASE  1.84044  317  2.63424  326  -1.0  100   -1.0  41    0     971.1    NA       0.0000   BR       7000  0     0    
2019/11/16  11:23:00  BASE  1.77576  311  2.63424  326  -1.0  100   -1.0  41    0     971.1    NA       0.0000   BR       6000  0     0    
2019/11/16  11:24:00  BASE  1.84044  304  2.63424  326  -1.0  100   -1.0  41    0     971.1    NA       0.0000   BR       6000  0     0    
2019/11/16  11:25:00  BASE  1.98744  296  2.63424  326  -1.0  100   -1.0  42    0     971.0    NA       0.0000   BR       6000  0     0    
2019/11/16  11:26:00  BASE  1.98156  290  2.59896  322  -1.1  100   -1.1  42    0     971.2    NA       0.0000   BR       6000  0     0    
2019/11/16  11:27:00  BASE  1.95216  292  2.56956  322  -1.1  100   -1.1  42    0     971.2    NA       0.0000   BR       6000  200   2400 
2019/11/16  11:28:00  BASE  2.0286   296  2.21088  291  -1.1  100   -1.1  42    0     971.2    NA       0.0000   BR       6000  0     0    
2019/11/16  11:29:00  BASE  2.0874   296  2.21088  292  -1.2  100   -1.2  42    0     971.2    NA       0.0000   BR       6000  0     0    
2019/11/16  11:30:00  BASE  2.0874   294  2.21088  292  -1.2  100   -1.2  42    0     971.2    NA       0.0000   BR       6000  160   0    
2019/11/16  11:31:00  BASE  2.04036  291  2.21088  286  -1.3  100   -1.3  41    0     971.2    NA       0.0000   BR       5000  200   0    
2019/11/16  11:32:00  BASE  1.94628  292  2.21088  286  -1.3  100   -1.3  40    0     971.2    NA       0.0000   BR       5000  230   0    
2019/11/16  11:33:00  BASE  1.95216  296  2.21088  297  -1.3  100   -1.3  39    0     971.2    NA       0.0000   BR       5000  0     0    
2019/11/16  11:34:00  BASE  2.03448  299  2.21088  297  -1.3  100   -1.3  38    0     971.2    NA       0.0000   BR       5000  0     0    
2019/11/16  11:35:00  BASE  2.06976  300  2.24028  295  -1.3  100   -1.3  37    0     971.2    NA       0.0000   BR       5000  0     0    
2019/11/16  11:36:00  BASE  2.12856  300  2.24028  310  -1.3  100   -1.3  36    0     971.2    NA       0.0000   BR       5000  0     0    
2019/11/16  11:37:00  BASE  2.18736  301  2.29908  296  -1.3  100   -1.3  34    0     971.2    NA       0.0000   BR       5000  0     0    
2019/11/16  11:38:00  BASE  2.16972  301  2.29908  296  -1.4  100   -1.4  33    0     971.2    NA       0.0000   BR       5000  0     0    
2019/11/16  11:39:00  BASE  2.1462   301  2.29908  296  -1.4  100   -1.4  33    0     971.2    NA       0.0000   -SN      BR    5000  0    
2019/11/16  11:40:00  BASE  2.09916  299  2.29908  296  -1.4  100   -1.4  32    0     971.2    NA       0.0000   -SN      BR    6000  0    
2019/11/16  11:41:00  BASE  2.14032  297  2.29908  296  -1.4  100   -1.4  32    0     971.2    NA       0.0000   -SN      BR    7000  0    
2019/11/16  11:42:00  BASE  2.19324  291  2.29908  296  -1.4  100   -1.4  32    0     971.2    NA       0.0000   -SN      BR    6000  0    
2019/11/16  11:43:00  BASE  2.01684  287  2.29908  296  -1.5  100   -1.5  32    0     971.2    NA       0.0000   -SN      BR    4700  0    
2019/11/16  11:44:00  BASE  1.8228   284  2.29908  296  -1.5  100   -1.5  31    0     971.3    NA       0.0000   -SN      BR    4400  0    
2019/11/16  11:45:00  BASE  1.61112  277  2.29908  296  -1.5  100   -1.5  31    0     971.4    NA       0.0000   -SN      BR    3400  0    
2019/11/16  11:46:00  BASE  1.39944  272  2.29908  296  -1.5  100   -1.5  31    0     971.4    NA       0.0000   -SN      BR    2400  0    
2019/11/16  11:47:00  BASE  1.41708  267  2.26968  294  -1.6  100   -1.6  31    0     971.4    NA       0.0000   -SN      BR    2300  0    
2019/11/16  11:48:00  BASE  1.5876   261  2.26968  294  -1.6  100   -1.6  31    0     971.3    NA       0.0000   -SN      BR    2600  0    
2019/11/16  11:49:00  BASE  1.75224  260  2.26968  294  -1.6  100   -1.6  32    0     971.3    NA       0.0000   -SN      BR    2200  0    
2019/11/16  11:50:00  BASE  1.85808  257  2.26968  294  -1.7  100   -1.7  32    0     971.3    NA       0.0000   -SN      BR    2600  0    
2019/11/16  11:51:00  BASE  1.84632  257  2.26968  294  -1.8  100   -1.8  33    0     971.3    NA       0.0000   -SN      BR    2300  0    
2019/11/16  11:52:00  BASE  1.75812  258  2.0874   278  -1.9  100   -1.9  33    0     971.4    NA       0.0000   -SN      BR    2500  0    
2019/11/16  11:53:00  BASE  1.59348  260  2.0874   278  -1.9  100   -1.9  34    0     971.4    NA       0.0000   -SN      BR    2500  0    
2019/11/16  11:54:00  BASE  1.50528  265  2.058    252  -2.0  100   -2.0  34    0     971.4    NA       0.0000   -SN      BR    2900  0    
2019/11/16  11:55:00  BASE  1.41708  265  2.058    252  -2.0  100   -2.0  35    0     971.4    NA       0.0000   -SN      BR    3200  0    
2019/11/16  11:56:00  BASE  1.32888  267  2.058    252  -2.1  100   -2.1  35    0     971.4    NA       0.0000   -SN      BR    1900  0    
2019/11/16  11:57:00  BASE  1.49352  272  2.058    252  -2.1  100   -2.1  36    0     971.4    NA       0.0000   -SN      BR    2100  0    
2019/11/16  11:58:00  BASE  1.54056  275  2.0286   257  -2.1  100   -2.1  37    0     971.4    NA       0.0000   -SN      BR    2500  0    
2019/11/16  11:59:00  BASE  1.41708  275  1.96392  258  -2.2  100   -2.2  38    0     971.4    NA       0.0000   -SN      BR    2200  0    
2019/11/16  12:00:00  BASE  1.31712  272  1.87572  256  -2.2  100   -2.2  39    0     971.5    NA       0.2540   -SN      BR    2600  0    
2019/11/16  12:01:00  BASE  1.28184  272  1.84632  275  -2.2  100   -2.2  40    0     971.5    NA       0.0000   -SN      BR    1700  0    
2019/11/16  12:02:00  BASE  1.12308  272  1.84632  275  -2.2  100   -2.2  41    0     971.5    NA       0.0000   -SN      BR    1800  0    
2019/11/16  12:03:00  BASE  0.95844  280  1.84632  275  -2.2  100   -2.2  42    0     971.5    NA       0.0000   -SN      BR    2000  230  
2019/11/16  12:04:00  BASE  1.09956  284  1.84632  275  -2.2  100   -2.2  43    0     971.5    NA       0.0000   -SN      BR    2100  230  
2019/11/16  12:05:00  BASE  1.14072  272  1.84632  275  -2.2  100   -2.2  44    0     971.5    NA       0.0000   -SN      BR    2300  0    
2019/11/16  12:06:00  BASE  1.10544  265  1.84632  275  -2.2  100   -2.2  45    0     971.5    NA       0.0000   -SN      BR    2100  230  
2019/11/16  12:07:00  BASE  1.22304  265  1.72284  269  -2.2  100   -2.2  46    0     971.5    NA       0.0000   -SN      BR    2400  0    
2019/11/16  12:08:00  BASE  1.34064  262  1.63464  275  -2.2  100   -2.2  46    0     971.5    NA       0.0000   -SN      BR    2400  0    
2019/11/16  12:09:00  BASE  1.39356  258  1.57584  256  -2.3  100   -2.3  47    0     971.5    NA       0.0000   -SN      BR    2300  0    
2019/11/16  12:10:00  BASE  1.4112   253  1.57584  256  -2.3  100   -2.3  47    0     971.4    NA       0.0000   -SN      BR    2300  0    
2019/11/16  12:11:00  BASE  1.48764  253  1.66404  253  -2.3  100   -2.3  48    0     971.5    NA       0.0000   -SN      BR    2300  200  
2019/11/16  12:12:00  BASE  1.44648  255  1.66404  253  -2.3  100   -2.3  48    0     971.5    NA       0.0000   -SN      BR    2400  200  
2019/11/16  12:13:00  BASE  1.29948  258  1.66404  253  -2.3  100   -2.3  49    0     971.5    NA       0.0000   -SN      BR    2100  200  
2019/11/16  12:14:00  BASE  1.27008  258  1.66404  253  -2.3  100   -2.3  50    0     971.5    NA       0.0000   -SN      BR    1900  200  
2019/11/16  12:15:00  BASE  1.24068  260  1.66404  253  -2.3  100   -2.3  51    0     971.5    NA       0.0000   -SN      BR    1200  200  
2019/11/16  12:16:00  BASE  1.02312  265  1.66404  253  -2.3  100   -2.3  52    0     971.5    NA       0.0000   -SN      BR    1700  0    
2019/11/16  12:17:00  BASE  0.89376  270  1.66404  253  -2.3  100   -2.3  52    0     971.5    NA       0.0000   -SN      BR    1200  230  
2019/11/16  12:18:00  BASE  0.97608  273  1.66404  253  -2.3  100   -2.3  53    0     971.5    NA       0.0000   -SN      BR    1300  230  
2019/11/16  12:19:00  BASE  0.882    272  1.66404  253  -2.3  100   -2.3  53    0     971.5    NA       0.0000   -SN      BR    2000  230  
2019/11/16  12:20:00  BASE  0.85848  271  1.66404  253  -2.3  100   -2.3  52    0     971.5    NA       0.0000   -SN      BR    1500  260  
2019/11/16  12:21:00  BASE  0.92316  271  1.48176  253  -2.3  100   -2.3  52    0     971.5    NA       0.0000   -SN      BR    1900  260  
2019/11/16  12:22:00  BASE  0.85848  277  1.42296  259  -2.3  100   -2.3  52    0     971.5    NA       0.0000   -SN      BR    1700  0    
2019/11/16  12:23:00  BASE  0.65268  285  1.39356  254  -2.3  100   -2.3  52    0     971.5    NA       0.0000   -SN      BR    2200  890  
2019/11/16  12:24:00  BASE  0.51156  293  1.29948  261  -2.3  100   -2.3  52    0     971.5    NA       0.0000   -SN      BR    2000  300  
2019/11/16  12:25:00  BASE  0.72324  303  1.1466   275  -2.2  100   -2.2  52    0     971.5    NA       0.0000   -SN      BR    2500  300  
2019/11/16  12:26:00  BASE  0.96432  315  1.21128  327  -2.2  100   -2.2  51    0     971.5    NA       0.0000   -SN      BR    2400  300  
2019/11/16  12:27:00  BASE  1.09956  329  1.27008  332  -2.2  100   -2.2  51    0     971.5    NA       0.0000   -SN      BR    4200  300  
2019/11/16  12:28:00  BASE  1.13484  333  1.27008  332  -2.2  100   -2.2  51    0     971.5    NA       0.0000   -SN      BR    2300  0    
2019/11/16  12:29:00  BASE  1.0878   332  1.27008  332  -2.2  100   -2.2  51    0     971.5    NA       0.0000   -SN      BR    2600  260  
2019/11/16  12:30:00  BASE  1.12308  335  1.29948  336  -2.2  100   -2.2  51    0     971.5    NA       0.0000   -SN      BR    2400  260  
2019/11/16  12:31:00  BASE  1.21716  336  1.32888  337  -2.2  100   -2.2  52    0     971.5    NA       0.0000   -SN      BR    2900  0    
2019/11/16  12:32:00  BASE  1.24656  332  1.32888  327  -2.2  100   -2.2  53    0     971.6    NA       0.2540   -SN      BR    2300  0    
2019/11/16  12:33:00  BASE  1.21128  327  1.32888  327  -2.2  100   -2.2  53    0     971.6    NA       0.0000   -SN      BR    3300  0    
2019/11/16  12:34:00  BASE  1.18776  327  1.35828  331  -2.2  100   -2.2  54    0     971.6    NA       0.0000   -SN      BR    2100  0    
2019/11/16  12:35:00  BASE  1.27008  323  1.48176  319  -2.2  100   -2.2  55    0     971.6    NA       0.0000   -SN      BR    3800  0    
2019/11/16  12:36:00  BASE  1.2936   316  1.48176  319  -2.2  100   -2.2  57    0     971.6    NA       0.0000   -SN      BR    3500  0    
2019/11/16  12:37:00  BASE  1.21716  314  1.48176  319  -2.1  100   -2.1  58    0     971.6    NA       0.0000   -SN      BR    9999  0    
2019/11/16  12:38:00  BASE  1.15248  313  1.48176  319  -2.1  100   -2.1  59    0     971.6    NA       0.0000   -SN      BR    9999  300  
2019/11/16  12:39:00  BASE  1.12896  313  1.48176  319  -2.1  100   -2.1  59    0     971.6    NA       0.0000   -SN      BR    9999  0    
2019/11/16  12:40:00  BASE  1.19952  315  1.48176  319  -2.1  100   -2.1  60    0     971.5    NA       0.0000   -SN      BR    9999  300  
2019/11/16  12:41:00  BASE  1.30536  319  1.48176  319  -2.2  100   -2.2  60    0     971.6    NA       0.0000   -SN      BR    9999  300  
2019/11/16  12:42:00  BASE  1.4406   320  1.63464  315  -2.2  100   -2.2  60    0     971.6    NA       0.0000   -SN      BR    9999  300  
2019/11/16  12:43:00  BASE  1.54056  318  1.63464  313  -2.2  100   -2.2  61    0     971.6    NA       0.0000   -SN      BR    9999  300  
2019/11/16  12:44:00  BASE  1.53468  317  1.63464  321  -2.2  100   -2.2  61    0     971.6    NA       0.0000   -SN      BR    9999  300  
2019/11/16  12:45:00  BASE  1.52292  315  1.63464  314  -2.2  100   -2.2  61    0     971.7    NA       0.0000   -SN      9999  300   0    
2019/11/16  12:46:00  BASE  1.53468  313  1.63464  305  -2.1  100   -2.1  62    0     971.7    NA       0.0000   -SN      9999  300   0    
2019/11/16  12:47:00  BASE  1.56408  310  1.69344  307  -2.1  100   -2.1  62    0     971.6    NA       0.0000   -SN      7000  300   0    
2019/11/16  12:48:00  BASE  1.51704  307  1.69344  307  -2.1  100   -2.1  62    0     971.7    NA       0.0000   -SN      9999  300   0    
2019/11/16  12:49:00  BASE  1.44648  308  1.69344  307  -2.1  100   -2.1  62    0     971.7    NA       0.0000   -SN      9999  300   0    
2019/11/16  12:50:00  BASE  1.53468  312  1.69344  312  -2.1  100   -2.1  63    0     971.7    NA       0.0000   -SN      9999  230   0    
2019/11/16  12:51:00  BASE  1.54644  312  1.69344  312  -2.1  100   -2.1  64    0     971.7    NA       0.0000   -SN      9999  300   0    
2019/11/16  12:52:00  BASE  1.55232  312  1.78752  316  -2.0  100   -2.0  64    0     971.7    NA       0.0000   -SN      9999  300   0    
2019/11/16  12:53:00  BASE  1.65228  316  1.81692  323  -2.0  100   -2.0  65    0     971.7    NA       0.0000   -SN      9000  260   0    
2019/11/16  12:54:00  BASE  1.66992  315  1.81692  323  -2.0  100   -2.0  66    0     971.7    NA       0.0000   -SN      9999  300   0    
2019/11/16  12:55:00  BASE  1.617    315  1.81692  323  -2.0  100   -2.0  66    0     971.7    NA       0.0000   -SN      BR    5000  260  
2019/11/16  12:56:00  BASE  1.43472  316  1.81692  323  -2.0  100   -2.0  67    0     971.7    NA       0.0000   -SN      9999  260   0    
2019/11/16  12:57:00  BASE  1.38768  314  1.81692  323  -2.1  100   -2.1  68    0     971.6    NA       0.0000   -SN      9999  260   0    
2019/11/16  12:58:00  BASE  1.40532  309  1.81692  323  -2.1  100   -2.1  69    0     971.7    NA       0.0000   -SN      9999  300   0    
2019/11/16  12:59:00  BASE  1.42296  306  1.81692  323  -2.0  100   -2.0  69    0     971.7    NA       0.0000   -SN      9999  300   21490
2019/11/16  13:00:00  BASE  1.5288   305  1.87572  299  -2.0  100   -2.0  69    0     971.7    NA       0.0000   -SN      9999  330   0    
2019/11/16  13:01:00  BASE  1.59936  305  1.87572  299  -2.0  100   -2.0  69    0     971.7    NA       0.0000   -SN      9999  300   2230 
2019/11/16  13:02:00  BASE  1.75224  302  1.9992   299  -2.0  100   -2.0  69    0     971.7    NA       0.0000   -SN      9999  260   2230 
2019/11/16  13:03:00  BASE  1.9404   296  2.0874   291  -1.9  100   -1.9  68    0     971.7    NA       0.0000   -SN      9999  300   0    
2019/11/16  13:04:00  BASE  1.94628  295  2.0874   291  -2.0  100   -2.0  68    0     971.7    NA       0.0000   -SN      9999  300   0    
2019/11/16  13:05:00  BASE  2.01096  296  2.24028  296  -2.0  100   -2.0  68    0     971.7    NA       0.0000   -SN      9999  260   0    
2019/11/16  13:06:00  BASE  2.21088  295  2.59896  295  -2.0  100   -2.0  69    0     971.7    NA       0.0000   -SN      6000  200   0    
2019/11/16  13:07:00  BASE  2.24616  293  2.59896  295  -2.0  100   -2.0  70    0     971.7    NA       0.0000   -SN      9999  230   0    
2019/11/16  13:08:00  BASE  2.19912  291  2.59896  295  -2.0  100   -2.0  70    0     971.7    NA       0.0000   -SN      9999  260   0    
2019/11/16  13:09:00  BASE  2.1462   291  2.59896  295  -2.1  100   -2.1  71    0     971.7    NA       0.0000   -SN      9999  0     0    
2019/11/16  13:10:00  BASE  2.12268  292  2.59896  295  -2.1  100   -2.1  72    0     971.7    NA       0.0000   -SN      9999  0     0    
2019/11/16  13:11:00  BASE  2.10504  293  2.59896  295  -2.2  100   -2.2  73    0     971.7    NA       0.0000   -SN      9999  230   0    
2019/11/16  13:12:00  BASE  2.0286   292  2.59896  295  -2.2  100   -2.2  74    0     971.8    NA       0.0000   -SN      9999  300   2170 
2019/11/16  13:13:00  BASE  2.04624  290  2.59896  295  -2.2  100   -2.2  74    0     971.8    NA       0.0000   -SN      9999  330   2130 
2019/11/16  13:14:00  BASE  2.058    291  2.59896  295  -2.2  100   -2.2  74    0     971.8    NA       0.0000   -SN      9999  330   0    
2019/11/16  13:15:00  BASE  2.07564  293  2.59896  295  -2.2  100   -2.2  74    0     971.8    NA       0.0000   -SN      9999  330   0    
2019/11/16  13:16:00  BASE  2.16972  295  2.24028  294  -2.2  100   -2.2  74    0     971.8    NA       0.0000   -SN      9999  330   0    
2019/11/16  13:17:00  BASE  2.18736  295  2.24028  295  -2.2  100   -2.2  74    0     971.8    NA       0.0000   -SN      9999  330   2100 
2019/11/16  13:18:00  BASE  2.18736  295  2.24028  293  -2.2  100   -2.2  75    0     971.8    NA       0.0000   -SN      9999  330   2100 
2019/11/16  13:19:00  BASE  2.18736  293  2.24028  293  -2.2  100   -2.2  76    0     971.8    NA       0.0000   -SN      9999  300   2070 
2019/11/16  13:20:00  BASE  2.06976  292  2.24028  293  -2.2  100   -2.2  77    0     971.8    NA       0.0000   -SN      9999  300   2100 
2019/11/16  13:21:00  BASE  1.92276  291  2.24028  293  -2.2  100   -2.2  79    0     971.8    NA       0.0000   -SN      9999  300   2070 
2019/11/16  13:22:00  BASE  1.76988  293  2.24028  293  -2.3  100   -2.3  80    0     971.8    NA       0.0000   -SN      9999  330   2070 
2019/11/16  13:23:00  BASE  1.75812  295  2.24028  293  -2.2  100   -2.2  80    0     971.8    NA       0.0000   -SN      9999  360   2170 
2019/11/16  13:24:00  BASE  1.80516  295  2.24028  293  -2.2  100   -2.2  80    0     971.8    NA       0.0000   -SN      9999  390   2130 
2019/11/16  13:25:00  BASE  1.84632  296  2.24028  293  -2.2  100   -2.2  80    0     971.8    NA       0.0000   -SN      9999  430   2200 
2019/11/16  13:26:00  BASE  1.91688  295  2.24028  293  -2.2  100   -2.2  80    0     971.8    NA       0.0000   -SN      9999  390   0    
2019/11/16  13:27:00  BASE  1.86396  294  2.24028  293  -2.2  100   -2.2  80    0     971.8    NA       0.0000   -SN      9999  390   0    
2019/11/16  13:28:00  BASE  1.76988  293  2.21088  293  -2.2  100   -2.2  80    0     971.8    NA       0.0000   -SN      9999  390   0    
2019/11/16  13:29:00  BASE  1.6758   292  2.1168   290  -2.2  100   -2.2  80    0     971.8    NA       0.0000   -SN      9999  390   0    
2019/11/16  13:30:00  BASE  1.62876  291  2.0874   302  -2.2  100   -2.2  79    0     971.9    NA       0.0000   -SN      9999  390   0    
2019/11/16  13:31:00  BASE  1.53468  283  2.0874   302  -2.2  100   -2.2  79    0     972.0    NA       0.0000   -SN      7000  360   0    
2019/11/16  13:32:00  BASE  1.41708  280  2.0874   302  -2.2  100   -2.2  79    0     972.0    NA       0.0000   -SN      BR    2300  330  
2019/11/16  13:33:00  BASE  1.37592  282  2.0874   302  -2.2  100   -2.2  79    0     972.0    NA       0.0000   -SN      BR    2400  300  
2019/11/16  13:34:00  BASE  1.40532  278  2.0874   302  -2.2  100   -2.2  80    0     972.0    NA       0.0000   -SN      BR    3700  300  
2019/11/16  13:35:00  BASE  1.59936  276  2.0874   282  -2.2  100   -2.2  81    0     972.0    NA       0.0000   -SN      BR    9999  300  
2019/11/16  13:36:00  BASE  1.60524  274  2.0874   282  -2.2  100   -2.2  82    0     972.0    NA       0.0000   -SN      BR    9999  300  
2019/11/16  13:37:00  BASE  1.62288  270  2.0874   282  -2.2  100   -2.2  84    0     972.0    NA       0.0000   -SN      BR    9999  330  
2019/11/16  13:38:00  BASE  1.8522   272  2.1756   270  -2.3  100   -2.3  85    0     972.0    NA       0.0000   -SN      BR    9999  330  
2019/11/16  13:39:00  BASE  1.81692  278  2.1756   272  -2.3  100   -2.3  86    0     972.0    NA       0.0000   -SN      BR    9999  330  
2019/11/16  13:40:00  BASE  1.60524  283  2.1756   272  -2.3  100   -2.3  87    0     972.0    NA       0.0000   -SN      BR    9999  330  
2019/11/16  13:41:00  BASE  1.49352  287  2.1756   272  -2.3  100   -2.3  88    0     972.0    NA       0.0000   -SN      BR    9999  360  
2019/11/16  13:42:00  BASE  1.4994   281  2.1756   272  -2.3  100   -2.3  89    0     972.0    NA       0.0000   -SN      BR    9999  360  
2019/11/16  13:43:00  BASE  1.37592  272  2.1756   272  -2.2  100   -2.2  89    0     972.0    NA       0.0000   -SN      BR    5000  330  
2019/11/16  13:44:00  BASE  1.31712  270  2.1756   272  -2.2  100   -2.2  90    0     972.0    NA       0.0000   -SN      BR    6000  360  
2019/11/16  13:45:00  BASE  1.42296  269  2.1756   272  -2.3  100   -2.3  89    0     972.0    NA       0.0000   -SN      BR    9000  360  
2019/11/16  13:46:00  BASE  1.54056  265  2.1756   272  -2.3  100   -2.3  89    0     972.0    NA       0.0000   -SN      BR    4800  360  
2019/11/16  13:47:00  BASE  1.69344  262  2.1756   272  -2.4  100   -2.4  90    0     972.0    NA       0.0000   -SN      BR    9999  360  
2019/11/16  13:48:00  BASE  1.617    263  2.1756   272  -2.4  100   -2.4  93    0     972.0    NA       0.0000   -SN      BR    9999  360  
2019/11/16  13:49:00  BASE  1.45236  263  1.96392  259  -2.5  100   -2.5  94    0     972.0    NA       0.0000   -SN      BR    9999  330  
2019/11/16  13:50:00  BASE  1.3818   262  1.96392  259  -2.5  100   -2.5  95    0     972.0    NA       0.0000   -SN      BR    9999  330  
2019/11/16  13:51:00  BASE  1.38768  263  1.96392  259  -2.5  100   -2.5  96    0     972.0    NA       0.0000   -SN      BR    9999  330  
2019/11/16  13:52:00  BASE  1.56408  262  1.96392  259  -2.4  100   -2.4  97    0     972.0    NA       0.0000   -SN      BR    9999  330  
2019/11/16  13:53:00  BASE  1.77576  259  1.96392  254  -2.4  100   -2.4  98    0     972.0    NA       0.0000   -SN      9999  330   0    
2019/11/16  13:54:00  BASE  1.8522   254  1.96392  253  -2.5  100   -2.5  99    0     972.0    NA       0.0000   -SN      9999  300   0    
2019/11/16  13:55:00  BASE  1.75812  253  1.96392  253  -2.5  100   -2.5  99    0     972.0    NA       0.0000   -SN      9999  300   0    
2019/11/16  13:56:00  BASE  1.7346   258  1.96392  263  -2.5  100   -2.5  99    0     972.1    NA       0.0000   -SN      9999  300   0    
2019/11/16  13:57:00  BASE  1.83456  259  1.9992   256  -2.5  100   -2.5  99    0     972.1    NA       0.0000   -SN      4800  330   2170 
2019/11/16  13:58:00  BASE  1.83456  256  1.9992   256  -2.5  100   -2.5  101   0     972.1    NA       0.0000   -SN      9999  300   2130 
2019/11/16  13:59:00  BASE  1.80516  255  1.9992   256  -2.5  100   -2.5  102   0     972.1    NA       0.0000   -SN      9999  300   2070 
2019/11/16  14:00:00  BASE  1.80516  251  2.0286   252  -2.5  100   -2.5  103   0     972.1    NA       0.0000   -SN      9999  300   2100 
2019/11/16  14:01:00  BASE  1.85808  249  2.0874   246  -2.5  100   -2.5  103   0     972.1    NA       0.0000   -SN      9999  300   2100 
2019/11/16  14:02:00  BASE  1.90512  250  2.0874   246  -2.5  100   -2.5  104   0     972.1    NA       0.0000   -SN      9999  300   2030 
2019/11/16  14:03:00  BASE  1.94628  250  2.21088  251  -2.5  100   -2.5  105   0     972.1    NA       0.0000   -SN      9999  300   2000 
2019/11/16  14:04:00  BASE  1.9698   248  2.21088  251  -2.6  100   -2.6  105   0     972.1    NA       0.0000   -SN      9999  300   0    
2019/11/16  14:05:00  BASE  2.04036  252  2.24028  261  -2.6  100   -2.6  104   0     972.1    NA       0.0000   -SN      9999  300   0    
2019/11/16  14:06:00  BASE  2.12268  256  2.24028  261  -2.6  100   -2.6  105   0     972.1    NA       0.0000   -SN      9999  300   0    
2019/11/16  14:07:00  BASE  2.04624  254  2.24028  261  -2.6  100   -2.6  106   0     972.1    NA       0.0000   -SN      9999  300   0    
2019/11/16  14:08:00  BASE  1.81692  250  2.24028  261  -2.6  100   -2.6  108   0     972.1    NA       0.0000   -SN      9999  300   0    
2019/11/16  14:09:00  BASE  1.69932  240  2.24028  261  -2.6  100   -2.6  110   0     972.1    NA       0.0000   -SN      9999  300   0    
2019/11/16  14:10:00  BASE  1.7346   231  2.24028  261  -2.6  100   -2.6  111   0     972.1    NA       0.0000   -SN      9999  300   0    
2019/11/16  14:11:00  BASE  1.75224  229  2.24028  261  -2.6  100   -2.6  112   0     972.1    NA       0.0000   -SN      9999  300   0    
2019/11/16  14:12:00  BASE  1.76988  236  2.24028  261  -2.6  100   -2.6  111   0     972.1    NA       0.0000   -SN      9999  300   0    
2019/11/16  14:13:00  BASE  1.75812  240  2.24028  261  -2.6  100   -2.6  110   0     972.1    NA       0.0000   -SN      9999  330   0    
2019/11/16  14:14:00  BASE  1.57584  234  2.24028  261  -2.6  100   -2.6  110   0     972.1    NA       0.0000   -SN      9999  330   0    
2019/11/16  14:15:00  BASE  1.56996  228  2.21088  254  -2.6  100   -2.6  110   0     972.1    NA       0.0000   -SN      9999  300   0    
2019/11/16  14:16:00  BASE  1.66404  222  2.1168   257  -2.6  100   -2.6  110   0     972.1    NA       0.0000   -SN      9999  330   0    
2019/11/16  14:17:00  BASE  1.4406   215  2.0286   248  -2.6  100   -2.6  111   0     972.1    NA       0.0000   -SN      9999  330   0    
2019/11/16  14:18:00  BASE  1.39356  214  1.96392  239  -2.6  100   -2.6  111   0     972.1    NA       0.0000   -SN      9999  330   0    
2019/11/16  14:19:00  BASE  1.21716  213  1.96392  239  -2.6  100   -2.6  111   0     972.1    NA       0.0000   -SN      9999  330   0    
2019/11/16  14:20:00  BASE  1.06428  216  1.96392  239  -2.6  100   -2.6  111   0     972.2    NA       0.0000   -SN      9999  360   22440
2019/11/16  14:21:00  BASE  1.24656  224  1.96392  239  -2.6  100   -2.6  112   0     972.2    NA       0.0000   9999     330   0     0    
2019/11/16  14:22:00  BASE  1.31124  232  1.96392  239  -2.6  100   -2.6  112   0     972.2    NA       0.0000   9000     330   0     0    
2019/11/16  14:23:00  BASE  1.15836  233  1.90512  228  -2.6  100   -2.6  112   0     972.2    NA       0.0000   9999     360   0     0    
2019/11/16  14:24:00  BASE  1.09956  229  1.90512  228  -2.6  100   -2.6  112   0     972.2    NA       0.0000   -SN      9999  330   0    
2019/11/16  14:25:00  BASE  1.28184  230  1.84632  221  -2.6  100   -2.6  111   0     972.2    NA       0.0000   -SN      8000  330   0    
2019/11/16  14:26:00  BASE  1.45236  229  1.72284  231  -2.7  100   -2.7  111   0     972.2    NA       0.0000   -SN      9999  330   0    
2019/11/16  14:27:00  BASE  1.51116  230  1.72284  231  -2.7  100   -2.7  111   0     972.2    NA       0.0000   -SN      9999  360   23070
2019/11/16  14:28:00  BASE  1.54056  231  1.72284  231  -2.6  100   -2.6  114   0     972.2    NA       0.0000   -SN      9999  360   0    
2019/11/16  14:29:00  BASE  1.50528  228  1.72284  231  -2.6  100   -2.6  115   0     972.2    NA       0.0000   -SN      9999  360   0    
2019/11/16  14:30:00  BASE  1.42884  228  1.72284  231  -2.6  100   -2.6  117   0     972.1    NA       0.0000   -SN      9999  360   0    
2019/11/16  14:31:00  BASE  1.31124  227  1.72284  231  -2.6  100   -2.6  126   0     972.2    NA       0.0000   -SN      9999  360   0    
2019/11/16  14:32:00  BASE  1.19364  229  1.72284  231  -2.6  100   -2.6  128   0     972.2    NA       0.0000   -SN      9999  360   21850
2019/11/16  14:33:00  BASE  1.2936   233  1.72284  231  -2.6  100   -2.6  130   0     972.2    NA       0.0000   -SN      9999  360   0    
2019/11/16  14:34:00  BASE  1.42296  232  1.72284  231  -2.6  100   -2.6  133   0     972.2    NA       0.0000   9999     360   0     0    
2019/11/16  14:35:00  BASE  1.28772  226  1.63464  228  -2.6  100   -2.6  136   0     972.2    NA       0.0000   9999     360   0     0    
2019/11/16  14:36:00  BASE  1.21716  226  1.63464  228  -2.6  100   -2.6  138   0     972.2    NA       0.0000   9999     360   0     0    
2019/11/16  14:37:00  BASE  1.21716  227  1.63464  228  -2.6  100   -2.6  138   0     972.2    NA       0.0000   9999     390   0     0    
2019/11/16  14:38:00  BASE  1.176    224  1.60524  229  -2.6  100   -2.6  138   0     972.2    NA       0.0000   9999     390   0     0    
2019/11/16  14:39:00  BASE  1.2936   223  1.54056  230  -2.6  100   -2.6  137   0     972.2    NA       0.0000   9999     390   0     0    
2019/11/16  14:40:00  BASE  1.4112   226  1.69344  230  -2.6  100   -2.6  137   0     972.2    NA       0.0000   9999     360   22050 0    
2019/11/16  14:41:00  BASE  1.52292  231  1.78752  235  -2.6  100   -2.6  138   0     972.2    NA       0.0000   9999     390   0     0    
2019/11/16  14:42:00  BASE  1.66992  230  1.87572  227  -2.6  100   -2.6  138   0     972.2    NA       0.0000   9999     390   0     0    
2019/11/16  14:43:00  BASE  1.62288  227  1.87572  227  -2.6  100   -2.6  139   0     972.2    NA       0.0000   9999     360   0     0    
2019/11/16  14:44:00  BASE  1.43472  230  1.87572  227  -2.6  100   -2.6  140   0     972.2    NA       0.0000   9999     390   0     0    
2019/11/16  14:45:00  BASE  1.3818   236  1.87572  227  -2.6  100   -2.6  140   0     972.2    NA       0.0000   9999     390   0     0    
2019/11/16  14:46:00  BASE  1.37004  237  1.87572  227  -2.7  100   -2.7  141   0     972.2    NA       0.0000   9999     360   0     0    
2019/11/16  14:47:00  BASE  1.34652  235  1.87572  227  -2.7  100   -2.7  141   0     972.2    NA       0.0000   9999     360   0     0    
2019/11/16  14:48:00  BASE  1.41708  232  1.87572  227  -2.7  100   -2.7  145   0     972.2    NA       0.0000   9999     360   0     0    
2019/11/16  14:49:00  BASE  1.33476  231  1.87572  227  -2.7  100   -2.7  148   0     972.2    NA       0.0000   9999     330   23360 0    
2019/11/16  14:50:00  BASE  1.27008  229  1.87572  227  -2.7  100   -2.7  149   0     972.2    NA       0.0000   9999     330   0     0    
2019/11/16  14:51:00  BASE  1.32888  228  1.87572  227  -2.7  100   -2.7  150   0     972.2    NA       0.0000   9999     330   0     0    
2019/11/16  14:52:00  BASE  1.40532  230  1.78752  227  -2.7  100   -2.7  152   0     972.2    NA       0.0000   9999     360   21230 0    
2019/11/16  14:53:00  BASE  1.53468  231  1.69344  231  -2.7  100   -2.7  153   0     972.2    NA       0.0000   9999     360   0     0    
2019/11/16  14:54:00  BASE  1.4406   227  1.69344  231  -2.7  100   -2.7  156   0     972.2    NA       0.0000   9999     360   0     0    
2019/11/16  14:55:00  BASE  1.35828  222  1.69344  218  -2.7  100   -2.7  156   0     972.2    NA       0.0000   9999     390   0     0    
2019/11/16  14:56:00  BASE  1.44648  217  1.69344  218  -2.6  100   -2.6  162   0     972.2    NA       0.0000   9999     360   0     0    
2019/11/16  14:57:00  BASE  1.47588  212  1.69344  218  -2.6  100   -2.6  164   0     972.2    NA       0.0000   9999     360   2850  0    
2019/11/16  14:58:00  BASE  1.323    210  1.69344  218  -2.6  100   -2.6  166   0     972.2    NA       0.0000   9999     360   0     0    
2019/11/16  14:59:00  BASE  1.14072  206  1.69344  218  -2.6  100   -2.6  171   0     972.2    NA       0.0000   9999     390   0     0    
2019/11/16  15:00:00  BASE  0.9996   202  1.69344  218  -2.5  100   -2.5  175   0     972.2    NA       0.0000   9999     390   0     0    
2019/11/16  15:01:00  BASE  0.85848  205  1.69344  218  -2.5  100   -2.5  178   0     972.2    NA       0.0000   9999     390   0     0    
2019/11/16  15:02:00  BASE  0.87024  212  1.69344  218  -2.5  100   -2.5  180   0     972.2    NA       0.0000   9999     390   0     0    
2019/11/16  15:03:00  BASE  1.09956  216  1.69344  218  -2.5  100   -2.5  183   0     972.3    NA       0.0000   9999     390   0     0    
2019/11/16  15:04:00  BASE  1.34064  218  1.69344  218  -2.5  100   -2.5  184   0     972.3    NA       0.0000   9999     390   0     0    
2019/11/16  15:05:00  BASE  1.35828  220  1.60524  210  -2.5  100   -2.5  185   0     972.3    NA       0.0000   9999     430   0     0    
2019/11/16  15:06:00  BASE  1.24068  216  1.54056  222  -2.5  100   -2.5  185   0     972.3    NA       0.0000   9999     430   0     0    
2019/11/16  15:07:00  BASE  1.1172   215  1.54056  222  -2.5  100   -2.5  187   0     972.3    NA       0.0000   9999     430   0     0    
2019/11/16  15:08:00  BASE  1.18188  222  1.54056  222  -2.5  100   -2.5  186   0     972.3    NA       0.0000   9999     460   0     0    
2019/11/16  15:09:00  BASE  1.25832  226  1.54056  222  -2.5  100   -2.5  188   0     972.3    NA       0.0000   9999     460   0     0    
2019/11/16  15:10:00  BASE  1.07604  227  1.54056  222  -2.5  100   -2.5  189   0     972.3    NA       0.0000   9999     430   0     0    
2019/11/16  15:11:00  BASE  1.1172   225  1.54056  222  -2.5  100   -2.5  196   0     972.3    NA       0.0000   9999     390   0     0    
2019/11/16  15:12:00  BASE  1.24068  225  1.54056  222  -2.5  100   -2.5  195   0     972.3    NA       0.0000   9999     390   0     0    
2019/11/16  15:13:00  BASE  1.1466   228  1.54056  222  -2.5  100   -2.5  193   0     972.3    NA       0.0000   9999     390   0     0    
2019/11/16  15:14:00  BASE  1.01136  227  1.42296  229  -2.5  100   -2.5  193   0     972.3    NA       0.0000   9999     360   23890 0    
2019/11/16  15:15:00  BASE  1.01724  226  1.42296  229  -2.5  100   -2.5  194   0     972.3    NA       0.0000   9999     390   0     0    
2019/11/16  15:16:00  BASE  1.14072  220  1.42296  229  -2.5  100   -2.5  196   0     972.3    NA       0.0000   9999     390   0     0    
2019/11/16  15:17:00  BASE  1.09368  220  1.42296  229  -2.4  100   -2.4  197   0     972.3    NA       0.0000   9999     390   0     0    
2019/11/16  15:18:00  BASE  1.09368  223  1.35828  224  -2.4  100   -2.4  199   0     972.3    NA       0.0000   9999     390   0     0    
2019/11/16  15:19:00  BASE  1.12896  226  1.35828  224  -2.4  100   -2.4  200   0     972.3    NA       0.0000   9999     390   0     0    
2019/11/16  15:20:00  BASE  1.21128  228  1.54056  222  -2.4  100   -2.4  202   0     972.3    NA       0.0000   9999     390   0     0    
2019/11/16  15:21:00  BASE  1.40532  225  1.57584  222  -2.4  100   -2.4  204   0     972.4    NA       0.0000   9999     390   0     0    
2019/11/16  15:22:00  BASE  1.37004  223  1.57584  222  -2.4  100   -2.4  206   0     972.4    NA       0.0000   9999     390   0     0    
2019/11/16  15:23:00  BASE  1.28772  222  1.57584  222  -2.4  100   -2.4  208   0     972.4    NA       0.0000   9999     430   0     0    
2019/11/16  15:24:00  BASE  1.25244  225  1.57584  222  -2.5  100   -2.5  211   0     972.4    NA       0.0000   9999     430   0     0    
2019/11/16  15:25:00  BASE  1.07604  230  1.57584  222  -2.4  100   -2.4  212   0     972.4    NA       0.0000   9999     460   0     0    
2019/11/16  15:26:00  BASE  0.9114   226  1.57584  222  -2.4  100   -2.4  216   0     972.4    NA       0.0000   9999     490   0     0    
2019/11/16  15:27:00  BASE  0.89964  217  1.57584  222  -2.4  100   -2.4  217   0     972.4    NA       0.0000   9999     490   0     0    
2019/11/16  15:28:00  BASE  1.0584   217  1.57584  222  -2.4  100   -2.4  218   0     972.4    NA       0.0000   9999     390   0     0    
2019/11/16  15:29:00  BASE  1.22304  225  1.57584  222  -2.4  100   -2.4  218   0     972.4    NA       0.0000   9999     430   0     0    
2019/11/16  15:30:00  BASE  1.21716  227  1.57584  222  -2.4  100   -2.4  219   0     972.4    NA       0.0000   9999     490   0     0    
2019/11/16  15:31:00  BASE  1.2054   224  1.48176  235  -2.4  100   -2.4  221   0     972.4    NA       0.0000   9999     490   0     0    
2019/11/16  15:32:00  BASE  1.2642   228  1.48176  235  -2.4  100   -2.4  224   0     972.4    NA       0.0000   9999     430   0     0    
2019/11/16  15:33:00  BASE  1.37004  235  1.69344  240  -2.4  100   -2.4  225   0     972.4    NA       0.0000   9999     430   0     0    
2019/11/16  15:34:00  BASE  1.32888  239  1.69344  240  -2.4  100   -2.4  226   0     972.4    NA       0.0000   9999     430   21460 0    
2019/11/16  15:35:00  BASE  1.07604  242  1.69344  240  -2.4  100   -2.4  223   0     972.5    NA       0.0000   9999     460   0     0    
2019/11/16  15:36:00  BASE  0.99372  246  1.69344  240  -2.5  100   -2.5  222   0     972.5    NA       0.0000   9999     520   0     0    
2019/11/16  15:37:00  BASE  1.07604  242  1.69344  240  -2.5  100   -2.5  221   0     972.5    NA       0.0000   9999     460   0     0    
2019/11/16  15:38:00  BASE  1.08192  238  1.69344  240  -2.5  100   -2.5  217   0     972.6    NA       0.0000   9999     490   0     0    
2019/11/16  15:39:00  BASE  1.1172   256  1.69344  240  -2.5  100   -2.5  216   0     972.6    NA       0.0000   9999     460   0     0    
2019/11/16  15:40:00  BASE  1.2348   273  1.69344  240  -2.4  100   -2.4  214   0     972.6    NA       0.0000   9999     430   0     0    
2019/11/16  15:41:00  BASE  1.10544  274  1.69344  240  -2.4  100   -2.4  215   0     972.5    NA       0.0000   9999     430   0     0    
2019/11/16  15:42:00  BASE  0.77028  273  1.69344  240  -2.3  100   -2.3  220   0     972.5    NA       0.0000   9999     460   0     0    
2019/11/16  15:43:00  BASE  0.29988  270  1.42296  269  -2.3  100   -2.3  223   0     972.5    NA       0.0000   9999     520   0     0    
2019/11/16  15:44:00  BASE  0.02352  269  1.42296  269  -2.2  100   -2.2  221   0     972.5    NA       0.0000   9999     520   0     0    
2019/11/16  15:45:00  BASE  0.02352  265  1.42296  269  -2.2  100   -2.2  218   0     972.5    NA       0.0000   9999     490   0     0    
2019/11/16  15:46:00  BASE  0.16464  254  1.42296  269  -2.2  100   -2.2  212   0     972.5    NA       0.0000   9999     490   0     0    
2019/11/16  15:47:00  BASE  0.44688  253  1.42296  269  -2.2  100   -2.2  206   0     972.5    NA       0.0000   9999     490   0     0    
2019/11/16  15:48:00  BASE  0.72324  270  1.42296  269  -2.3  100   -2.3  199   0     972.6    NA       0.0000   9999     460   0     0    
2019/11/16  15:49:00  BASE  0.86436  290  1.42296  269  -2.3  100   -2.3  193   0     972.6    NA       0.0000   9999     460   0     0    
2019/11/16  15:50:00  BASE  0.93492  294  1.42296  288  -2.2  100   -2.2  188   0     972.6    NA       0.0000   9999     460   0     0    
2019/11/16  15:51:00  BASE  1.05252  295  1.42296  288  -2.1  100   -2.1  185   0     972.6    NA       0.0000   9999     430   0     0    
2019/11/16  15:52:00  BASE  1.17012  301  1.48176  304  -2.1  100   -2.1  182   0     972.6    NA       0.0000   9999     430   0     0    
2019/11/16  15:53:00  BASE  0.98196  307  1.48176  304  -2.0  100   -2.0  184   0     972.6    NA       0.0000   9999     430   0     0    
2019/11/16  15:54:00  BASE  0.84084  303  1.48176  304  -2.0  100   -2.0  181   0     972.6    NA       0.0000   9999     430   0     0    
2019/11/16  15:55:00  BASE  0.95844  294  1.48176  304  -2.0  100   -2.0  179   0     972.6    NA       0.0000   9999     460   0     0    
2019/11/16  15:56:00  BASE  0.96432  290  1.48176  304  -2.1  100   -2.1  178   0     972.6    NA       0.0000   9999     490   0     0    
2019/11/16  15:57:00  BASE  0.78204  292  1.48176  304  -2.1  100   -2.1  175   0     972.6    NA       0.0000   9999     490   0     0    
2019/11/16  15:58:00  BASE  0.40572  293  1.48176  304  -2.0  100   -2.0  174   0     972.6    NA       0.0000   9999     490   0     0    
2019/11/16  15:59:00  BASE  0.46452  290  1.48176  304  -2.0  100   -2.0  182   0     972.6    NA       0.0000   9999     520   1970  0    
2019/11/16  16:00:00  BASE  0.7644   294  1.48176  304  -2.0  100   -2.0  178   0     972.6    NA       0.0000   9999     590   1970  0    
2019/11/16  16:01:00  BASE  0.83496  303  1.48176  304  -2.0  100   -2.0  176   0     972.6    NA       0.0000   9999     560   1970  0    
2019/11/16  16:02:00  BASE  0.8526   314  1.21128  276  -2.0  100   -2.0  183   0     972.7    NA       0.0000   9999     520   1970  0    
2019/11/16  16:03:00  BASE  0.86436  312  1.24068  311  -2.0  100   -2.0  183   0     972.7    NA       0.0000   9999     490   2000  0    
2019/11/16  16:04:00  BASE  0.79968  300  1.24068  311  -2.0  100   -2.0  185   0     972.7    NA       0.0000   9999     490   1970  0    
2019/11/16  16:05:00  BASE  0.84672  298  1.24068  311  -2.0  100   -2.0  185   0     972.7    NA       0.0000   9999     490   2000  0    
2019/11/16  16:06:00  BASE  1.00548  299  1.24068  311  -2.0  100   -2.0  186   0     972.7    NA       0.0000   9999     590   2000  0    
2019/11/16  16:07:00  BASE  0.8526   300  1.24068  311  -2.0  100   -2.0  188   0     972.7    NA       0.0000   9999     590   0     0    
2019/11/16  16:08:00  BASE  0.7056   299  1.24068  311  -1.9  100   -1.9  193   0     972.7    NA       0.0000   9999     590   1970  0    
2019/11/16  16:09:00  BASE  0.88788  296  1.24068  311  -1.9  100   -1.9  203   0     972.7    NA       0.0000   9999     590   2000  0    
2019/11/16  16:10:00  BASE  0.89376  301  1.24068  311  -2.0  100   -2.0  206   0     972.7    NA       0.0000   9999     590   0     0    
2019/11/16  16:11:00  BASE  0.84084  300  1.24068  311  -1.9  100   -1.9  210   0     972.7    NA       0.0000   9999     560   0     0    
2019/11/16  16:12:00  BASE  1.02312  293  1.24068  306  -1.9  100   -1.9  214   0     972.7    NA       0.0000   9999     520   0     0    
2019/11/16  16:13:00  BASE  1.15836  299  1.24068  299  -2.0  100   -2.0  219   0     972.7    NA       0.0000   9999     560   1970  0    
2019/11/16  16:14:00  BASE  1.06428  306  1.24068  299  -2.0  100   -2.0  228   0     972.7    NA       0.0000   9999     560   1900  0    
2019/11/16  16:15:00  BASE  0.90552  301  1.24068  299  -1.9  100   -1.9  233   0     972.7    NA       0.0000   9999     560   1900  0    
2019/11/16  16:16:00  BASE  0.90552  297  1.24068  289  -2.0  100   -2.0  236   0     972.7    NA       0.0000   9999     560   0     0    
2019/11/16  16:17:00  BASE  1.18188  298  1.54056  304  -2.0  100   -2.0  239   0     972.7    NA       0.0000   9999     560   0     0    
2019/11/16  16:18:00  BASE  1.22304  303  1.54056  310  -2.0  100   -2.0  250   0     972.7    NA       0.0000   9999     520   0     0    
2019/11/16  16:19:00  BASE  1.029    309  1.54056  310  -1.9  100   -1.9  255   0     972.7    NA       0.0000   9999     520   0     0    
2019/11/16  16:20:00  BASE  1.05252  303  1.54056  310  -1.9  100   -1.9  254   0     972.8    NA       0.0000   9999     520   0     0    
2019/11/16  16:21:00  BASE  1.21128  294  1.54056  310  -1.9  100   -1.9  253   0     972.8    NA       0.0000   9999     490   0     0    
2019/11/16  16:22:00  BASE  1.28772  292  1.57584  287  -1.9  100   -1.9  248   0     972.8    NA       0.0000   9999     490   0     0    
2019/11/16  16:23:00  BASE  1.32888  288  1.75224  270  -1.8  100   -1.8  247   0     972.8    NA       0.0000   9999     460   0     0    
2019/11/16  16:24:00  BASE  1.37004  271  1.81692  254  -1.9  100   -1.9  246   0     972.8    NA       0.0000   9999     460   0     0    
2019/11/16  16:25:00  BASE  1.32888  260  1.81692  254  -2.0  100   -2.0  245   0     972.8    NA       0.0000   9999     460   0     0    
2019/11/16  16:26:00  BASE  1.43472  260  2.0286   245  -2.1  100   -2.1  243   0     972.8    NA       0.0000   9999     460   0     0    
2019/11/16  16:27:00  BASE  1.66992  257  2.0286   245  -2.2  100   -2.2  241   0     972.8    NA       0.0000   9999     390   0     0    
2019/11/16  16:28:00  BASE  1.7934   257  2.1168   264  -2.3  100   -2.3  244   0     972.8    NA       0.0000   9999     430   0     0    
2019/11/16  16:29:00  BASE  1.76988  254  2.1168   264  -2.3  100   -2.3  241   0     972.9    NA       0.0000   9999     430   0     0    
2019/11/16  16:30:00  BASE  1.7346   257  2.1168   264  -2.3  100   -2.3  237   0     972.9    NA       0.0000   9999     430   0     0    
2019/11/16  16:31:00  BASE  1.65816  263  2.1168   264  -2.4  100   -2.4  233   0     972.9    NA       0.0000   9999     430   22640 0    
2019/11/16  16:32:00  BASE  1.52292  264  2.1168   264  -2.3  100   -2.3  230   0     972.9    NA       0.0000   9999     430   0     0    
2019/11/16  16:33:00  BASE  1.56408  265  2.1168   264  -2.3  100   -2.3  227   0     972.9    NA       0.0000   9999     390   0     0    
2019/11/16  16:34:00  BASE  1.58172  265  2.1168   264  -2.3  100   -2.3  227   0     972.9    NA       0.0000   9999     430   0     0    
2019/11/16  16:35:00  BASE  1.45824  264  2.1168   264  -2.3  100   -2.3  230   0     972.9    NA       0.0000   9999     390   0     0    
2019/11/16  16:36:00  BASE  1.62876  253  2.1168   264  -2.4  100   -2.4  229   0     972.9    NA       0.0000   9999     430   0     0    
2019/11/16  16:37:00  BASE  1.72284  244  2.1168   264  -2.4  100   -2.4  230   0     972.9    NA       0.0000   9999     390   0     0    
2019/11/16  16:38:00  BASE  1.5582   242  2.0874   261  -2.4  100   -2.4  233   0     972.9    NA       0.0000   9999     390   0     0    
2019/11/16  16:39:00  BASE  1.51116  239  2.0874   261  -2.4  100   -2.4  235   0     972.9    NA       0.0000   9999     390   0     0    
2019/11/16  16:40:00  BASE  1.54644  232  2.0286   251  -2.4  100   -2.4  234   0     972.9    NA       0.0000   7000     390   0     0    
2019/11/16  16:41:00  BASE  1.58172  232  2.0286   251  -2.4  100   -2.4  235   0     972.8    NA       0.0000   UP       BR    6000  360  
2019/11/16  16:42:00  BASE  1.61112  234  2.0286   251  -2.4  100   -2.4  235   0     972.9    NA       0.0000   UP       BR    7000  390  
2019/11/16  16:43:00  BASE  1.74636  228  2.0286   225  -2.4  100   -2.4  235   0     972.9    NA       0.0000   UP       BR    6000  360  
2019/11/16  16:44:00  BASE  1.72872  228  2.0286   225  -2.4  100   -2.4  236   0     972.9    NA       0.0000   UP       BR    7000  360  
2019/11/16  16:45:00  BASE  1.78752  229  2.058    230  -2.4  100   -2.4  237   0     972.9    NA       0.0000   UP       BR    4500  360  
2019/11/16  16:46:00  BASE  2.01684  230  2.21088  236  -2.4  100   -2.4  242   0     972.9    NA       0.0000   UP       BR    5000  360  
2019/11/16  16:47:00  BASE  1.95216  230  2.21088  236  -2.5  100   -2.5  245   0     972.9    NA       0.0000   UP       BR    4800  330  
2019/11/16  16:48:00  BASE  1.764    230  2.21088  236  -2.5  100   -2.5  250   0     972.9    NA       0.0000   UP       BR    6000  300  
2019/11/16  16:49:00  BASE  1.617    230  2.21088  236  -2.5  100   -2.5  251   0     972.9    NA       0.0000   UP       BR    9999  300  
2019/11/16  16:50:00  BASE  1.63464  229  2.21088  236  -2.6  100   -2.6  254   0     972.9    NA       0.0000   UP       BR    9999  260  
2019/11/16  16:51:00  BASE  1.72284  229  2.21088  236  -2.6  100   -2.6  257   0     972.9    NA       0.0000   UP       BR    9999  330  
2019/11/16  16:52:00  BASE  1.65228  228  2.21088  236  -2.6  100   -2.6  261   0     972.9    NA       0.0000   UP       BR    9999  260  
2019/11/16  16:53:00  BASE  1.4994   226  2.21088  236  -2.5  100   -2.5  264   0     972.9    NA       0.0000   UP       BR    9999  260  
2019/11/16  16:54:00  BASE  1.47     227  2.21088  236  -2.5  100   -2.5  265   0     972.9    NA       0.0000   UP       BR    3800  260  
2019/11/16  16:55:00  BASE  1.53468  225  2.21088  236  -2.5  100   -2.5  262   0     972.9    NA       0.0000   UP       BR    4100  300  
2019/11/16  16:56:00  BASE  1.57584  222  1.93452  231  -2.5  100   -2.5  258   0     972.9    NA       0.0000   UP       BR    3500  300  
2019/11/16  16:57:00  BASE  1.55232  221  1.90512  229  -2.5  100   -2.5  254   0     972.9    NA       0.0000   UP       BR    3600  300  
2019/11/16  16:58:00  BASE  1.51704  221  1.90512  229  -2.4  100   -2.4  252   0     972.9    NA       0.0000   UP       BR    3700  260  
2019/11/16  16:59:00  BASE  1.5876   221  1.90512  229  -2.5  100   -2.5  250   0     972.9    NA       0.0000   UP       BR    3300  300  
2019/11/16  17:00:00  BASE  1.49352  218  1.90512  229  -2.5  100   -2.5  247   0     972.9    NA       0.0000   UP       BR    3500  300  
2019/11/16  17:01:00  BASE  1.34064  210  1.75224  223  -2.4  100   -2.4  246   0     972.9    NA       0.0000   UP       BR    3400  300  
2019/11/16  17:02:00  BASE  1.36416  204  1.75224  223  -2.4  100   -2.4  244   0     972.9    NA       0.0000   UP       BR    4000  330  
2019/11/16  17:03:00  BASE  1.41708  206  1.75224  223  -2.4  100   -2.4  244   0     972.9    NA       0.0000   UP       BR    3900  330  
2019/11/16  17:04:00  BASE  1.45824  210  1.75224  223  -2.4  100   -2.4  245   0     972.9    NA       0.0000   UP       BR    3400  330  
2019/11/16  17:05:00  BASE  1.5582   213  1.81692  217  -2.4  100   -2.4  245   0     972.9    NA       0.0000   UP       BR    3600  330  
2019/11/16  17:06:00  BASE  1.66992  213  1.81692  217  -2.4  100   -2.4  247   0     972.9    NA       0.0000   UP       BR    3700  300  
2019/11/16  17:07:00  BASE  1.63464  210  1.81692  217  -2.4  100   -2.4  248   0     972.9    NA       0.0000   UP       BR    3800  300  
2019/11/16  17:08:00  BASE  1.59348  204  1.81692  217  -2.4  100   -2.4  249   0     972.9    NA       0.0000   UP       BR    4300  330  
2019/11/16  17:09:00  BASE  1.6464   200  1.81692  217  -2.5  100   -2.5  251   0     972.9    NA       0.0000   UP       BR    9999  300  
2019/11/16  17:10:00  BASE  1.68756  200  1.87572  212  -2.5  100   -2.5  254   0     972.9    NA       0.0000   UP       BR    9999  300  
2019/11/16  17:11:00  BASE  1.69344  204  1.87572  206  -2.5  100   -2.5  256   0     972.9    NA       0.0000   UP       BR    9999  300  
2019/11/16  17:12:00  BASE  1.63464  209  1.87572  206  -2.5  100   -2.5  259   0     972.9    NA       0.0000   UP       BR    9999  300  
2019/11/16  17:13:00  BASE  1.5288   201  1.87572  206  -2.5  100   -2.5  261   0     972.9    NA       0.0000   UP       BR    9999  260  
2019/11/16  17:14:00  BASE  1.4994   195  1.87572  206  -2.5  100   -2.5  264   0     972.8    NA       0.0000   UP       BR    9999  260  
2019/11/16  17:15:00  BASE  1.40532  194  1.87572  206  -2.5  100   -2.5  268   0     972.9    NA       0.0000   UP       BR    9999  260  
2019/11/16  17:16:00  BASE  1.38768  199  1.87572  206  -2.5  100   -2.5  269   0     972.9    NA       0.0000   UP       BR    9999  260  
2019/11/16  17:17:00  BASE  1.61112  207  1.90512  210  -2.4  100   -2.4  270   0     972.9    NA       0.0000   UP       9999  300   850  
2019/11/16  17:18:00  BASE  1.83456  205  2.1462   212  -2.4  100   -2.4  274   0     972.9    NA       0.0000   UP       9999  300   850  
2019/11/16  17:19:00  BASE  1.82868  202  2.1462   212  -2.4  100   -2.4  275   0     972.9    NA       0.0000   UP       9999  300   0    
2019/11/16  17:20:00  BASE  1.89336  206  2.1756   207  -2.4  100   -2.4  266   0     972.9    NA       0.0000   UP       BR    2500  300  
2019/11/16  17:21:00  BASE  2.11092  203  2.32848  201  -2.4  100   -2.4  266   0     972.9    NA       0.0000   UP       BR    2700  300  
2019/11/16  17:22:00  BASE  2.18148  197  2.42256  196  -2.4  100   -2.4  266   0     972.9    NA       0.0000   UP       BR    2700  260  
2019/11/16  17:23:00  BASE  2.08152  200  2.42256  196  -2.5  100   -2.5  266   0     972.9    NA       0.0000   UP       BR    9999  230  
2019/11/16  17:24:00  BASE  2.02272  204  2.42256  196  -2.5  100   -2.5  264   0     972.9    NA       0.0000   UP       BR    9999  300  
2019/11/16  17:25:00  BASE  2.01096  200  2.42256  196  -2.5  100   -2.5  264   0     972.9    NA       0.0000   UP       BR    9999  260  
2019/11/16  17:26:00  BASE  1.82868  199  2.42256  196  -2.5  100   -2.5  262   0     972.9    NA       0.0000   -SN      BR    9999  230  
2019/11/16  17:27:00  BASE  1.65228  202  2.42256  196  -2.5  100   -2.5  261   0     972.9    NA       0.0000   -SN      BR    9999  260  
2019/11/16  17:28:00  BASE  1.77576  204  2.42256  196  -2.5  100   -2.5  258   0     972.9    NA       0.0000   -SN      BR    9999  260  
2019/11/16  17:29:00  BASE  1.95216  206  2.42256  196  -2.5  100   -2.5  259   0     972.9    NA       0.0000   -SN      BR    9000  200  
2019/11/16  17:30:00  BASE  1.93452  210  2.42256  196  -2.5  100   -2.5  259   0     972.9    NA       0.0000   -SN      BR    3600  260  
2019/11/16  17:31:00  BASE  2.00508  215  2.42256  196  -2.5  100   -2.5  261   0     972.9    NA       0.0000   -SN      BR    5000  230  
2019/11/16  17:32:00  BASE  2.22264  215  2.56956  207  -2.5  100   -2.5  264   0     972.8    NA       0.0000   -SN      BR    4800  0    
2019/11/16  17:33:00  BASE  2.13444  206  2.56956  207  -2.5  100   -2.5  270   0     972.8    NA       0.0000   -SN      BR    4800  0    
2019/11/16  17:34:00  BASE  1.9404   203  2.56956  207  -2.5  100   -2.5  276   0     972.8    NA       0.0000   -SN      BR    9999  230  
2019/11/16  17:35:00  BASE  1.92864  204  2.56956  207  -2.5  100   -2.5  281   0     972.8    NA       0.0000   -SN      BR    9999  260  
2019/11/16  17:36:00  BASE  1.93452  205  2.56956  207  -2.5  100   -2.5  288   0     972.8    NA       0.0000   -SN      BR    9999  260  
2019/11/16  17:37:00  BASE  2.01096  206  2.56956  207  -2.5  100   -2.5  290   0     972.8    NA       0.0000   -SN      BR    9999  230  
2019/11/16  17:38:00  BASE  2.08152  204  2.56956  207  -2.5  100   -2.5  293   0     972.8    NA       0.0000   -SN      BR    9999  260  
2019/11/16  17:39:00  BASE  2.1756   200  2.56956  207  -2.5  100   -2.5  293   0     972.8    NA       0.0000   -SN      BR    5000  260  
2019/11/16  17:40:00  BASE  2.1168   200  2.56956  207  -2.4  100   -2.4  295   0     972.8    NA       0.0000   -SN      BR    9999  260  
2019/11/16  17:41:00  BASE  2.03448  201  2.56956  207  -2.4  100   -2.4  296   0     972.8    NA       0.0000   -SN      BR    9999  300  
2019/11/16  17:42:00  BASE  2.04036  199  2.48136  192  -2.4  100   -2.4  290   0     972.8    NA       0.0000   -SN      9999  300   0    
2019/11/16  17:43:00  BASE  1.88748  201  2.48136  192  -2.5  100   -2.5  283   0     972.8    NA       0.0000   -SN      9999  300   0    
2019/11/16  17:44:00  BASE  1.80516  196  2.48136  192  -2.4  100   -2.4  277   0     972.8    NA       0.0000   -SN      9999  330   0    
2019/11/16  17:45:00  BASE  1.85808  188  2.48136  192  -2.4  100   -2.4  280   0     972.7    NA       0.0000   -SN      9000  300   0    
2019/11/16  17:46:00  BASE  1.71108  183  2.48136  192  -2.5  100   -2.5  273   0     972.8    NA       0.0000   -SN      9000  300   0    
2019/11/16  17:47:00  BASE  1.5288   184  2.48136  192  -2.5  100   -2.5  272   0     972.8    NA       0.0000   -SN      9000  300   0    
2019/11/16  17:48:00  BASE  1.5288   191  2.48136  192  -2.4  100   -2.4  269   0     972.8    NA       0.0000   -SN      9000  330   0    
2019/11/16  17:49:00  BASE  1.5582   186  2.32848  200  -2.4  100   -2.4  269   0     972.7    NA       0.0000   -SN      9000  330   0    
2019/11/16  17:50:00  BASE  1.617    181  2.32848  200  -2.5  100   -2.5  277   0     972.8    NA       0.0000   -SN      9000  330   0    
2019/11/16  17:51:00  BASE  1.62876  182  2.1756   188  -2.4  100   -2.4  275   0     972.8    NA       0.0000   -SN      8000  330   0    
2019/11/16  17:52:00  BASE  1.53468  179  2.1756   188  -2.4  100   -2.4  273   0     972.8    NA       0.0000   -SN      BR    6000  330  
2019/11/16  17:53:00  BASE  1.59348  173  2.1756   188  -2.4  100   -2.4  279   0     972.8    NA       0.0000   -SN      BR    5000  300  
2019/11/16  17:54:00  BASE  1.62876  167  2.0874   184  -2.4  100   -2.4  284   0     972.8    NA       0.0000   -SN      BR    3800  330  
2019/11/16  17:55:00  BASE  1.5876   171  1.9992   183  -2.4  100   -2.4  282   0     972.9    NA       0.0000   -SN      BR    3800  330  
2019/11/16  17:56:00  BASE  1.48764  180  1.9992   183  -2.4  100   -2.4  281   0     972.9    NA       0.0000   -SN      BR    9999  330  
2019/11/16  17:57:00  BASE  1.28772  181  1.9992   183  -2.5  100   -2.5  286   0     972.9    NA       0.0000   -SN      BR    9999  330  
2019/11/16  17:58:00  BASE  1.21128  191  1.9992   183  -2.5  100   -2.5  285   0     972.8    NA       0.0000   -SN      BR    9999  330  
2019/11/16  17:59:00  BASE  1.31712  208  1.9992   183  -2.5  100   -2.5  284   0     972.9    NA       0.0000   -SN      BR    9999  360  
2019/11/16  18:00:00  BASE  1.58172  215  1.9992   183  -2.5  100   -2.5  284   0     972.9    NA       0.0000   -SN      BR    9999  330  
2019/11/16  18:01:00  BASE  1.7052   214  1.9992   214  -2.5  100   -2.5  282   0     972.9    NA       0.0000   -SN      BR    9999  360  
2019/11/16  18:02:00  BASE  1.5288   214  1.9992   214  -2.5  100   -2.5  285   0     972.9    NA       0.0000   -SN      BR    9999  360  
2019/11/16  18:03:00  BASE  1.51704  208  1.9992   214  -2.5  100   -2.5  289   0     972.9    NA       0.0000   -SN      BR    9999  360  
2019/11/16  18:04:00  BASE  1.51116  205  1.9992   214  -2.5  100   -2.5  294   0     972.9    NA       0.0000   -SN      9999  360   0    
2019/11/16  18:05:00  BASE  1.48176  214  1.9992   214  -2.5  100   -2.5  299   0     972.9    NA       0.0000   -SN      9000  360   0    
2019/11/16  18:06:00  BASE  1.6464   216  1.9992   214  -2.5  100   -2.5  305   0     972.9    NA       0.0000   -SN      9000  330   0    
2019/11/16  18:07:00  BASE  1.69932  213  1.9992   217  -2.5  100   -2.5  313   0     972.9    NA       0.0000   -SN      9999  300   0    
2019/11/16  18:08:00  BASE  1.764    219  2.0286   226  -2.5  100   -2.5  320   0     972.9    NA       0.0000   -SN      9999  300   0    
2019/11/16  18:09:00  BASE  1.81692  222  2.0286   226  -2.5  100   -2.5  328   0     972.9    NA       0.0000   -SN      9000  300   0    
2019/11/16  18:10:00  BASE  1.71696  220  2.0286   226  -2.5  100   -2.5  351   0     972.9    NA       0.0000   -SN      9999  300   0    
2019/11/16  18:11:00  BASE  1.72872  219  2.0286   226  -2.5  100   -2.5  362   0     972.9    NA       0.0000   -SN      9999  300   0    
2019/11/16  18:12:00  BASE  1.88748  215  2.1462   205  -2.5  100   -2.5  370   0     972.9    NA       0.0000   -SN      9999  330   0    
2019/11/16  18:13:00  BASE  1.9404   207  2.1462   205  -2.5  100   -2.5  377   0     972.9    NA       0.0000   -SN      BR    9999  360  
2019/11/16  18:14:00  BASE  1.80516  202  2.1462   205  -2.5  100   -2.5  382   0     972.9    NA       0.0000   -SN      BR    9999  360  
2019/11/16  18:15:00  BASE  1.7934   201  2.21088  200  -2.4  100   -2.4  365   0     972.9    NA       0.0000   -SN      9999  360   0    
2019/11/16  18:16:00  BASE  1.91688  201  2.21088  200  -2.4  100   -2.4  388   0     972.9    NA       0.0000   -SN      9999  390   0    
2019/11/16  18:17:00  BASE  1.84044  202  2.21088  200  -2.4  100   -2.4  443   0     972.9    NA       0.0000   -SN      9999  360   19750
2019/11/16  18:18:00  BASE  1.72872  198  2.21088  200  -2.4  100   -2.4  505   0     972.9    NA       0.0000   -SN      BR    5000  330  
2019/11/16  18:19:00  BASE  1.72284  195  2.21088  200  -2.4  100   -2.4  526   0     972.8    NA       0.0000   -SN      BR    3200  330  
2019/11/16  18:20:00  BASE  1.65228  200  2.21088  200  -2.4  100   -2.4  540   0     972.8    NA       0.0000   -SN      BR    2500  330  
2019/11/16  18:21:00  BASE  1.62288  207  2.21088  200  -2.4  100   -2.4  554   0     972.9    NA       0.0000   -SN      BR    9999  330  
2019/11/16  18:22:00  BASE  1.5876   204  2.21088  200  -2.4  100   -2.4  569   0     972.9    NA       0.0000   -SN      BR    9000  330  
2019/11/16  18:23:00  BASE  1.54644  200  2.21088  200  -2.3  100   -2.3  593   0     972.8    NA       0.0000   -SN      BR    9000  300  
2019/11/16  18:24:00  BASE  1.617    199  2.21088  200  -2.3  100   -2.3  596   0     972.8    NA       0.0000   -SN      BR    9000  300  
2019/11/16  18:25:00  BASE  1.53468  202  2.0874   207  -2.3  100   -2.3  594   0     972.8    NA       0.0000   -SN      BR    9999  330  
2019/11/16  18:26:00  BASE  1.4112   203  1.93452  195  -2.3  100   -2.3  619   0     972.8    NA       0.0000   -SN      BR    9000  330  
2019/11/16  18:27:00  BASE  1.41708  201  1.93452  195  -2.3  100   -2.3  600   0     972.8    NA       0.0000   -SN      BR    9999  330  
2019/11/16  18:28:00  BASE  1.47     205  1.90512  201  -2.3  100   -2.3  598   0     972.8    NA       0.0000   -SN      BR    9999  330  
2019/11/16  18:29:00  BASE  1.43472  208  1.90512  201  -2.3  100   -2.3  595   0     972.8    NA       0.0000   -SN      BR    9000  300  
2019/11/16  18:30:00  BASE  1.4406   202  1.90512  201  -2.2  100   -2.2  576   0     972.8    NA       0.0000   -SN      BR    9999  330  
2019/11/16  18:31:00  BASE  1.50528  192  1.90512  201  -2.3  100   -2.3  543   0     972.8    NA       0.0000   -SN      BR    8000  300  
2019/11/16  18:32:00  BASE  1.47     184  1.90512  201  -2.3  100   -2.3  545   0     972.8    NA       0.0000   -SN      BR    9000  300  
2019/11/16  18:33:00  BASE  1.43472  184  1.90512  201  -2.3  100   -2.3  534   0     972.8    NA       0.0000   -SN      BR    9000  330  
2019/11/16  18:34:00  BASE  1.4112   190  1.81692  196  -2.2  100   -2.2  540   0     972.9    NA       0.0000   -SN      BR    8000  330  
2019/11/16  18:35:00  BASE  1.3818   189  1.81692  196  -2.2  100   -2.2  515   0     972.9    NA       0.0000   -SN      BR    9000  300  
2019/11/16  18:36:00  BASE  1.323    186  1.81692  196  -2.2  100   -2.2  506   0     972.9    NA       0.0000   -SN      BR    9999  330  
2019/11/16  18:37:00  BASE  1.11132  194  1.81692  196  -2.1  100   -2.1  488   0     972.9    NA       0.0000   -SN      BR    9000  330  
2019/11/16  18:38:00  BASE  0.99372  205  1.81692  196  -2.1  100   -2.1  459   0     972.9    NA       0.0000   -SN      BR    9000  330  
2019/11/16  18:39:00  BASE  1.22304  212  1.81692  196  -2.2  100   -2.2  427   0     972.9    NA       0.0000   -SN      BR    6000  330  
2019/11/16  18:40:00  BASE  1.323    218  1.81692  196  -2.2  100   -2.2  406   0     972.9    NA       0.0000   -SN      BR    2600  330  
2019/11/16  18:41:00  BASE  1.24068  221  1.81692  196  -2.2  100   -2.2  398   0     972.9    NA       0.0000   -SN      BR    4300  360  
2019/11/16  18:42:00  BASE  1.2642   226  1.81692  196  -2.2  100   -2.2  400   0     972.9    NA       0.0000   -SN      BR    6000  390  
2019/11/16  18:43:00  BASE  1.39944  229  1.69344  230  -2.3  100   -2.3  408   0     972.9    NA       0.0000   -SN      BR    6000  360  
2019/11/16  18:44:00  BASE  1.3818   226  1.69344  230  -2.3  100   -2.3  427   0     972.9    NA       0.0000   -SN      BR    4500  360  
2019/11/16  18:45:00  BASE  1.18188  222  1.69344  230  -2.3  100   -2.3  454   0     972.9    NA       0.0000   -SN      BR    9000  360  
2019/11/16  18:46:00  BASE  1.22304  219  1.69344  230  -2.3  100   -2.3  475   0     972.9    NA       0.0000   -SN      BR    7000  360  
2019/11/16  18:47:00  BASE  1.34064  218  1.69344  230  -2.3  100   -2.3  478   0     972.9    NA       0.0000   -SN      BR    9999  390  
2019/11/16  18:48:00  BASE  1.4994   216  1.78752  219  -2.2  100   -2.2  491   0     972.9    NA       0.0000   -SN      BR    9999  390  
2019/11/16  18:49:00  BASE  1.50528  211  1.78752  219  -2.2  100   -2.2  510   0     972.9    NA       0.0000   -SN      BR    9999  390  
2019/11/16  18:50:00  BASE  1.38768  205  1.78752  219  -2.2  100   -2.2  525   0     972.9    NA       0.0000   -SN      BR    9999  390  
2019/11/16  18:51:00  BASE  1.45236  202  1.78752  219  -2.2  100   -2.2  530   0     972.9    NA       0.0000   -SN      BR    9999  460  
2019/11/16  18:52:00  BASE  1.42884  203  1.78752  219  -2.2  100   -2.2  505   0     972.9    NA       0.0000   -SN      BR    9999  430  
2019/11/16  18:53:00  BASE  1.51704  202  1.81692  204  -2.2  100   -2.2  490   0     972.9    NA       0.0000   -SN      9999  490   1900 
2019/11/16  18:54:00  BASE  1.56408  200  1.81692  204  -2.2  100   -2.2  477   0     972.9    NA       0.0000   -SN      9999  460   1870 
2019/11/16  18:55:00  BASE  1.3524   200  1.81692  204  -2.1  100   -2.1  452   0     972.9    NA       0.0000   -SN      9999  520   1900 
2019/11/16  18:56:00  BASE  1.2936   207  1.81692  204  -2.1  100   -2.1  421   0     972.9    NA       0.0000   -SN      9999  520   1900 
2019/11/16  18:57:00  BASE  1.45824  216  1.81692  204  -2.1  100   -2.1  396   0     972.9    NA       0.0000   -SN      9999  460   1870 
2019/11/16  18:58:00  BASE  1.5876   220  1.81692  223  -2.1  100   -2.1  383   0     972.9    NA       0.0000   -SN      9999  460   0    
2019/11/16  18:59:00  BASE  1.66404  221  1.81692  220  -2.1  100   -2.1  382   0     972.9    NA       0.0000   -SN      9999  430   23000
2019/11/16  19:00:00  BASE  1.69932  219  1.81692  224  -2.1  100   -2.1  390   0     972.9    NA       0.0000   -SN      9999  430   0    
2019/11/16  19:01:00  BASE  1.59348  216  1.81692  224  -2.1  100   -2.1  406   0     972.9    NA       0.0000   9999     430   0     0    
2019/11/16  19:02:00  BASE  1.51116  215  1.81692  224  -2.1  100   -2.1  425   0     972.9    NA       0.0000   9999     460   0     0    
2019/11/16  19:03:00  BASE  1.62288  214  1.81692  201  -2.1  100   -2.1  449   0     972.9    NA       0.0000   9999     460   1900  0    
2019/11/16  19:04:00  BASE  1.77576  216  2.0286   225  -2.1  100   -2.1  463   0     973.0    NA       0.0000   9999     430   1900  0    
2019/11/16  19:05:00  BASE  1.78164  224  2.0286   225  -2.1  100   -2.1  449   0     973.0    NA       0.0000   9999     460   1840  0    
2019/11/16  19:06:00  BASE  1.66992  225  2.0286   215  -2.1  100   -2.1  430   0     973.0    NA       0.0000   9999     490   0     0    
2019/11/16  19:07:00  BASE  1.65816  214  2.1462   205  -2.1  100   -2.1  423   0     972.9    NA       0.0000   9999     390   0     0    
2019/11/16  19:08:00  BASE  1.63464  211  2.1462   205  -2.1  100   -2.1  417   0     973.0    NA       0.0000   9999     430   0     0    
2019/11/16  19:09:00  BASE  1.66992  212  2.1462   205  -2.1  100   -2.1  405   0     973.0    NA       0.0000   9999     460   0     0    
2019/11/16  19:10:00  BASE  1.68168  202  2.1462   205  -2.1  100   -2.1  394   0     973.0    NA       0.0000   9999     430   0     0    
2019/11/16  19:11:00  BASE  1.56408  200  2.1462   205  -2.1  100   -2.1  386   0     973.0    NA       0.0000   9999     490   0     0    
2019/11/16  19:12:00  BASE  1.48764  211  2.1462   205  -2.1  100   -2.1  379   0     973.0    NA       0.0000   9999     520   0     0    
2019/11/16  19:13:00  BASE  1.51116  214  2.1462   205  -2.2  100   -2.2  375   0     973.0    NA       0.0000   9999     560   0     0    
2019/11/16  19:14:00  BASE  1.59348  207  2.1462   205  -2.2  100   -2.2  378   0     973.0    NA       0.0000   9999     560   0     0    
2019/11/16  19:15:00  BASE  1.56408  200  2.1462   205  -2.2  100   -2.2  376   0     973.0    NA       0.0000   9999     560   0     0    
2019/11/16  19:16:00  BASE  1.56408  198  2.1462   205  -2.2  100   -2.2  363   0     973.0    NA       0.0000   9999     560   0     0    
2019/11/16  19:17:00  BASE  1.5582   198  1.96392  204  -2.2  100   -2.2  356   0     973.0    NA       0.0000   9999     560   0     0    
2019/11/16  19:18:00  BASE  1.50528  195  1.96392  204  -2.2  100   -2.2  355   0     973.0    NA       0.0000   9999     560   0     0    
2019/11/16  19:19:00  BASE  1.51116  194  1.87572  208  -2.2  100   -2.2  361   0     973.0    NA       0.0000   9999     560   16830 0    
2019/11/16  19:20:00  BASE  1.5288   197  1.87572  208  -2.2  100   -2.2  368   0     973.0    NA       0.0000   9999     460   0     0    
2019/11/16  19:21:00  BASE  1.54644  200  1.87572  208  -2.2  100   -2.2  369   0     973.0    NA       0.0000   -SN      9999  430   0    
2019/11/16  19:22:00  BASE  1.60524  201  1.9992   200  -2.2  100   -2.2  356   0     973.0    NA       0.0000   -SN      9999  460   0    
2019/11/16  19:23:00  BASE  1.65816  204  1.9992   200  -2.2  100   -2.2  339   0     973.0    NA       0.0000   -SN      9999  490   0    
2019/11/16  19:24:00  BASE  1.62288  203  1.9992   200  -2.2  100   -2.2  328   0     973.0    NA       0.0000   -SN      9999  490   0    
2019/11/16  19:25:00  BASE  1.47     200  1.9992   200  -2.2  100   -2.2  324   0     973.0    NA       0.0000   -SN      9999  460   0    
2019/11/16  19:26:00  BASE  1.54644  206  1.9992   200  -2.2  100   -2.2  319   0     973.0    NA       0.0000   -SN      9999  460   0    
2019/11/16  19:27:00  BASE  1.66404  207  1.9992   200  -2.2  100   -2.2  310   0     973.1    NA       0.0000   -SN      9999  460   0    
2019/11/16  19:28:00  BASE  1.68168  208  2.0286   217  -2.2  100   -2.2  303   0     973.2    NA       0.0000   -SN      9999  460   0    
2019/11/16  19:29:00  BASE  1.76988  211  2.0286   217  -2.2  100   -2.2  297   0     973.2    NA       0.0000   -SN      9999  460   0    
2019/11/16  19:30:00  BASE  1.65816  207  2.0286   217  -2.2  100   -2.2  290   0     973.2    NA       0.0000   -SN      9999  460   0    
2019/11/16  19:31:00  BASE  1.57584  209  2.0286   217  -2.2  100   -2.2  283   0     973.2    NA       0.0000   -SN      9999  460   0    
2019/11/16  19:32:00  BASE  1.51704  212  2.0286   217  -2.2  100   -2.2  274   0     973.2    NA       0.0000   -SN      9999  430   0    
2019/11/16  19:33:00  BASE  1.34064  210  2.0286   217  -2.2  100   -2.2  265   0     973.2    NA       0.0000   -SN      9999  460   0    
2019/11/16  19:34:00  BASE  1.22892  209  2.0286   217  -2.2  100   -2.2  259   0     973.2    NA       0.0000   -SN      9999  460   0    
2019/11/16  19:35:00  BASE  1.4406   212  2.0286   217  -2.2  100   -2.2  257   0     973.2    NA       0.0000   -SN      9999  460   0    
2019/11/16  19:36:00  BASE  1.60524  212  2.0286   217  -2.2  100   -2.2  260   0     973.2    NA       0.0000   -SN      9999  460   0    
2019/11/16  19:37:00  BASE  1.60524  208  2.0286   217  -2.2  100   -2.2  265   0     973.2    NA       0.0000   9999     430   0     0    
2019/11/16  19:38:00  BASE  1.56408  207  1.87572  210  -2.2  100   -2.2  270   0     973.2    NA       0.0000   9999     430   0     0    
2019/11/16  19:39:00  BASE  1.61112  211  2.0874   229  -2.2  100   -2.2  274   0     973.2    NA       0.0000   9999     430   0     0    
2019/11/16  19:40:00  BASE  1.75812  215  2.1168   213  -2.2  100   -2.2  273   0     973.2    NA       0.0000   9999     430   0     0    
2019/11/16  19:41:00  BASE  1.81692  214  2.1168   213  -2.2  100   -2.2  267   0     973.2    NA       0.0000   9999     390   0     0    
2019/11/16  19:42:00  BASE  1.80516  214  2.1168   213  -2.2  100   -2.2  260   0     973.2    NA       0.0000   9999     390   0     0    
2019/11/16  19:43:00  BASE  1.74048  212  2.1168   213  -2.2  100   -2.2  252   0     973.3    NA       0.0000   9999     430   0     0    
2019/11/16  19:44:00  BASE  1.74636  208  2.1168   213  -2.2  100   -2.2  246   0     973.3    NA       0.0000   9999     430   0     0    
2019/11/16  19:45:00  BASE  1.71108  206  2.1168   213  -2.2  100   -2.2  243   0     973.3    NA       0.0000   9999     430   0     0    
2019/11/16  19:46:00  BASE  1.7052   202  2.1168   213  -2.2  100   -2.2  244   0     973.3    NA       0.0000   9999     430   0     0    
2019/11/16  19:47:00  BASE  1.66992  205  2.1168   213  -2.3  100   -2.3  246   0     973.3    NA       0.0000   9999     430   0     0    
2019/11/16  19:48:00  BASE  1.75224  210  2.1168   213  -2.3  100   -2.3  249   0     973.3    NA       0.0000   9999     430   0     0    
2019/11/16  19:49:00  BASE  1.86396  208  2.1168   213  -2.3  100   -2.3  248   0     973.2    NA       0.0000   9999     430   0     0    
2019/11/16  19:50:00  BASE  1.65816  208  2.058    211  -2.4  100   -2.4  245   0     973.3    NA       0.0000   9999     430   0     0    
2019/11/16  19:51:00  BASE  1.617    212  1.9992   206  -2.4  100   -2.4  245   0     973.3    NA       0.0000   9999     430   0     0    
2019/11/16  19:52:00  BASE  1.6758   216  1.9992   206  -2.4  100   -2.4  248   0     973.3    NA       0.0000   9999     430   0     0    
2019/11/16  19:53:00  BASE  1.5876   213  1.9992   206  -2.4  100   -2.4  254   0     973.3    NA       0.0000   9999     430   0     0    
2019/11/16  19:54:00  BASE  1.57584  206  1.9992   206  -2.3  100   -2.3  261   0     973.3    NA       0.0000   9999     460   0     0    
2019/11/16  19:55:00  BASE  1.71108  205  2.0286   208  -2.3  100   -2.3  265   0     973.3    NA       0.0000   9999     460   0     0    
2019/11/16  19:56:00  BASE  1.81692  205  2.0286   208  -2.3  100   -2.3  260   0     973.3    NA       0.0000   9999     430   0     0    
2019/11/16  19:57:00  BASE  1.71696  208  2.0286   208  -2.4  100   -2.4  253   0     973.3    NA       0.0000   9999     460   0     0    
2019/11/16  19:58:00  BASE  1.68168  215  2.0286   208  -2.4  100   -2.4  248   0     973.3    NA       0.0000   9999     430   21950 0    
2019/11/16  19:59:00  BASE  1.77576  212  2.058    215  -2.4  100   -2.4  238   0     973.3    NA       0.0000   9999     430   0     0    
2019/11/16  20:00:00  BASE  1.60524  206  2.058    215  -2.4  100   -2.4  228   0     973.3    NA       0.0000   9999     430   0     0    
2019/11/16  20:01:00  BASE  1.5288   202  2.058    215  -2.4  100   -2.4  222   0     973.3    NA       0.0000   9999     430   0     0    
2019/11/16  20:02:00  BASE  1.69344  200  2.058    215  -2.4  100   -2.4  221   0     973.3    NA       0.0000   9999     430   0     0    
2019/11/16  20:03:00  BASE  1.71108  200  2.058    215  -2.4  100   -2.4  222   0     973.3    NA       0.0000   9999     390   0     0    
2019/11/16  20:04:00  BASE  1.7346   199  2.058    215  -2.4  100   -2.4  224   0     973.3    NA       0.0000   9999     430   0     0    
2019/11/16  20:05:00  BASE  1.80516  192  2.058    215  -2.4  100   -2.4  225   0     973.3    NA       0.0000   9999     430   0     0    
2019/11/16  20:06:00  BASE  1.764    183  2.058    215  -2.4  100   -2.4  226   0     973.2    NA       0.0000   9999     430   0     0    
2019/11/16  20:07:00  BASE  1.77576  180  2.32848  191  -2.4  100   -2.4  226   0     973.2    NA       0.0000   9999     430   0     0    
2019/11/16  20:08:00  BASE  1.92864  183  2.32848  188  -2.4  100   -2.4  227   0     973.3    NA       0.0000   9999     430   0     0    
2019/11/16  20:09:00  BASE  1.69932  181  2.32848  188  -2.5  100   -2.5  229   0     973.3    NA       0.0000   9999     430   0     0    
2019/11/16  20:10:00  BASE  1.4112   180  2.32848  188  -2.5  100   -2.5  232   0     973.3    NA       0.0000   9999     430   0     0    
2019/11/16  20:11:00  BASE  1.4112   180  2.32848  188  -2.5  100   -2.5  236   0     973.3    NA       0.0000   9999     390   0     0    
2019/11/16  20:12:00  BASE  1.51116  181  2.32848  188  -2.5  100   -2.5  240   0     973.3    NA       0.0000   9999     390   0     0    
2019/11/16  20:13:00  BASE  1.60524  177  2.32848  188  -2.5  100   -2.5  245   0     973.3    NA       0.0000   9999     390   0     0    
2019/11/16  20:14:00  BASE  1.48764  170  2.32848  188  -2.5  100   -2.5  249   0     973.3    NA       0.0000   9999     430   0     0    
2019/11/16  20:15:00  BASE  1.42296  171  2.32848  188  -2.4  100   -2.4  252   0     973.3    NA       0.0000   9999     430   0     0    
2019/11/16  20:16:00  BASE  1.4994   180  2.32848  188  -2.4  100   -2.4  254   0     973.3    NA       0.0000   9999     430   21290 0    
2019/11/16  20:17:00  BASE  1.48176  175  2.32848  188  -2.4  100   -2.4  255   0     973.3    NA       0.0000   9999     430   0     0    
2019/11/16  20:18:00  BASE  1.40532  161  1.87572  174  -2.4  100   -2.4  254   0     973.3    NA       0.0000   9999     430   0     0    
2019/11/16  20:19:00  BASE  1.27596  158  1.87572  174  -2.4  100   -2.4  252   0     973.3    NA       0.0000   9999     430   0     0    
2019/11/16  20:20:00  BASE  1.22892  161  1.87572  174  -2.4  100   -2.4  248   0     973.3    NA       0.0000   9999     430   0     0    
2019/11/16  20:21:00  BASE  1.2642   165  1.87572  174  -2.4  100   -2.4  244   0     973.3    NA       0.0000   9999     430   0     0    
2019/11/16  20:22:00  BASE  1.24656  165  1.87572  174  -2.4  100   -2.4  241   0     973.3    NA       0.0000   9999     460   0     0    
2019/11/16  20:23:00  BASE  1.27008  160  1.69344  155  -2.4  100   -2.4  238   0     973.3    NA       0.0000   9999     460   0     0    
2019/11/16  20:24:00  BASE  1.2348   157  1.69344  155  -2.4  100   -2.4  236   0     973.1    NA       0.0000   9999     460   0     0    
2019/11/16  20:25:00  BASE  1.17012  164  1.69344  155  -2.4  100   -2.4  233   0     973.1    NA       0.0000   9999     460   0     0    
2019/11/16  20:26:00  BASE  1.1466   173  1.69344  155  -2.4  100   -2.4  228   0     973.1    NA       0.0000   9999     490   0     0    
2019/11/16  20:27:00  BASE  0.9996   174  1.51116  166  -2.4  100   -2.4  220   0     973.4    NA       0.0000   9999     490   0     0    
2019/11/16  20:28:00  BASE  0.81732  176  1.51116  166  -2.3  100   -2.3  213   0     973.4    NA       0.0000   9999     460   0     0    
2019/11/16  20:29:00  BASE  0.81144  183  1.51116  166  -2.3  100   -2.3  208   0     973.4    NA       0.0000   9999     460   0     0    
2019/11/16  20:30:00  BASE  0.79968  180  1.51116  166  -2.3  100   -2.3  205   0     973.4    NA       0.0000   9999     460   0     0    
2019/11/16  20:31:00  BASE  0.99372  171  1.45236  182  -2.3  100   -2.3  204   0     973.4    NA       0.0000   9999     490   0     0    
2019/11/16  20:32:00  BASE  1.2348   165  1.45236  182  -2.3  100   -2.3  204   0     973.4    NA       0.0000   9999     520   0     0    
2019/11/16  20:33:00  BASE  1.11132  161  1.45236  182  -2.4  100   -2.4  203   0     973.4    NA       0.0000   9999     560   0     0    
2019/11/16  20:34:00  BASE  1.09956  164  1.45236  182  -2.4  100   -2.4  203   0     973.4    NA       0.0000   9999     520   0     0    
2019/11/16  20:35:00  BASE  1.2642   174  1.48176  178  -2.4  100   -2.4  204   0     973.4    NA       0.0000   9999     520   0     0    
2019/11/16  20:36:00  BASE  1.51704  181  2.0286   184  -2.5  100   -2.5  205   0     973.3    NA       0.0000   9999     490   0     0    
2019/11/16  20:37:00  BASE  1.72872  178  2.058    178  -2.5  100   -2.5  206   0     973.3    NA       0.0000   9999     560   0     0    
2019/11/16  20:38:00  BASE  1.80516  176  2.058    182  -2.5  100   -2.5  206   0     973.3    NA       0.0000   9999     460   0     0    
2019/11/16  20:39:00  BASE  1.69932  176  2.058    182  -2.5  100   -2.5  205   0     973.3    NA       0.0000   9999     460   0     0    
2019/11/16  20:40:00  BASE  1.56996  176  2.058    182  -2.5  100   -2.5  202   0     973.3    NA       0.0000   9999     460   0     0    
2019/11/16  20:41:00  BASE  1.66404  175  2.058    182  -2.5  100   -2.5  197   0     973.3    NA       0.0000   9999     390   0     0    
2019/11/16  20:42:00  BASE  1.6758   169  2.058    182  -2.5  100   -2.5  193   0     973.3    NA       0.0000   9999     430   0     0    
2019/11/16  20:43:00  BASE  1.59348  167  2.058    182  -2.5  100   -2.5  188   0     973.3    NA       0.0000   9999     430   0     0    
2019/11/16  20:44:00  BASE  1.60524  173  2.058    182  -2.5  100   -2.5  184   0     973.3    NA       0.0000   9999     430   0     0    
2019/11/16  20:45:00  BASE  1.59936  176  2.058    182  -2.5  100   -2.5  180   0     973.3    NA       0.0000   9999     430   0     0    
2019/11/16  20:46:00  BASE  1.45824  170  2.058    182  -2.6  100   -2.6  176   0     973.3    NA       0.0000   9999     430   0     0    
2019/11/16  20:47:00  BASE  1.32888  163  2.058    182  -2.6  100   -2.6  173   0     973.3    NA       0.0000   9999     460   0     0    
2019/11/16  20:48:00  BASE  1.17012  162  1.96392  174  -2.6  100   -2.6  170   0     973.3    NA       0.0000   9999     460   0     0    
2019/11/16  20:49:00  BASE  1.07604  165  1.96392  174  -2.6  100   -2.6  167   0     973.3    NA       0.0000   9999     460   0     0    
2019/11/16  20:50:00  BASE  1.2642   169  1.96392  174  -2.6  100   -2.6  164   0     973.3    NA       0.0000   9999     460   0     0    
2019/11/16  20:51:00  BASE  1.34064  169  1.96392  174  -2.6  100   -2.6  162   0     973.3    NA       0.0000   9999     460   0     0    
2019/11/16  20:52:00  BASE  1.25244  177  1.96392  174  -2.5  100   -2.5  161   0     973.3    NA       0.0000   9999     460   0     0    
2019/11/16  20:53:00  BASE  1.21716  180  1.96392  174  -2.5  100   -2.5  159   0     973.3    NA       0.0000   9999     460   0     0    
2019/11/16  20:54:00  BASE  1.27008  167  1.57584  162  -2.6  100   -2.6  156   0     973.3    NA       0.0000   9999     460   0     0    
2019/11/16  20:55:00  BASE  1.27008  165  1.57584  162  -2.6  100   -2.6  153   0     973.3    NA       0.0000   9999     490   0     0    
2019/11/16  20:56:00  BASE  1.2936   173  1.75224  177  -2.6  100   -2.6  150   0     973.3    NA       0.0000   9999     490   1510  0    
2019/11/16  20:57:00  BASE  1.37004  168  1.75224  177  -2.6  100   -2.6  147   0     973.3    NA       0.0000   9999     460   1510  0    
2019/11/16  20:58:00  BASE  1.323    162  1.75224  177  -2.6  100   -2.6  144   0     973.3    NA       0.0000   9999     460   1510  0    
2019/11/16  20:59:00  BASE  1.32888  160  1.75224  177  -2.6  100   -2.6  142   0     973.2    NA       0.0000   9999     460   1540  0    
2019/11/16  21:00:00  BASE  1.45824  164  1.90512  171  -2.6  100   -2.6  140   0     973.2    NA       0.0000   9999     460   0     0    
2019/11/16  21:01:00  BASE  1.65816  162  2.0286   161  -2.6  100   -2.6  140   0     973.2    NA       0.0000   9999     430   0     0    
2019/11/16  21:02:00  BASE  1.69344  155  2.0286   161  -2.6  100   -2.6  139   0     973.2    NA       0.0000   9999     460   0     0    
2019/11/16  21:03:00  BASE  1.69344  156  2.0286   161  -2.6  100   -2.6  138   0     973.2    NA       0.0000   9999     460   0     0    
2019/11/16  21:04:00  BASE  1.77576  162  2.0874   175  -2.6  100   -2.6  137   0     973.2    NA       0.0000   9999     460   0     0    
2019/11/16  21:05:00  BASE  1.7934   170  2.0874   175  -2.6  100   -2.6  136   0     973.2    NA       0.0000   9999     430   0     0    
2019/11/16  21:06:00  BASE  1.90512  172  2.0874   168  -2.6  100   -2.6  135   0     973.3    NA       0.0000   9999     430   0     0    
2019/11/16  21:07:00  BASE  1.8522   173  2.0874   168  -2.6  100   -2.6  134   0     973.3    NA       0.0000   9999     430   0     0    
2019/11/16  21:08:00  BASE  1.71696  171  2.0874   168  -2.6  100   -2.6  135   0     973.3    NA       0.0000   9999     430   0     0    
2019/11/16  21:09:00  BASE  1.86396  164  2.1756   163  -2.6  100   -2.6  136   0     973.3    NA       0.0000   UP       9999  430   0    
2019/11/16  21:10:00  BASE  1.89924  163  2.1756   163  -2.6  100   -2.6  137   0     973.3    NA       0.0000   UP       9999  430   22770
2019/11/16  21:11:00  BASE  1.84044  154  2.21088  147  -2.6  100   -2.6  139   0     973.3    NA       0.0000   UP       9999  430   0    
2019/11/16  21:12:00  BASE  1.8816   145  2.21088  147  -2.6  100   -2.6  140   0     973.2    NA       0.0000   UP       9999  390   0    
2019/11/16  21:13:00  BASE  1.92276  142  2.29908  135  -2.6  100   -2.6  140   0     973.2    NA       0.0000   UP       9999  390   1800 
2019/11/16  21:14:00  BASE  1.85808  135  2.29908  135  -2.6  100   -2.6  139   0     973.2    NA       0.0000   UP       9999  430   1840 
2019/11/16  21:15:00  BASE  1.92864  134  2.29908  135  -2.6  100   -2.6  138   0     973.2    NA       0.0000   UP       9999  460   1800 
2019/11/16  21:16:00  BASE  2.01096  137  2.29908  135  -2.6  100   -2.6  138   0     973.2    NA       0.0000   UP       9999  460   1800 
2019/11/16  21:17:00  BASE  1.84632  142  2.29908  135  -2.6  100   -2.6  137   0     973.2    NA       0.0000   UP       9999  460   1800 
2019/11/16  21:18:00  BASE  1.82868  149  2.29908  135  -2.6  100   -2.6  137   0     973.2    NA       0.0000   UP       9999  490   1740 
2019/11/16  21:19:00  BASE  1.75812  153  2.29908  135  -2.6  100   -2.6  135   0     973.2    NA       0.0000   UP       9999  520   1480 
2019/11/16  21:20:00  BASE  1.71696  154  2.29908  135  -2.6  100   -2.6  134   0     973.2    NA       0.0000   9999     490   1440  0    
2019/11/16  21:21:00  BASE  1.8816   151  2.29908  135  -2.6  100   -2.6  133   0     973.2    NA       0.0000   9999     490   1350  0    
2019/11/16  21:22:00  BASE  1.84632  145  2.29908  135  -2.5  100   -2.5  134   0     973.2    NA       0.0000   9999     490   1350  0    
2019/11/16  21:23:00  BASE  1.78752  150  2.24028  151  -2.5  100   -2.5  136   0     973.2    NA       0.0000   9999     520   1350  0    
2019/11/16  21:24:00  BASE  1.99332  156  2.56956  153  -2.5  100   -2.5  139   0     973.2    NA       0.0000   9999     560   1350  0    
2019/11/16  21:25:00  BASE  2.31672  156  2.56956  153  -2.5  100   -2.5  141   0     973.2    NA       0.0000   9999     560   1310  0    
2019/11/16  21:26:00  BASE  2.36376  157  2.56956  153  -2.5  100   -2.5  143   0     973.2    NA       0.0000   9999     1350  2170  0    
2019/11/16  21:27:00  BASE  2.25204  162  2.56956  153  -2.5  100   -2.5  144   0     973.1    NA       0.0000   9999     1310  2200  0    
2019/11/16  21:28:00  BASE  2.34024  161  2.75184  159  -2.5  100   -2.5  145   0     973.1    NA       0.0000   UP       9999  590   1350 
2019/11/16  21:29:00  BASE  2.34024  157  2.75184  159  -2.5  100   -2.5  147   0     973.1    NA       0.0000   UP       9999  1350  2000 
2019/11/16  21:30:00  BASE  2.352    159  2.96352  164  -2.5  100   -2.5  150   0     973.0    NA       0.0000   UP       9999  1310  2070 
2019/11/16  21:31:00  BASE  2.62248  162  2.96352  164  -2.5  100   -2.5  153   0     973.0    NA       0.0000   UP       9999  1350  2070 
2019/11/16  21:32:00  BASE  2.6754   166  2.96352  164  -2.5  100   -2.5  156   0     973.0    NA       0.0000   UP       9999  1350  0    
2019/11/16  21:33:00  BASE  2.62836  163  3.02232  155  -2.5  100   -2.5  158   0     973.0    NA       0.0000   UP       9999  1350  1870 
2019/11/16  21:34:00  BASE  2.72832  160  3.2046   166  -2.5  100   -2.5  160   0     973.0    NA       0.0000   UP       9999  1350  1840 
2019/11/16  21:35:00  BASE  2.72832  157  3.2046   166  -2.5  100   -2.5  160   0     973.0    NA       0.0000   UP       9999  1380  1770 
2019/11/16  21:36:00  BASE  2.58132  150  3.2046   166  -2.5  100   -2.5  159   0     973.0    NA       0.0000   UP       9999  1410  1770 
2019/11/16  21:37:00  BASE  2.57544  151  3.2046   166  -2.5  100   -2.5  156   0     973.0    NA       0.0000   UP       9999  1410  0    
2019/11/16  21:38:00  BASE  2.62836  151  3.2046   166  -2.5  100   -2.5  152   0     973.0    NA       0.0000   9999     1410  0     0    
2019/11/16  21:39:00  BASE  2.62836  150  3.2046   166  -2.5  100   -2.5  148   0     973.1    NA       0.0000   9999     1410  0     0    
2019/11/16  21:40:00  BASE  2.47548  154  3.2046   166  -2.5  100   -2.5  144   0     973.1    NA       0.0000   9999     1410  0     0    
2019/11/16  21:41:00  BASE  2.4696   155  3.2046   166  -2.5  100   -2.5  140   0     973.2    NA       0.0000   9999     1410  1840  0    
2019/11/16  21:42:00  BASE  2.39316  155  3.2046   166  -2.5  100   -2.5  136   0     973.2    NA       0.0000   9999     460   1410  0    
2019/11/16  21:43:00  BASE  2.16972  161  3.2046   166  -2.5  100   -2.5  132   0     973.2    NA       0.0000   9999     1410  0     0    
2019/11/16  21:44:00  BASE  2.22852  161  2.90472  154  -2.5  100   -2.5  130   0     973.2    NA       0.0000   9999     1410  0     0    
2019/11/16  21:45:00  BASE  2.31672  161  2.90472  154  -2.5  100   -2.5  129   0     973.2    NA       0.0000   9999     430   1440  0    
2019/11/16  21:46:00  BASE  2.48724  168  2.90472  154  -2.5  100   -2.5  128   0     973.2    NA       0.0000   9999     1410  1840  0    
2019/11/16  21:47:00  BASE  2.646    167  2.90472  154  -2.5  100   -2.5  126   0     973.2    NA       0.0000   9999     1410  1800  0    
2019/11/16  21:48:00  BASE  2.65776  164  2.90472  154  -2.5  100   -2.5  124   0     973.2    NA       0.0000   9999     1410  1800  0    
2019/11/16  21:49:00  BASE  2.61072  164  2.87532  154  -2.5  100   -2.5  122   0     973.2    NA       0.0000   9999     1440  1800  0    
2019/11/16  21:50:00  BASE  2.46372  162  2.87532  154  -2.5  100   -2.5  120   0     973.2    NA       0.0000   9999     1440  1800  0    
2019/11/16  21:51:00  BASE  2.205    163  2.84592  168  -2.5  100   -2.5  117   0     973.3    NA       0.0000   9999     1440  1840  0    
2019/11/16  21:52:00  BASE  2.352    168  2.84592  161  -2.5  100   -2.5  114   0     973.3    NA       0.0000   9999     460   1440  0    
2019/11/16  21:53:00  BASE  2.61072  169  2.84592  161  -2.5  100   -2.5  111   0     973.3    NA       0.0000   9999     460   1440  0    
2019/11/16  21:54:00  BASE  2.55192  174  2.84592  179  -2.5  100   -2.5  108   0     973.3    NA       0.0000   9999     430   1480  0    
2019/11/16  21:55:00  BASE  2.65776  181  2.93412  187  -2.5  100   -2.5  104   0     973.3    NA       0.0000   9999     430   1900  0    
2019/11/16  21:56:00  BASE  2.63424  180  2.93412  187  -2.5  100   -2.5  101   0     973.3    NA       0.0000   9999     430   1480  0    
2019/11/16  21:57:00  BASE  2.37552  176  2.93412  187  -2.5  100   -2.5  98    0     973.3    NA       0.0000   9999     430   1480  0    
2019/11/16  21:58:00  BASE  2.12268  173  2.93412  187  -2.5  100   -2.5  95    0     973.3    NA       0.0000   9999     430   1480  0    
2019/11/16  21:59:00  BASE  1.92864  167  2.93412  187  -2.6  100   -2.6  92    0     973.3    NA       0.0000   9999     430   1480  0    
2019/11/16  22:00:00  BASE  2.11092  156  2.93412  187  -2.5  100   -2.5  91    0     973.3    NA       0.0000   9999     430   1440  0    
2019/11/16  22:01:00  BASE  2.34612  153  2.93412  187  -2.5  100   -2.5  89    0     973.3    NA       0.0000   9999     430   1440  0    
2019/11/16  22:02:00  BASE  2.39904  152  2.93412  187  -2.5  100   -2.5  88    0     973.3    NA       0.0000   9999     460   1440  0    
2019/11/16  22:03:00  BASE  2.39904  148  2.93412  187  -2.5  100   -2.5  87    0     973.3    NA       0.0000   9999     1440  0     0    
2019/11/16  22:04:00  BASE  2.30496  147  2.93412  187  -2.5  100   -2.5  85    0     973.3    NA       0.0000   9999     1610  0     0    
2019/11/16  22:05:00  BASE  2.24616  143  2.63424  146  -2.6  100   -2.6  83    0     973.3    NA       0.0000   9999     1870  0     0    
2019/11/16  22:06:00  BASE  2.24616  141  2.63424  146  -2.6  100   -2.6  82    0     973.3    NA       0.0000   9999     1900  0     0    
2019/11/16  22:07:00  BASE  2.24616  144  2.63424  146  -2.6  100   -2.6  80    0     973.3    NA       0.0000   9999     1870  0     0    
2019/11/16  22:08:00  BASE  2.14032  146  2.63424  146  -2.6  100   -2.6  78    0     973.4    NA       0.0000   9999     1900  0     0    
2019/11/16  22:09:00  BASE  2.03448  150  2.63424  146  -2.6  100   -2.6  77    0     973.4    NA       0.0000   9999     460   1900  0    
2019/11/16  22:10:00  BASE  2.04036  156  2.63424  146  -2.6  100   -2.6  76    0     973.4    NA       0.0000   9999     1870  0     0    
2019/11/16  22:11:00  BASE  2.01684  155  2.63424  146  -2.6  100   -2.6  76    0     973.4    NA       0.0000   9999     1870  0     0    
2019/11/16  22:12:00  BASE  2.04036  152  2.59896  144  -2.6  100   -2.6  75    0     973.3    NA       0.0000   9999     1870  0     0    
2019/11/16  22:13:00  BASE  1.98156  149  2.48136  146  -2.6  100   -2.6  75    0     973.3    NA       0.0000   9999     1840  0     0    
2019/11/16  22:14:00  BASE  1.93452  145  2.48136  146  -2.5  100   -2.5  75    0     973.3    NA       0.0000   9999     1840  0     0    
2019/11/16  22:15:00  BASE  1.86984  146  2.42256  146  -2.5  100   -2.5  74    0     973.3    NA       0.0000   9999     1800  0     0    
2019/11/16  22:16:00  BASE  1.75224  153  2.42256  146  -2.5  100   -2.5  73    0     973.3    NA       0.0000   9999     490   1870  0    
2019/11/16  22:17:00  BASE  1.7052   152  2.35788  142  -2.5  100   -2.5  72    0     973.3    NA       0.0000   9999     520   1800  0    
2019/11/16  22:18:00  BASE  1.6464   154  2.35788  142  -2.5  100   -2.5  71    0     973.3    NA       0.0000   9999     560   1840  0    
2019/11/16  22:19:00  BASE  1.62288  157  2.35788  142  -2.5  100   -2.5  71    0     973.3    NA       0.0000   9999     1870  0     0    
2019/11/16  22:20:00  BASE  1.69344  151  2.35788  142  -2.5  100   -2.5  71    0     973.3    NA       0.0000   9999     1870  0     0    
2019/11/16  22:21:00  BASE  1.8816   147  2.35788  142  -2.5  100   -2.5  71    0     973.3    NA       0.0000   9999     1870  0     0    
2019/11/16  22:22:00  BASE  1.96392  151  2.29908  134  -2.5  100   -2.5  70    0     973.3    NA       0.0000   9999     1840  0     0    
2019/11/16  22:23:00  BASE  1.94628  156  2.29908  134  -2.5  100   -2.5  70    0     973.3    NA       0.0000   9999     520   1870  0    
2019/11/16  22:24:00  BASE  1.9404   162  2.24028  151  -2.5  100   -2.5  69    0     973.3    NA       0.0000   9999     560   1870  0    
2019/11/16  22:25:00  BASE  1.86396  166  2.24028  151  -2.5  100   -2.5  69    0     973.3    NA       0.0000   9999     1840  0     0    
2019/11/16  22:26:00  BASE  1.68168  168  2.24028  151  -2.5  100   -2.5  69    0     973.3    NA       0.0000   9999     1840  0     0    
2019/11/16  22:27:00  BASE  1.63464  173  2.24028  151  -2.5  100   -2.5  68    0     973.3    NA       0.0000   9999     1840  0     0    
2019/11/16  22:28:00  BASE  1.74048  177  2.24028  151  -2.5  100   -2.5  68    0     973.3    NA       0.0000   9999     490   1800  0    
2019/11/16  22:29:00  BASE  1.81104  173  2.24028  151  -2.5  100   -2.5  68    0     973.3    NA       0.0000   9999     1640  0     0    
2019/11/16  22:30:00  BASE  1.81104  172  2.24028  151  -2.5  100   -2.5  67    0     973.4    NA       0.0000   9999     460   1640  0    
2019/11/16  22:31:00  BASE  1.69932  175  2.24028  151  -2.5  100   -2.5  66    0     973.3    NA       0.0000   9999     460   1640  0    
2019/11/16  22:32:00  BASE  1.66992  176  2.1168   157  -2.5  100   -2.5  65    0     973.3    NA       0.0000   9999     430   1840  0    
2019/11/16  22:33:00  BASE  1.72872  176  2.0874   165  -2.5  100   -2.5  64    0     973.3    NA       0.0000   9999     460   1800  0    
2019/11/16  22:34:00  BASE  1.77576  175  2.0874   165  -2.5  100   -2.5  62    0     973.3    NA       0.0000   9999     430   1840  0    
2019/11/16  22:35:00  BASE  1.84632  177  2.1462   181  -2.5  100   -2.5  61    0     973.4    NA       0.0000   9999     430   1800  0    
2019/11/16  22:36:00  BASE  1.81104  178  2.1462   181  -2.5  100   -2.5  60    0     973.4    NA       0.0000   9999     430   1800  0    
2019/11/16  22:37:00  BASE  1.764    183  2.1462   181  -2.5  100   -2.5  59    0     973.4    NA       0.0000   9999     430   1900  0    
2019/11/16  22:38:00  BASE  1.85808  191  2.1462   181  -2.5  100   -2.5  59    0     973.4    NA       0.0000   9999     430   1870  0    
2019/11/16  22:39:00  BASE  2.03448  191  2.24028  184  -2.5  100   -2.5  58    0     973.4    NA       0.0000   9999     430   1840  0    
2019/11/16  22:40:00  BASE  2.10504  190  2.24028  184  -2.5  100   -2.5  58    0     973.4    NA       0.0000   9999     460   1610  0    
2019/11/16  22:41:00  BASE  2.11092  192  2.35788  192  -2.5  100   -2.5  57    0     973.4    NA       0.0000   9999     430   1840  0    
2019/11/16  22:42:00  BASE  2.09916  190  2.35788  192  -2.5  100   -2.5  57    0     973.4    NA       0.0000   9999     430   1840  0    
2019/11/16  22:43:00  BASE  2.0874   189  2.35788  192  -2.5  100   -2.5  56    0     973.4    NA       0.0000   9999     430   1840  0    
2019/11/16  22:44:00  BASE  2.09916  189  2.35788  192  -2.5  100   -2.5  55    0     973.5    NA       0.0000   9999     430   1570  0    
2019/11/16  22:45:00  BASE  1.9404   183  2.35788  192  -2.5  100   -2.5  55    0     973.5    NA       0.0000   9999     430   920   0    
2019/11/16  22:46:00  BASE  1.6464   168  2.35788  192  -2.5  100   -2.5  54    0     973.5    NA       0.0000   9999     430   890   0    
2019/11/16  22:47:00  BASE  1.54056  153  2.35788  192  -2.5  100   -2.5  54    0     973.5    NA       0.0000   9999     1770  0     0    
2019/11/16  22:48:00  BASE  1.74048  147  2.35788  192  -2.5  100   -2.5  54    0     973.5    NA       0.0000   9999     1840  0     0    
2019/11/16  22:49:00  BASE  1.98744  143  2.35788  192  -2.5  100   -2.5  53    0     973.4    NA       0.0000   9999     1840  0     0    
2019/11/16  22:50:00  BASE  2.09916  145  2.35788  192  -2.5  100   -2.5  52    0     973.4    NA       0.0000   9999     1840  0     0    
2019/11/16  22:51:00  BASE  1.9698   148  2.32848  137  -2.5  100   -2.5  52    0     973.4    NA       0.0000   9999     1870  0     0    
2019/11/16  22:52:00  BASE  1.6464   151  2.32848  137  -2.5  100   -2.5  51    0     973.5    NA       0.0000   9999     1870  0     0    
2019/11/16  22:53:00  BASE  1.5582   159  2.32848  137  -2.5  100   -2.5  51    0     973.5    NA       0.0000   9999     520   1840  0    
2019/11/16  22:54:00  BASE  1.63464  168  2.32848  137  -2.5  100   -2.5  50    0     973.5    NA       0.0000   9999     490   1870  0    
2019/11/16  22:55:00  BASE  1.60524  179  2.32848  137  -2.5  100   -2.5  49    0     973.5    NA       0.0000   9999     490   1870  0    
2019/11/16  22:56:00  BASE  1.56996  187  2.32848  137  -2.5  100   -2.5  48    0     973.5    NA       0.0000   9999     430   1870  0    
2019/11/16  22:57:00  BASE  1.61112  191  2.32848  137  -2.5  100   -2.5  47    0     973.6    NA       0.0000   9999     430   0     0    
2019/11/16  22:58:00  BASE  1.74636  196  2.32848  137  -2.5  100   -2.5  46    0     973.6    NA       0.0000   9999     390   0     0    
2019/11/16  22:59:00  BASE  1.81104  197  2.26968  147  -2.5  100   -2.5  46    0     973.6    NA       0.0000   9999     390   0     0    
2019/11/16  23:00:00  BASE  1.78752  199  2.058    202  -2.5  100   -2.5  45    0     973.6    NA       0.0000   9999     390   0     0    
2019/11/16  23:01:00  BASE  1.81692  199  2.058    202  -2.5  100   -2.5  44    0     973.6    NA       0.0000   9999     390   0     0    
2019/11/16  23:02:00  BASE  1.75812  200  2.058    202  -2.5  100   -2.5  44    0     973.6    NA       0.0000   9999     390   0     0    
2019/11/16  23:03:00  BASE  1.75812  204  2.058    202  -2.5  100   -2.5  44    0     973.6    NA       0.0000   9999     390   0     0    
2019/11/16  23:04:00  BASE  1.81692  199  2.058    202  -2.5  100   -2.5  43    0     973.6    NA       0.0000   9999     390   0     0    
2019/11/16  23:05:00  BASE  1.55232  193  2.058    202  -2.5  100   -2.5  43    0     973.6    NA       0.0000   9999     390   0     0    
2019/11/16  23:06:00  BASE  1.3524   180  2.058    202  -2.5  100   -2.5  43    0     973.5    NA       0.0000   9999     390   1020  0    
2019/11/16  23:07:00  BASE  1.3818   167  2.058    202  -2.5  100   -2.5  44    0     973.5    NA       0.0000   9999     430   1440  0    
2019/11/16  23:08:00  BASE  1.4112   159  2.058    202  -2.5  100   -2.5  44    0     973.5    NA       0.0000   9999     1480  0     0    
2019/11/16  23:09:00  BASE  1.45236  155  2.058    202  -2.5  100   -2.5  43    0     973.5    NA       0.0000   9999     1570  0     0    
2019/11/16  23:10:00  BASE  1.51116  155  2.0286   197  -2.5  100   -2.5  43    0     973.5    NA       0.0000   9999     1570  0     0    
2019/11/16  23:11:00  BASE  1.54056  153  2.0286   197  -2.5  100   -2.5  43    0     973.5    NA       0.0000   9999     1770  0     0    
2019/11/16  23:12:00  BASE  1.40532  155  2.0286   197  -2.5  100   -2.5  42    0     973.5    NA       0.0000   9999     460   1770  0    
2019/11/16  23:13:00  BASE  1.3524   153  2.0286   197  -2.5  100   -2.5  42    0     973.5    NA       0.0000   9999     430   1800  0    
2019/11/16  23:14:00  BASE  1.43472  151  1.69344  162  -2.5  100   -2.5  41    0     973.5    NA       0.0000   9999     430   1870  0    
2019/11/16  23:15:00  BASE  1.51116  157  1.78752  158  -2.5  100   -2.5  41    0     973.5    NA       0.0000   9999     490   1640  0    
2019/11/16  23:16:00  BASE  1.59348  162  1.78752  158  -2.5  100   -2.5  40    0     973.5    NA       0.0000   9999     490   1610  0    
2019/11/16  23:17:00  BASE  1.63464  161  1.84632  160  -2.5  100   -2.5  39    0     973.5    NA       0.0000   9999     490   1570  0    
2019/11/16  23:18:00  BASE  1.65228  155  1.84632  160  -2.5  100   -2.5  39    0     973.5    NA       0.0000   9999     490   1570  0    
2019/11/16  23:19:00  BASE  1.59936  147  1.84632  160  -2.5  100   -2.5  38    0     973.5    NA       0.0000   9999     490   1540  0    
2019/11/16  23:20:00  BASE  1.62876  138  1.84632  160  -2.5  100   -2.5  38    0     973.5    NA       0.0000   9999     490   1510  0    
2019/11/16  23:21:00  BASE  1.7052   130  2.0286   117  -2.5  100   -2.5  37    0     973.5    NA       0.0000   9999     1510  0     0    
2019/11/16  23:22:00  BASE  1.79928  125  2.0874   124  -2.5  100   -2.5  37    0     973.5    NA       0.0000   9999     1510  0     0    
2019/11/16  23:23:00  BASE  1.8228   125  2.0874   124  -2.5  100   -2.5  36    0     973.5    NA       0.0000   9999     1510  0     0    
2019/11/16  23:24:00  BASE  1.7934   125  2.0874   124  -2.5  100   -2.5  36    0     973.5    NA       0.0000   9999     1480  0     0    
2019/11/16  23:25:00  BASE  1.6758   121  2.0874   124  -2.5  100   -2.5  35    0     973.5    NA       0.0000   9999     1480  0     0    
2019/11/16  23:26:00  BASE  1.51704  117  2.0874   124  -2.5  100   -2.5  35    0     973.5    NA       0.0000   9999     1480  0     0    
2019/11/16  23:27:00  BASE  1.47588  118  2.0874   124  -2.5  100   -2.5  34    0     973.5    NA       0.0000   9999     1410  0     0    
2019/11/16  23:28:00  BASE  1.51116  122  2.0874   124  -2.5  100   -2.5  33    0     973.5    NA       0.0000   9999     1380  0     0    
2019/11/16  23:29:00  BASE  1.25832  126  2.0874   124  -2.5  100   -2.5  33    0     973.5    NA       0.0000   9999     1380  0     0    
2019/11/16  23:30:00  BASE  0.95844  137  2.0874   124  -2.5  100   -2.5  32    0     973.5    NA       0.0000   9999     1440  0     0    
2019/11/16  23:31:00  BASE  0.87024  146  2.0874   124  -2.4  100   -2.4  32    0     973.5    NA       0.0000   9999     1440  0     0    
2019/11/16  23:32:00  BASE  0.95844  151  1.93452  121  -2.4  100   -2.4  32    0     973.5    NA       0.0000   9999     1410  0     0    
2019/11/16  23:33:00  BASE  1.37592  151  1.93452  121  -2.3  100   -2.3  32    0     973.5    NA       0.0000   9999     1410  0     0    
2019/11/16  23:34:00  BASE  1.74048  142  2.0286   130  -2.3  100   -2.3  32    0     973.5    NA       0.0000   9999     1410  1940  0    
2019/11/16  23:35:00  BASE  1.9698   139  2.24028  139  -2.3  100   -2.3  32    0     973.5    NA       0.0000   9999     1410  0     0    
2019/11/16  23:36:00  BASE  2.03448  141  2.24028  139  -2.3  100   -2.3  31    0     973.5    NA       0.0000   9999     1380  0     0    
2019/11/16  23:37:00  BASE  2.0286   139  2.24028  139  -2.4  100   -2.4  31    0     973.5    NA       0.0000   9999     1410  0     0    
2019/11/16  23:38:00  BASE  2.06388  140  2.35788  138  -2.4  100   -2.4  30    0     973.5    NA       0.0000   9999     1380  1900  0    
2019/11/16  23:39:00  BASE  1.83456  147  2.35788  138  -2.4  100   -2.4  29    0     973.5    NA       0.0000   9999     1410  0     0    
2019/11/16  23:40:00  BASE  1.77576  157  2.35788  138  -2.4  100   -2.4  29    0     973.5    NA       0.0000   9999     1440  1970  0    
2019/11/16  23:41:00  BASE  1.93452  163  2.35788  138  -2.4  100   -2.4  28    0     973.5    NA       0.0000   9999     1480  0     0    
2019/11/16  23:42:00  BASE  1.89336  161  2.35788  138  -2.4  100   -2.4  28    0     973.5    NA       0.0000   9999     1440  1940  0    
2019/11/16  23:43:00  BASE  1.86984  155  2.35788  138  -2.4  100   -2.4  27    0     973.5    NA       0.0000   9999     1440  1900  0    
2019/11/16  23:44:00  BASE  1.91688  151  2.35788  138  -2.3  100   -2.3  27    0     973.5    NA       0.0000   9999     1440  0     0    
2019/11/16  23:45:00  BASE  2.09916  147  2.35788  140  -2.4  100   -2.4  27    0     973.5    NA       0.0000   9999     1440  1800  0    
2019/11/16  23:46:00  BASE  2.27556  141  2.48136  135  -2.4  100   -2.4  27    0     973.5    NA       0.0000   9999     1740  0     0    
2019/11/16  23:47:00  BASE  2.28144  140  2.48136  135  -2.4  100   -2.4  26    0     973.5    NA       0.0000   9999     1710  0     0    
2019/11/16  23:48:00  BASE  2.04036  144  2.48136  135  -2.4  100   -2.4  26    0     973.5    NA       0.0000   9999     1740  0     0    
2019/11/16  23:49:00  BASE  1.62876  150  2.48136  135  -2.4  100   -2.4  26    0     973.4    NA       0.0000   9999     1770  0     0    
2019/11/16  23:50:00  BASE  1.39944  152  2.48136  135  -2.4  100   -2.4  26    0     973.4    NA       0.0000   9999     1740  0     0    
2019/11/16  23:51:00  BASE  1.323    152  2.48136  135  -2.3  100   -2.3  26    0     973.4    NA       0.0000   9999     1740  0     0    
2019/11/16  23:52:00  BASE  0.99372  152  2.48136  135  -2.3  100   -2.3  26    0     973.4    NA       0.0000   9999     1710  0     0    
2019/11/16  23:53:00  BASE  0.59388  115  2.48136  135  -2.2  100   -2.2  26    0     973.4    NA       0.0000   9999     1710  0     0    
2019/11/16  23:54:00  BASE  0.735    71   2.48136  135  -2.2  100   -2.2  26    0     973.4    NA       0.0000   9999     1670  0     0    
2019/11/16  23:55:00  BASE  1.37592  73   2.48136  135  -2.1  100   -2.1  26    0     973.4    NA       0.0000   9999     1670  0     0    
2019/11/16  23:56:00  BASE  2.2932   68   3.35748  58   -2.0  100   -2.0  25    0     973.3    NA       0.0000   9999     1670  0     0    
2019/11/16  23:57:00  BASE  2.87532  58   3.35748  58   -1.9  100   -1.9  25    0     973.3    NA       0.0000   9999     1640  0     0    
2019/11/16  23:58:00  BASE  2.8224   50   3.35748  58   -1.8  100   -1.8  24    0     973.3    NA       0.0000   9999     1610  0     0    
2019/11/16  23:59:00  BASE  2.61072  44   3.35748  58   -1.8  100   -1.8  24    0     973.3    NA       0.0000   9999     1670  0     0